GFSGL_700_spd_000.txt.gz
Wind_Speed
49 51 48 42 42 42 43 47 49 51 52 50 46 42 39 39 35 35 34 33 33 32 29 30 30 30 29 29 28 30 28 27 32 32 28 23 23 20 22 24 25 26 28
49 48 39 39 39 40 44 47 49 51 48 47 46 44 41 37 35 33 33 35 38 38 31 26 27 31 34 35 35 30 29 34 31 31 30 30 28 27 27 23 23 24 27
42 40 37 38 41 42 43 50 49 46 47 44 42 37 33 33 34 34 35 34 35 36 34 35 36 32 34 34 35 40 41 34 32 32 34 32 32 29 33 32 29 29 30
39 37 42 44 48 46 48 43 45 45 45 41 34 32 33 33 34 35 34 34 35 35 35 34 34 34 32 32 32 32 32 35 35 37 38 36 32 30 29 30 32 33 34
35 34 48 50 48 52 46 44 47 45 40 38 34 32 31 32 34 35 37 37 37 38 39 37 35 33 33 38 37 36 41 38 38 39 39 38 36 31 28 25 26 26 28
41 48 49 43 37 39 37 41 43 38 37 38 34 35 34 35 38 41 42 41 41 42 42 39 36 35 33 30 35 37 39 39 35 35 37 38 37 35 35 35 37 37 37
41 45 48 38 40 36 45 47 39 33 38 37 34 35 39 40 41 45 45 43 44 42 40 38 35 33 33 32 34 37 37 35 32 30 32 33 35 33 34 36 37 41 43
34 39 45 48 46 38 43 37 32 34 39 34 35 38 42 41 43 46 47 42 39 38 35 32 30 29 29 31 34 35 34 32 32 32 33 29 32 31 34 35 38 40 41
33 40 41 45 25 40 35 34 32 35 35 36 38 38 38 40 43 43 40 38 37 35 31 29 26 26 25 26 29 31 31 29 30 30 30 29 29 29 30 33 34 34 36
34 41 42 34 29 39 34 32 29 34 34 38 40 32 37 41 40 40 39 37 36 33 28 23 21 21 22 21 23 25 26 26 26 25 25 25 26 26 26 28 30 31 30
42 39 37 26 33 39 30 27 33 32 37 36 32 36 40 40 40 40 38 36 32 29 28 24 19 18 22 21 22 22 23 23 22 23 22 21 22 23 22 23 25 25 23
37 35 29 30 34 32 25 31 33 34 33 31 33 37 40 38 38 38 34 29 27 29 27 23 21 20 20 21 21 21 21 19 18 17 17 15 15 14 14 13 15 17 20
36 33 27 28 30 27 29 30 29 31 30 29 32 37 38 37 37 34 28 25 25 25 23 21 19 17 16 16 16 16 14 12 11 9 9 9 8 7 6 5 7 10 13
36 29 27 26 26 25 25 26 29 28 27 28 32 36 36 35 37 30 24 23 23 22 20 17 15 13 13 14 12 7 5 6 6 7 8 8 7 6 6 7 8 9 12
31 28 26 23 21 22 22 25 26 27 26 28 30 33 36 34 35 29 25 23 22 21 18 15 13 13 12 12 12 6 4 5 6 7 8 8 8 7 6 6 7 7 10
30 27 21 20 22 20 21 22 25 26 25 26 27 28 31 32 34 29 23 21 20 18 16 15 14 13 13 14 14 13 8 5 6 7 8 8 8 8 6 6 7 3 5
26 21 19 21 20 21 21 23 25 25 25 25 26 27 30 30 33 30 23 19 18 16 16 15 13 10 12 14 12 11 10 8 5 5 8 8 7 7 6 5 5 4 4
23 20 22 20 20 21 21 22 24 24 23 25 27 26 28 31 32 31 24 19 17 16 15 14 11 9 12 11 10 10 9 8 9 7 3 6 7 5 4 5 5 4 5
23 18 21 21 21 21 21 22 22 22 22 23 25 27 27 28 30 31 27 21 18 16 14 13 8 7 10 11 11 10 10 9 9 9 7 2 6 5 4 3 5 6 7
23 20 21 22 21 21 20 20 20 21 21 23 24 24 25 25 27 28 28 24 19 16 14 12 9 6 8 10 10 10 10 9 9 9 8 6 2 4 5 6 8 9 10
21 21 21 21 20 19 19 19 20 20 21 23 24 24 24 24 24 26 26 25 22 18 15 12 11 10 8 9 10 9 9 8 8 8 7 6 5 4 4 5 6 7 8
21 21 21 20 18 18 17 18 18 19 21 22 23 24 23 23 22 23 24 24 23 20 17 14 12 10 9 9 9 9 9 8 8 8 7 7 6 5 5 5 6 6 6
21 21 20 19 18 16 15 16 17 19 20 22 22 22 23 24 23 21 22 23 22 20 18 16 14 12 12 11 9 8 9 9 8 8 7 7 8 7 7 7 7 7 7
22 21 19 18 17 15 14 14 16 18 20 21 22 22 22 23 23 23 21 20 21 20 18 16 15 14 13 12 11 9 8 9 9 9 8 8 8 8 7 8 8 8 8
20 21 19 17 15 13 13 14 16 18 20 21 21 21 21 22 23 23 22 20 20 20 19 17 16 15 14 13 12 12 12 11 10 9 9 9 9 9 9 9 9 9 9
21 21 19 16 15 14 14 15 16 18 19 20 20 20 21 21 22 23 23 22 20 19 19 18 17 15 15 14 13 13 13 12 12 11 10 10 10 10 10 10 10 11 11

GFSGL_700_spd_003.txt.gz
Wind_Speed
46 44 41 43 50 48 41 44 48 46 47 46 46 47 47 43 38 33 33 33 32 31 28 24 29 31 33 32 33 35 28 30 35 36 32 31 29 23 20 20 24 29 38
42 40 39 42 46 34 45 52 58 45 44 41 49 49 43 37 34 34 33 33 32 31 31 30 29 30 32 33 34 35 35 36 31 35 34 36 37 28 24 24 22 24 16
38 40 41 41 41 38 47 54 54 42 38 50 52 42 41 37 34 33 33 33 34 35 37 38 36 35 34 33 32 34 34 34 37 43 43 44 36 31 28 29 31 28 22
37 40 42 42 43 46 55 53 46 36 44 47 43 42 44 33 30 32 35 36 38 40 41 40 39 39 38 36 34 33 34 36 36 34 35 38 39 34 29 31 31 34 34
39 38 43 42 42 47 51 57 33 38 42 40 40 42 42 33 32 36 41 42 44 45 45 44 42 40 37 33 33 33 35 38 41 43 40 37 37 35 33 33 33 32 32
45 42 37 41 44 47 51 44 31 29 34 40 38 44 37 36 38 41 45 46 48 49 46 42 38 34 32 33 34 35 36 37 38 38 40 37 34 34 35 35 34 34 33
47 42 36 37 40 42 46 27 29 31 33 34 40 38 36 38 43 44 47 50 48 44 41 38 34 30 29 29 30 32 34 36 39 39 37 33 29 28 32 34 36 38 39
44 41 36 38 41 44 37 30 27 30 31 34 35 36 36 38 40 45 46 44 43 38 35 33 30 28 27 27 28 30 30 32 37 38 37 30 30 28 31 32 34 37 39
44 38 33 36 37 36 32 25 27 28 30 35 35 33 29 33 40 43 43 43 38 34 30 26 24 22 22 23 24 26 26 25 27 28 29 28 27 26 28 30 30 32 31
44 40 37 35 34 30 29 29 25 29 32 35 34 28 30 38 43 43 42 41 35 30 26 24 22 20 19 20 19 21 23 22 23 23 23 25 25 24 23 24 24 26 27
42 39 36 32 28 23 24 25 27 29 34 33 28 28 34 39 43 43 42 37 32 30 29 26 21 18 18 20 21 21 20 20 19 19 19 20 21 20 19 20 21 22 22
39 39 34 29 26 24 24 26 28 32 30 27 26 27 32 36 40 39 38 31 29 30 29 25 20 18 16 17 18 18 17 15 14 14 13 13 13 13 14 15 15 15 16
38 35 31 27 25 23 25 26 27 27 26 26 26 27 30 34 36 36 32 28 26 26 24 22 19 17 15 16 16 15 12 9 8 6 5 5 6 7 8 8 8 7 7
35 31 28 27 24 20 19 22 24 23 23 24 25 26 28 32 34 33 30 23 22 22 21 18 17 16 16 16 15 10 6 4 2 2 2 3 5 7 6 6 4 5 6
31 28 26 23 19 19 22 21 22 23 24 25 24 25 25 28 32 34 32 25 22 21 19 17 16 15 14 14 14 14 9 5 4 4 4 4 5 7 7 6 5 6 5
28 26 24 20 20 22 21 21 22 22 23 22 21 22 23 26 28 31 34 27 22 19 17 16 15 14 16 18 17 17 16 13 6 5 4 5 6 7 7 9 8 6 5
27 23 21 19 21 22 23 22 22 21 22 20 19 20 21 24 26 29 32 29 23 18 16 14 13 12 15 16 17 16 15 14 12 4 6 7 8 7 6 7 6 5 5
25 21 19 21 22 22 23 22 22 22 21 20 20 21 21 22 24 26 28 29 24 20 16 13 11 8 11 14 14 15 15 14 14 12 1 5 5 4 4 4 5 6 6
21 20 18 19 21 23 23 21 20 19 19 20 22 21 22 22 22 23 24 26 26 22 17 14 11 8 8 11 13 13 13 12 11 10 8 1 3 4 3 3 4 6 6
18 18 19 20 21 22 21 19 18 17 18 19 20 21 21 21 20 21 21 22 23 23 19 16 14 11 9 9 11 11 11 11 10 8 7 5 2 3 6 6 6 7 8
17 18 20 21 22 21 19 17 15 15 17 18 19 20 20 19 19 19 19 19 20 20 20 17 14 14 13 11 10 10 10 9 9 8 6 5 4 4 4 3 4 4 4
16 18 20 21 21 19 17 15 14 14 16 18 20 20 20 19 19 19 19 19 18 18 18 17 16 14 13 12 12 9 9 10 9 8 7 6 5 4 5 5 4 4 5
16 18 21 21 19 17 15 14 12 14 16 18 19 21 20 18 19 19 19 18 18 17 17 16 16 15 14 13 12 11 10 8 8 8 7 7 7 6 6 6 5 6 5
17 19 20 21 17 15 14 13 13 14 16 17 18 19 19 19 19 20 20 20 18 18 16 16 16 15 15 14 13 12 11 11 11 9 8 8 7 7 7 6 5 6 6
15 17 18 18 17 15 14 13 14 16 16 17 17 18 18 18 18 20 21 22 21 20 18 17 16 16 15 15 14 13 13 12 11 11 10 9 8 7 8 7 7 6 7
16 16 17 18 17 16 15 15 16 16 16 16 16 16 17 17 18 19 21 22 23 23 20 18 17 16 15 15 15 14 14 13 13 12 11 10 9 9 9 9 8 8 8

GFSGL_700_spd_006.txt.gz
Wind_Speed
52 46 40 40 42 44 44 42 42 47 41 49 49 52 41 42 40 41 40 36 29 27 28 30 31 31 30 30 32 32 36 40 39 34 33 36 33 31 23 22 27 25 25
43 40 40 41 42 42 45 44 44 47 48 50 50 31 37 37 37 36 30 29 30 32 33 35 36 37 38 38 37 34 36 40 42 42 43 29 32 32 30 24 26 29 23
39 38 38 40 41 43 46 50 48 42 43 44 35 29 36 37 40 27 28 32 33 34 38 41 43 44 44 41 41 41 38 36 39 41 41 36 35 35 35 33 29 31 32
38 38 41 43 43 42 43 43 39 38 45 35 27 33 36 38 34 31 33 35 36 40 43 46 47 46 44 42 42 42 40 38 39 40 41 40 37 31 35 37 31 29 30
40 42 44 44 43 39 38 42 45 44 43 39 29 35 37 37 33 34 36 37 41 45 46 47 46 45 41 39 37 37 36 36 36 39 40 44 42 38 35 33 38 37 32
43 44 42 44 44 40 39 41 41 34 36 29 31 35 35 33 34 35 36 40 44 45 45 44 42 41 38 34 32 33 34 34 36 37 37 39 38 34 34 36 37 38 37
45 45 43 44 42 38 36 34 30 25 21 26 31 32 34 34 35 35 39 42 44 44 44 40 37 34 31 29 27 28 29 32 35 37 39 38 38 33 33 33 34 37 38
46 46 42 42 38 36 34 28 24 24 22 26 28 33 35 34 34 37 40 44 44 43 36 33 33 31 28 26 24 23 24 26 29 32 35 36 33 31 31 30 32 34 36
48 46 43 41 37 34 31 27 23 22 22 26 30 36 35 32 33 37 41 43 43 36 30 30 31 29 25 22 23 21 21 20 23 26 27 29 28 27 26 28 30 32 32
49 46 43 39 35 32 28 24 23 23 26 30 34 36 33 32 34 37 42 41 39 32 29 29 27 24 21 20 21 21 19 18 20 21 24 25 24 24 24 25 25 27 27
47 43 41 36 33 30 26 25 25 25 27 32 33 31 31 31 34 36 39 41 37 31 30 29 25 21 19 18 19 19 19 16 15 16 17 19 20 19 19 20 20 21 21
43 40 37 33 31 27 26 25 24 25 26 27 27 29 28 29 31 33 36 38 33 29 28 27 23 20 19 19 18 17 16 14 11 9 8 9 11 13 14 15 16 15 15
40 38 35 31 27 25 24 21 21 23 24 23 26 26 24 27 28 30 33 34 28 26 25 24 22 20 18 17 18 17 12 6 3 2 2 3 5 6 8 9 9 8 8
37 35 31 29 24 20 19 21 21 22 22 24 25 23 23 25 25 27 30 30 26 23 22 21 20 19 17 18 18 16 11 7 4 1 1 2 4 5 5 6 7 5 4
34 30 28 26 22 20 20 21 21 21 23 24 24 22 21 23 24 26 29 30 29 24 21 20 19 16 16 18 16 15 14 11 4 1 1 2 4 6 6 6 6 4 2
31 25 25 24 22 21 21 22 23 22 22 23 23 21 21 22 23 24 26 28 29 25 21 18 17 14 16 18 18 17 16 15 9 1 2 4 5 6 6 7 7 7 7
25 21 23 22 21 20 21 22 22 21 21 21 20 20 21 21 21 22 23 25 27 25 22 18 16 14 14 16 18 18 17 16 15 7 3 5 5 6 7 7 7 9 10
23 21 19 17 18 21 23 23 21 19 17 17 17 19 20 20 19 20 20 22 23 24 22 18 16 14 14 14 15 15 16 15 14 11 3 2 4 4 5 5 6 7 8
21 18 16 16 17 19 22 21 19 18 17 16 16 18 19 19 19 19 20 20 21 21 21 19 17 16 15 14 14 15 14 12 11 10 7 2 2 3 3 4 4 6 8
21 17 16 17 19 20 20 18 18 16 15 15 17 18 19 19 18 18 19 19 19 19 19 19 18 17 16 15 15 13 14 13 12 9 7 5 3 2 3 5 6 7 8
20 18 17 18 20 21 19 17 16 15 13 15 16 18 19 19 17 17 18 18 18 17 17 18 18 17 16 15 15 14 13 11 11 9 8 6 5 3 3 3 4 4 3
21 18 18 18 20 21 19 16 15 14 13 14 16 17 18 16 16 16 16 17 18 19 18 17 16 16 15 15 15 14 13 13 11 10 9 8 6 6 5 4 5 5 5
19 18 18 18 20 20 17 16 14 13 14 15 16 16 16 15 15 16 17 17 18 18 19 19 17 16 16 16 14 14 13 12 12 12 11 9 8 7 6 6 7 7 6
18 17 17 17 19 19 17 16 15 14 14 15 16 16 16 15 15 16 17 18 19 20 20 20 20 18 16 16 16 15 14 14 13 12 12 12 10 8 8 7 7 7 7
16 17 17 17 17 18 17 17 16 16 16 16 16 16 15 15 15 15 17 18 20 22 23 22 21 20 18 18 16 16 15 14 14 13 13 12 12 12 10 8 8 8 8
17 18 18 19 19 19 19 18 18 19 18 18 17 17 17 16 16 16 18 20 22 23 24 25 23 21 19 18 17 16 15 15 14 14 13 13 12 11 12 12 11 9 9

GFSGL_700_spd_009.txt.gz
Wind_Speed
43 47 46 44 44 44 46 48 48 47 45 47 45 42 44 42 35 35 37 37 32 29 32 35 35 37 38 39 40 40 39 38 43 42 40 38 37 27 27 28 28 28 25
44 42 42 43 45 46 47 46 47 47 44 35 33 36 38 33 31 35 38 34 32 33 33 35 38 42 44 44 44 43 43 42 42 42 39 41 37 39 30 23 29 31 31
41 43 43 46 48 46 45 45 45 43 43 42 44 40 30 30 35 37 35 34 33 34 36 41 45 46 46 47 46 44 41 40 39 40 40 39 38 35 36 34 26 28 32
42 43 44 47 48 48 48 46 42 39 38 37 30 25 27 28 35 36 35 35 34 36 41 46 48 48 48 47 42 39 35 36 35 34 36 38 39 38 35 34 37 34 33
42 43 45 48 49 49 46 44 39 38 35 30 28 23 23 32 33 35 35 35 36 40 43 46 46 47 44 40 37 35 32 33 31 29 30 32 36 37 35 35 33 33 35
43 45 47 49 48 47 46 42 39 34 29 22 23 25 31 29 34 36 35 36 39 41 45 45 45 40 37 36 35 32 29 30 31 30 31 31 33 33 33 34 35 35 34
46 48 49 49 48 47 43 38 35 31 26 21 27 25 25 30 37 36 35 37 39 43 44 44 39 37 37 36 33 30 27 25 28 28 30 32 35 33 33 31 32 32 33
50 51 50 49 46 43 39 36 32 29 22 22 24 25 29 34 38 36 35 37 39 42 43 39 36 36 34 31 28 26 23 21 22 24 26 27 28 30 32 31 31 34 33
51 50 49 46 44 40 36 32 30 27 26 26 25 28 32 36 35 34 35 37 38 41 39 33 32 31 28 25 25 24 23 19 22 23 24 24 25 24 24 25 27 30 29
49 48 46 44 41 37 34 30 28 26 25 26 27 30 31 33 33 32 34 37 39 41 33 28 29 27 26 25 24 23 22 20 19 20 22 22 23 22 21 21 21 24 24
47 45 44 40 38 35 32 29 27 24 23 24 25 28 30 31 31 31 33 35 38 40 32 27 26 26 25 23 22 21 20 18 16 16 15 16 17 16 17 19 20 21 21
43 43 40 37 35 33 31 26 22 21 23 25 26 27 28 29 28 29 31 34 37 37 30 26 25 25 23 21 22 22 18 14 10 7 7 8 10 12 12 14 16 16 16
43 40 38 36 32 30 27 23 22 23 23 24 25 26 27 27 26 28 30 32 33 33 28 24 23 24 21 22 21 20 17 11 7 4 3 3 4 5 6 9 10 10 10
42 39 36 31 27 25 23 22 22 23 24 25 24 25 25 24 25 28 29 29 29 30 27 23 21 21 21 22 21 19 16 11 6 3 2 2 2 4 4 5 7 8 8
39 35 31 24 24 26 23 21 21 23 25 24 23 23 24 23 25 27 28 27 26 27 27 23 19 17 17 20 21 19 18 14 6 2 1 2 3 4 5 5 6 5 4
36 33 27 20 24 28 23 21 21 24 24 22 22 22 23 23 25 26 26 25 24 25 26 24 20 17 17 17 19 20 18 17 11 1 2 2 3 3 3 4 4 4 5
33 30 25 20 22 21 22 22 23 22 22 21 20 20 21 22 23 24 24 23 23 23 24 24 21 19 17 17 18 19 18 17 16 8 1 3 3 3 3 5 6 8 9
31 27 24 20 18 19 21 22 23 22 19 17 17 18 20 21 22 23 22 22 22 22 22 22 22 20 18 17 16 16 18 17 16 14 8 1 2 3 4 5 5 7 7
30 26 24 21 19 19 21 22 22 20 18 16 15 17 19 20 21 20 20 21 21 21 20 20 20 20 20 19 17 15 13 14 14 13 11 7 3 3 4 4 4 5 7
29 26 24 22 20 21 22 22 21 19 16 15 14 15 17 19 19 18 18 20 20 21 20 19 19 20 19 19 18 17 13 12 12 12 10 8 6 4 4 6 6 7 9
29 27 25 23 21 21 23 23 20 18 16 15 14 15 16 18 18 16 17 18 19 20 21 21 19 19 19 19 18 17 16 13 11 10 11 10 8 7 5 5 5 5 5
29 28 26 23 21 21 21 22 20 17 16 15 15 15 15 16 16 15 16 17 19 19 20 22 22 20 19 19 18 17 16 15 14 12 11 10 10 9 8 8 7 6 6
28 27 24 21 21 20 21 21 20 17 16 16 16 16 15 15 15 15 15 16 18 20 22 23 23 22 21 20 18 17 16 15 14 14 13 12 12 11 9 9 8 7 7
26 24 22 20 20 20 21 21 21 19 17 17 17 18 17 16 16 15 16 17 17 19 21 23 24 25 24 22 19 18 17 16 15 14 13 13 12 12 12 10 10 9 9
24 22 21 21 22 22 21 22 22 21 20 20 20 20 19 18 17 17 17 18 18 19 21 24 26 27 27 24 21 18 17 16 15 15 14 14 13 12 12 13 13 11 10
24 22 22 23 25 25 26 26 25 24 22 22 22 23 22 21 19 18 18 19 19 20 21 24 26 29 29 24 20 17 17 16 15 15 14 14 13 13 13 12 12 13 14

GFSGL_700_spd_012.txt.gz
Wind_Speed
41 42 41 43 43 43 44 44 44 44 44 44 43 41 39 39 37 34 27 33 37 37 36 37 36 36 37 39 42 43 43 43 47 47 43 39 37 36 32 32 26 33 30
39 39 41 43 45 45 45 46 46 45 43 41 39 39 36 32 29 31 29 34 38 37 35 34 35 39 42 45 47 46 46 43 43 44 39 34 34 35 34 30 31 25 35
37 40 43 45 46 47 48 48 46 43 41 38 37 33 29 27 30 29 30 36 38 36 35 37 40 43 47 47 47 45 40 36 35 37 35 30 28 32 35 30 24 35 26
40 43 45 46 48 49 49 48 46 43 40 37 33 28 27 26 27 29 33 35 37 35 36 39 42 45 46 46 42 38 37 35 33 33 31 28 25 28 32 33 32 33 35
42 44 46 48 49 50 50 47 45 42 38 34 29 28 22 26 27 32 32 36 36 36 37 39 42 45 44 40 39 39 38 36 32 30 28 24 20 21 26 31 32 32 32
43 46 48 50 51 51 48 46 44 39 35 31 27 22 26 26 28 30 33 35 35 37 39 39 43 43 38 36 36 35 33 31 28 27 26 23 26 25 24 23 28 27 27
45 47 50 52 51 49 46 44 40 36 31 28 22 23 24 27 28 32 35 34 35 36 38 41 43 38 35 35 33 30 29 26 24 23 25 23 23 26 28 30 32 29 25
47 49 51 51 49 47 44 40 35 32 29 26 24 24 26 28 31 34 32 32 32 34 37 41 41 34 33 31 30 28 26 24 23 24 24 23 23 21 24 29 32 31 29
48 49 50 48 47 45 40 36 33 30 27 25 25 25 27 30 31 30 31 31 32 34 37 40 37 31 30 29 28 27 26 24 22 22 24 24 21 21 21 22 23 26 26
49 49 46 46 46 42 38 34 31 29 26 24 23 24 25 27 28 30 30 30 32 34 36 38 33 29 28 26 26 27 27 24 21 19 18 20 19 17 18 20 19 19 20
48 45 43 44 45 41 37 31 28 25 23 23 25 25 26 27 28 29 28 30 33 35 36 36 30 26 25 22 25 26 26 23 19 15 13 14 14 13 13 17 18 18 19
45 42 42 43 40 37 32 27 25 23 23 24 25 26 26 27 27 27 28 30 33 34 34 34 29 24 22 20 24 25 24 21 16 12 9 9 9 10 9 11 13 14 15
41 40 41 40 36 33 26 24 24 24 23 24 26 26 26 26 26 26 27 29 30 30 31 32 28 23 20 21 23 24 23 21 14 10 7 6 6 4 3 3 5 8 11
39 38 39 36 34 29 23 25 26 23 23 24 26 25 24 24 24 25 27 28 28 27 27 28 27 23 23 22 21 23 23 21 13 7 5 5 5 5 5 3 4 5 6
36 36 36 34 31 26 23 24 26 23 24 25 25 23 22 22 23 25 27 27 26 25 24 25 25 23 20 20 20 21 22 21 15 6 4 3 3 4 5 6 6 6 6
34 34 34 31 29 26 23 24 25 24 24 25 23 21 21 21 23 25 26 26 24 23 22 22 23 23 21 19 18 18 20 20 18 7 3 1 2 2 2 3 3 4 2
33 32 31 29 28 25 23 23 24 24 24 24 22 20 18 20 22 24 25 24 22 22 22 21 22 22 21 20 19 18 17 17 17 14 5 2 2 2 2 3 4 5 6
32 30 29 27 26 24 23 22 23 24 24 22 20 18 17 18 21 23 22 21 21 21 21 21 21 21 21 21 20 18 17 15 16 15 12 6 3 4 4 4 5 7 7
30 29 29 27 26 24 23 22 23 24 23 21 18 16 16 17 20 21 20 19 19 21 21 21 21 20 20 20 20 20 18 16 13 13 13 11 8 5 5 5 5 5 5
30 29 29 28 26 25 23 23 23 24 22 19 17 15 16 17 18 19 18 17 18 19 20 21 22 22 20 20 19 19 18 17 16 15 12 11 10 9 7 6 6 7 7
29 28 28 28 27 24 22 21 23 22 21 19 17 16 16 16 17 18 17 16 16 17 19 21 22 23 23 22 19 19 18 16 15 14 13 11 9 9 8 7 7 7 6
29 29 28 28 26 23 22 21 22 21 20 19 18 17 17 16 17 17 17 16 16 16 18 19 21 22 24 24 22 19 18 17 16 14 13 12 11 9 8 8 7 7 6
30 28 27 26 24 22 20 21 22 21 20 20 20 19 19 18 18 18 18 17 17 17 17 18 20 22 24 26 24 20 17 16 15 15 14 13 12 11 10 9 9 8 7
30 28 27 26 24 22 22 22 24 24 24 22 21 21 21 20 19 19 20 19 18 18 18 19 20 23 25 27 25 21 17 15 15 14 14 13 13 12 12 11 11 10 10
30 28 26 25 25 24 24 25 26 27 28 27 25 23 21 23 23 21 21 21 20 20 19 19 20 21 23 26 24 21 17 15 14 14 13 13 13 12 12 11 11 11 12
29 27 25 25 24 25 26 28 29 30 30 29 27 26 25 25 24 24 24 22 21 21 20 19 19 20 21 24 23 19 16 14 14 13 13 13 13 12 12 12 12 12 12

GFSGL_700_spd_015.txt.gz
Wind_Speed
38 39 35 36 38 41 42 42 43 44 43 41 41 39 36 35 31 28 30 30 33 31 35 36 35 35 35 37 39 42 45 46 49 43 40 37 34 36 33 30 31 30 34
39 33 35 39 42 43 44 45 46 45 43 41 40 36 34 31 27 27 27 29 32 33 37 37 36 36 37 40 42 45 46 44 42 39 36 36 32 30 31 29 25 29 30
30 34 38 41 43 44 46 47 48 46 43 40 37 34 30 26 25 26 25 29 32 36 36 36 36 37 38 40 44 45 42 39 39 38 38 36 32 27 27 27 26 23 30
34 36 40 42 44 46 48 49 48 45 43 40 36 31 27 26 25 25 28 29 32 34 36 35 36 37 40 42 43 39 37 38 36 35 33 31 28 25 24 24 27 29 29
34 37 41 44 46 48 49 48 46 44 40 37 33 29 25 22 22 27 28 30 32 35 34 34 34 36 39 41 37 35 36 35 33 31 29 27 23 22 19 20 21 27 29
35 38 42 45 47 49 48 46 44 41 38 35 30 26 22 21 26 26 28 31 34 33 33 33 34 37 39 36 31 32 32 31 29 28 25 25 21 19 21 23 23 23 23
36 40 43 46 49 49 46 44 43 39 36 33 29 26 24 24 24 28 30 32 31 31 32 33 34 36 38 34 31 30 29 28 27 27 27 25 24 20 20 27 26 27 26
38 41 44 48 49 47 44 43 41 37 33 30 27 25 24 23 25 28 28 28 29 29 31 33 34 35 36 31 30 29 27 27 27 25 24 24 24 22 20 20 24 32 32
40 42 45 48 47 43 42 41 39 36 30 27 25 22 23 25 26 26 26 27 27 27 30 32 34 34 32 28 28 27 29 27 26 24 23 21 20 19 19 20 18 20 25
41 44 46 45 42 40 41 39 37 31 26 24 23 23 24 25 26 26 27 26 25 27 29 30 32 33 29 25 25 26 27 26 25 21 18 17 16 15 16 18 20 21 14
42 45 44 41 39 38 37 36 31 25 24 23 23 24 25 26 26 26 25 25 26 28 29 28 30 30 26 22 22 25 27 27 24 18 15 12 11 10 10 12 15 17 18
43 43 41 38 36 36 34 32 26 22 23 22 23 24 26 26 25 24 23 24 26 27 27 27 28 28 24 21 21 22 25 25 22 15 13 11 10 9 7 7 9 11 13
40 40 37 35 33 33 31 29 25 23 24 23 23 25 26 24 22 21 21 23 25 26 26 26 26 26 24 21 21 21 23 24 20 12 10 10 9 8 7 5 2 4 6
39 36 32 32 31 31 29 26 24 22 23 24 24 25 25 22 20 19 21 23 24 24 24 24 23 24 25 24 22 21 21 22 19 9 7 7 6 7 8 7 5 4 4
34 32 31 30 29 29 27 25 24 23 22 23 24 24 23 19 18 19 21 22 22 21 21 22 21 21 22 22 22 21 19 20 20 11 6 4 3 4 5 6 7 8 8
32 32 31 29 28 27 25 24 22 21 22 23 24 23 20 17 16 18 20 21 19 19 20 21 20 20 20 21 20 20 19 17 17 15 6 4 2 1 0 2 4 4 4
31 31 30 27 26 26 25 23 22 21 22 24 25 23 19 16 15 17 19 19 17 17 19 20 20 20 19 19 20 20 19 17 14 13 11 6 4 4 4 4 4 5 6
31 30 29 28 26 25 24 23 22 21 21 22 24 21 18 15 14 15 17 16 16 16 18 19 20 19 19 19 18 18 18 18 16 13 12 9 6 5 5 6 6 6 7
31 29 28 27 27 26 25 22 21 20 21 22 21 19 17 16 14 14 16 15 14 14 16 18 19 20 20 19 19 17 16 16 16 14 11 11 9 7 5 5 5 5 4
31 29 28 27 28 26 25 23 20 20 19 21 20 18 17 16 15 15 15 15 14 14 14 16 18 19 20 21 21 19 17 15 15 15 14 12 10 9 7 6 5 4 4
33 31 29 28 27 26 25 23 19 19 18 19 18 18 17 17 16 17 16 15 15 14 15 14 15 18 19 21 22 21 18 15 14 13 13 13 12 10 9 7 6 5 5
32 31 30 28 27 25 23 21 20 19 18 18 18 17 18 17 17 18 17 17 16 16 16 15 15 17 19 21 23 22 19 16 14 12 12 12 12 11 10 9 8 6 6
32 32 30 28 27 25 23 21 21 21 21 21 21 20 21 20 19 20 20 19 19 17 18 16 17 17 18 19 22 21 20 16 14 12 11 12 12 11 11 10 9 9 6
33 32 31 28 26 25 23 22 21 22 23 25 25 24 24 24 23 20 21 22 21 20 19 18 17 17 17 18 20 20 18 16 13 12 11 11 11 11 11 10 10 10 9
35 32 30 27 25 23 22 22 23 24 25 26 28 28 26 25 24 23 22 22 23 23 22 20 18 17 17 17 17 18 16 15 14 12 11 10 10 10 10 10 10 10 10
33 31 28 25 23 22 22 22 23 25 26 27 29 30 31 31 30 29 26 25 25 23 24 23 20 18 17 17 17 16 16 14 13 12 11 10 10 10 10 10 10 10 10

GFSGL_700_spd_018.txt.gz
Wind_Speed
37 38 42 35 33 34 37 39 41 42 42 42 41 39 38 36 33 28 26 28 29 27 29 31 32 33 32 30 29 32 33 32 39 46 41 37 37 38 36 36 32 29 27
33 37 34 32 34 37 40 41 43 44 44 43 41 39 37 35 27 25 26 30 28 26 30 32 34 36 36 34 34 34 36 40 45 43 39 39 38 36 35 34 32 25 20
33 32 35 36 37 39 41 43 45 46 45 44 41 40 37 30 27 25 29 27 26 30 32 35 37 37 36 35 36 40 43 43 40 39 39 36 34 32 30 28 28 23 21
33 36 35 36 38 39 41 45 46 46 44 42 40 38 34 30 27 23 22 25 28 30 34 36 37 35 34 35 38 40 41 37 36 36 35 34 30 27 23 23 21 17 21
37 33 34 36 38 40 43 46 46 44 43 42 39 35 30 27 24 22 24 28 28 32 34 35 35 34 33 35 37 38 35 33 33 32 32 30 26 23 21 22 21 18 22
33 32 33 36 38 41 44 46 45 43 42 40 36 28 24 25 25 25 24 26 29 32 32 32 32 33 35 35 34 33 31 32 31 30 31 30 28 22 21 21 18 19 24
30 31 34 37 39 42 45 45 43 42 40 37 32 22 25 27 24 23 23 26 28 30 30 30 31 32 33 33 33 29 28 27 29 30 29 28 24 23 24 23 19 22 23
29 32 35 37 40 43 44 43 41 39 36 35 29 26 25 24 24 24 24 25 27 28 28 29 30 30 31 31 31 26 26 27 28 27 28 26 25 21 22 21 21 22 26
29 34 36 38 42 43 42 40 36 35 34 30 25 24 23 25 23 24 25 25 25 25 26 28 28 28 29 30 27 25 25 26 27 27 25 22 19 16 17 20 20 20 17
32 35 37 40 42 42 39 35 33 33 30 25 24 23 22 24 24 25 24 23 23 23 25 26 27 25 27 28 25 25 25 26 26 25 18 16 13 11 11 14 13 16 17
32 35 38 40 41 38 34 32 31 29 27 24 23 22 22 23 26 25 22 22 22 24 25 24 24 25 25 25 23 22 24 25 25 20 14 13 11 10 9 10 10 12 15
33 35 37 39 37 34 32 30 28 26 24 22 22 22 22 23 24 23 21 20 22 24 24 22 22 22 23 23 22 21 22 24 24 16 11 10 9 9 8 7 8 8 11
33 35 37 36 33 31 30 28 27 25 23 22 22 22 22 24 23 20 19 19 21 22 22 21 21 21 21 22 22 21 20 21 22 14 9 8 7 7 8 10 8 6 5
32 35 34 32 31 30 28 26 26 24 23 22 21 21 22 22 21 19 17 19 20 20 19 19 20 20 20 20 22 22 20 19 20 14 8 6 5 5 6 7 5 5 6
32 32 31 31 31 28 25 25 24 23 22 21 20 22 22 21 20 17 16 17 18 18 18 18 19 19 19 20 20 21 21 19 18 18 9 6 5 3 1 4 5 5 5
31 30 30 30 28 26 25 25 24 23 23 21 20 21 22 21 17 16 14 15 15 15 16 17 18 18 18 19 19 19 19 19 17 16 14 8 6 5 3 2 3 5 5
29 29 30 29 28 26 24 25 25 26 23 21 21 22 22 19 16 15 14 14 13 13 14 16 16 17 17 18 18 18 17 17 17 15 14 13 8 7 7 7 7 8 8
29 29 29 29 28 26 25 26 26 26 24 22 20 20 21 19 16 15 15 14 13 11 12 14 15 16 17 18 18 18 17 16 16 15 14 12 11 9 7 7 8 9 10
30 29 30 30 29 27 27 27 26 26 24 21 19 19 19 18 16 15 15 15 14 13 13 13 14 16 17 19 20 20 18 16 14 14 13 12 11 10 8 6 6 7 7
31 30 30 30 29 28 27 27 26 25 24 21 19 18 19 17 16 16 16 16 15 14 14 14 14 15 16 18 20 22 20 17 15 13 13 12 11 10 9 8 6 5 5
32 31 31 31 30 30 29 28 26 25 23 22 20 19 19 18 17 17 17 17 17 17 16 16 16 16 16 18 19 21 21 19 16 13 12 12 12 11 10 8 7 5 4
34 34 34 33 32 31 30 29 27 25 23 21 21 21 21 20 19 19 19 19 19 19 19 18 18 18 17 18 18 19 20 19 17 14 12 11 11 11 10 9 8 7 5
36 37 37 36 34 33 32 29 27 25 24 23 22 23 23 23 23 22 21 22 22 22 21 21 20 19 19 18 18 18 19 17 16 14 12 11 11 11 11 10 9 7 7
39 40 41 39 36 33 31 28 25 24 23 23 23 25 26 26 26 25 24 22 22 22 23 23 22 21 20 19 18 18 18 16 15 14 13 12 10 10 11 10 9 9 8
39 37 35 33 31 29 28 26 24 22 22 22 23 25 26 26 28 28 28 27 26 26 24 24 24 22 22 20 18 18 17 17 14 14 13 12 11 10 10 10 10 9 9
36 35 33 31 28 28 27 25 24 24 24 25 25 24 24 24 26 27 28 29 28 29 29 28 26 25 24 22 20 19 18 17 16 13 13 11 11 10 10 10 10 10 9

GFSGL_700_spd_021.txt.gz
Wind_Speed
37 39 38 41 36 33 33 36 38 39 41 42 41 42 41 38 34 31 22 26 31 32 29 32 29 32 32 33 32 31 31 32 39 43 41 44 42 39 40 37 37 35 33
40 39 42 34 33 33 35 39 40 40 41 42 42 44 42 36 34 31 24 28 29 28 32 31 32 31 36 37 32 30 32 34 37 46 46 44 40 39 37 34 32 29 30
40 42 36 35 33 34 36 38 40 41 42 43 44 43 42 39 34 29 24 25 26 25 27 31 33 35 38 38 37 36 37 40 43 46 45 39 38 35 33 30 28 27 25
42 36 33 33 33 34 36 38 40 42 43 43 43 42 36 35 26 23 23 25 27 26 28 32 35 37 37 36 35 36 39 41 42 40 37 37 34 30 25 25 25 23 21
42 33 32 33 34 35 37 38 41 43 44 44 42 38 35 24 28 28 29 24 24 25 30 33 34 36 35 34 34 35 37 39 37 34 34 33 31 27 27 24 24 24 20
40 35 32 30 31 35 37 38 42 43 44 43 40 36 31 24 28 30 27 24 26 28 30 31 32 34 35 36 36 34 34 35 32 31 31 31 29 26 24 20 23 25 22
41 34 28 29 32 35 36 39 41 42 42 39 37 35 30 28 24 25 24 25 26 27 29 29 29 30 33 33 34 34 33 29 28 29 30 30 30 28 26 24 22 24 21
43 38 25 29 32 34 37 39 40 40 38 36 35 34 29 28 23 24 24 25 26 27 28 27 28 29 33 30 31 30 29 26 26 27 28 30 28 25 25 25 26 25 24
41 25 26 30 33 37 38 40 39 35 35 34 31 30 26 26 23 23 24 25 25 25 26 26 28 28 30 28 29 29 26 24 24 28 29 25 20 19 18 17 17 20 21
29 23 26 28 32 37 39 38 34 33 33 32 31 27 25 24 24 22 24 24 24 24 24 26 29 26 25 25 26 27 25 24 24 25 25 16 15 14 13 13 12 14 15
20 24 24 29 33 37 36 33 34 32 30 29 29 26 25 24 24 22 23 23 22 22 24 26 26 25 23 23 24 25 25 23 23 25 18 13 12 11 10 11 13 15 15
23 22 26 32 35 36 34 32 32 30 29 29 29 25 25 25 23 20 22 21 21 22 23 23 22 22 22 22 21 23 23 23 22 23 16 12 10 8 7 9 14 12 13
18 23 29 33 35 33 31 31 30 28 28 29 27 25 24 23 22 22 20 20 19 21 22 20 20 21 21 21 20 20 21 21 20 21 15 11 9 8 7 8 7 11 12
22 26 30 34 33 31 30 29 28 27 27 27 25 24 23 20 23 26 22 18 18 20 20 17 18 19 20 19 19 20 20 21 20 18 17 11 9 8 6 6 4 5 6
24 29 31 31 31 31 30 29 28 26 26 26 26 24 23 22 23 23 22 21 19 20 18 17 17 18 19 19 19 19 19 19 20 18 17 14 10 8 7 5 1 2 3
27 30 31 32 31 30 31 31 28 26 26 25 24 24 23 23 24 23 20 19 18 19 18 16 16 16 17 19 19 19 19 19 19 19 17 15 13 10 9 7 7 7 5
29 30 31 31 31 31 32 31 30 28 27 26 23 23 24 22 23 21 19 18 18 18 17 15 15 15 16 17 18 20 20 20 18 17 17 15 14 12 10 10 11 11 11
30 31 32 32 31 31 31 31 31 30 29 27 26 25 23 22 22 21 19 19 18 18 17 17 15 15 15 17 18 20 22 21 19 17 16 15 14 12 11 10 10 10 12
32 33 32 32 33 33 32 31 30 30 29 28 26 26 23 22 20 20 19 19 18 19 18 18 17 16 16 17 18 20 22 22 21 18 16 14 13 13 11 10 9 9 10
36 37 37 35 34 33 33 33 32 31 30 29 27 25 23 24 20 18 19 19 19 20 20 20 19 18 18 18 19 20 22 22 21 20 16 14 13 12 12 10 9 8 7
38 39 38 38 37 37 36 34 33 33 32 30 28 26 24 24 23 21 20 20 19 20 21 21 21 20 19 19 19 20 20 22 21 19 17 14 13 12 11 11 10 8 7
40 40 40 40 40 39 39 37 34 34 32 30 28 26 26 26 24 23 23 23 22 22 23 23 22 22 21 20 20 19 19 20 20 18 17 15 13 12 11 10 9 9 8
42 42 41 42 41 39 36 34 34 33 31 28 26 25 24 26 27 26 26 25 25 24 24 25 24 23 23 22 20 20 19 19 19 19 17 16 14 12 11 11 9 8 7
41 41 39 40 38 37 34 30 28 30 30 27 25 24 23 25 26 28 27 26 26 26 26 27 26 24 23 24 22 21 20 19 18 18 17 15 14 12 11 10 10 9 7
40 41 43 38 38 37 32 27 28 29 29 28 26 24 24 26 28 29 28 28 28 28 28 28 28 28 28 26 24 22 22 20 19 18 17 16 14 12 11 11 10 10 9
40 41 44 38 41 36 32 30 31 33 34 31 29 29 27 27 26 25 25 25 25 26 26 28 29 28 29 29 29 24 23 21 20 19 17 16 15 13 12 11 11 11 11

GFSGL_700_spd_024.txt.gz
Wind_Speed
32 33 36 37 38 40 37 37 35 32 35 37 39 40 40 42 42 41 35 34 30 27 29 33 23 18 35 36 35 39 42 42 43 42 41 43 46 45 45 41 37 36 35
36 37 39 40 40 42 39 37 36 35 37 39 39 40 40 41 40 35 34 29 25 25 30 30 29 36 37 36 40 41 39 38 39 44 43 44 44 44 40 38 34 32 32
38 39 40 42 43 34 37 36 35 35 38 38 39 40 41 38 37 38 30 25 27 27 28 29 28 32 36 40 38 37 38 38 39 42 44 42 43 38 36 34 30 29 27
40 38 41 43 46 36 34 34 32 35 37 39 40 40 39 36 34 32 29 28 29 26 24 28 30 34 37 36 35 35 36 37 39 40 41 39 36 33 32 33 31 28 27
37 39 41 43 46 38 37 34 35 34 37 40 41 41 38 35 33 29 29 30 31 29 29 30 32 33 34 34 33 33 34 35 36 37 36 34 32 31 31 29 28 25 21
38 39 41 44 29 37 34 29 30 34 38 39 40 39 37 34 28 27 24 26 27 28 30 30 30 31 34 33 33 35 35 35 35 35 33 31 30 31 33 32 30 27 26
40 41 44 34 40 30 28 29 29 33 37 37 37 36 35 35 30 25 24 25 27 28 29 28 28 29 30 30 32 33 32 32 33 32 32 31 32 33 33 30 27 28 27
40 44 45 43 32 23 27 28 30 34 37 35 35 33 33 33 30 26 24 27 28 29 28 26 27 27 29 31 30 29 28 29 29 27 28 29 29 26 24 24 22 21 18
46 50 41 33 22 24 22 24 31 35 34 33 33 30 29 32 30 28 27 27 29 28 27 26 25 27 28 28 27 26 26 27 27 25 26 28 25 20 18 17 17 18 16
55 49 42 23 23 21 26 29 32 34 34 32 31 29 28 30 29 27 26 28 28 27 25 24 26 27 26 25 25 26 25 26 26 23 22 23 17 16 15 14 16 18 18
52 39 29 27 20 23 28 32 35 34 32 31 30 28 27 29 28 26 27 25 26 24 22 22 27 25 24 25 24 25 25 25 25 24 22 19 14 12 11 7 10 18 25
43 29 23 21 23 26 30 34 32 31 30 30 30 29 28 28 28 27 20 22 25 22 20 21 23 23 23 24 24 23 23 23 23 22 21 18 13 11 9 9 10 10 15
20 19 21 21 22 28 32 33 31 29 29 29 28 29 28 27 28 26 23 24 23 21 20 21 21 21 21 22 23 22 20 20 20 21 20 19 15 12 10 9 8 9 10
20 20 16 22 28 31 31 31 30 29 29 28 28 28 27 26 22 26 26 27 25 19 19 19 18 18 19 19 20 21 21 21 20 20 20 18 16 12 11 9 6 6 7
17 19 24 28 30 31 32 32 31 30 29 29 27 28 27 26 25 27 28 27 27 23 19 18 17 17 17 17 18 20 21 22 21 20 19 19 16 14 11 10 7 7 4
22 25 28 30 31 33 33 33 32 31 31 28 27 27 26 26 26 26 25 25 26 24 21 19 18 17 16 16 16 18 20 22 23 21 18 18 17 15 12 11 11 11 12
26 29 31 32 33 34 33 34 34 33 31 31 29 28 26 25 24 25 24 25 24 23 20 19 19 18 17 16 16 17 20 23 24 23 20 17 16 16 14 12 11 13 13
30 32 34 34 35 37 37 37 36 35 34 32 30 29 27 26 24 24 24 24 21 20 20 20 19 19 18 17 17 17 19 21 24 24 22 18 15 15 15 13 11 9 10
34 36 38 38 38 38 38 37 36 34 33 32 30 28 27 26 24 22 22 22 20 19 19 19 19 19 19 18 18 18 19 19 21 22 22 19 15 14 14 14 12 11 9
38 40 41 42 42 42 42 41 40 39 35 33 32 29 28 28 24 23 22 22 21 20 19 19 20 21 20 20 19 19 19 20 20 21 21 19 17 14 13 13 13 11 9
42 43 44 44 44 42 42 40 39 38 35 33 32 30 28 26 25 27 25 23 22 21 20 20 20 21 21 21 20 20 19 19 19 19 19 19 17 15 13 13 12 12 9
45 46 46 45 43 41 38 37 36 35 34 32 29 27 25 24 24 25 26 25 26 24 22 22 22 22 22 21 19 20 20 18 18 18 18 18 17 16 12 11 12 11 10
48 46 44 40 38 37 35 37 36 34 30 25 26 27 25 24 23 23 23 26 25 24 24 24 24 23 23 22 21 19 20 19 19 17 17 17 16 15 13 10 10 10 10
48 47 43 34 39 37 34 34 37 35 29 28 28 27 27 26 23 22 23 24 26 26 26 27 26 25 24 23 23 22 21 21 20 18 18 17 16 15 13 10 8 9 9
42 41 39 35 38 40 35 44 38 33 28 28 31 33 34 31 28 26 27 28 30 31 29 27 27 27 28 27 25 25 23 24 21 20 17 17 16 15 13 10 9 8 8
38 34 32 30 31 31 36 37 31 32 32 30 30 30 31 31 31 32 31 26 27 27 26 25 24 24 24 26 26 25 25 25 23 21 20 18 16 15 13 12 10 9 8

GFSGL_700_spd_027.txt.gz
Wind_Speed
28 29 31 33 35 36 41 43 41 44 35 33 33 34 33 33 36 35 34 33 33 29 26 29 28 30 29 26 31 36 44 40 47 48 42 40 41 41 41 41 41 39 36
33 33 35 37 37 39 42 43 44 39 36 36 33 36 32 34 36 37 34 31 29 28 28 29 30 30 29 30 33 37 40 44 44 44 40 39 41 40 40 40 37 33 33
35 36 37 38 39 42 44 40 49 36 37 40 34 31 33 36 34 34 36 34 29 29 31 31 29 30 33 33 35 37 37 37 36 39 40 40 40 38 37 34 32 31 32
38 36 34 36 40 41 41 46 33 34 36 32 31 31 34 37 35 31 30 32 31 30 30 31 29 31 33 34 35 34 33 33 35 37 38 37 35 33 32 32 32 30 31
39 36 34 38 39 44 38 38 40 38 30 32 33 29 35 37 36 31 31 31 28 28 29 29 30 32 33 34 31 30 32 33 34 33 32 33 31 29 29 30 33 33 24
39 37 38 41 44 44 47 45 36 29 28 34 27 31 35 37 37 29 30 29 27 27 28 29 30 33 33 30 28 31 33 34 32 33 33 33 27 27 29 32 29 26 24
38 40 44 47 49 50 48 41 36 29 32 27 28 31 35 37 34 29 28 28 26 27 28 29 31 31 29 27 29 30 28 28 30 31 31 30 29 29 31 27 24 25 24
40 44 49 53 54 56 49 37 31 28 24 28 31 34 36 34 31 28 28 28 28 28 29 30 31 29 25 26 27 25 25 26 27 28 30 29 28 29 24 22 21 21 18
43 49 56 56 56 47 34 34 29 24 27 32 35 36 31 30 29 28 28 28 28 29 29 30 29 26 24 26 24 24 24 24 25 26 27 26 27 24 21 19 18 15 13
49 52 57 57 46 33 30 21 21 24 30 35 35 32 29 27 27 28 27 28 28 28 28 30 27 23 25 24 24 24 24 24 23 23 23 22 24 19 16 16 13 13 17
53 55 41 32 36 26 21 18 23 30 33 32 31 30 28 25 25 26 26 27 26 24 27 26 24 22 23 22 23 23 23 23 23 23 23 20 19 16 14 13 12 15 16
46 38 40 35 25 23 20 25 30 30 30 30 30 29 28 26 27 28 27 26 22 25 26 24 22 23 22 21 22 21 21 22 22 22 21 21 18 15 13 12 11 11 13
39 29 25 23 17 19 25 28 30 30 29 29 30 30 29 27 28 29 27 24 25 26 25 24 21 21 20 19 18 19 18 20 20 20 20 20 18 17 13 11 10 9 10
21 23 17 17 21 26 27 29 31 32 32 30 29 30 29 30 29 28 28 26 28 27 27 24 21 20 18 16 16 17 17 20 21 22 21 19 19 17 16 13 9 10 8
19 18 20 24 26 28 31 32 34 34 33 33 29 30 30 29 29 29 29 28 29 28 28 25 20 19 17 15 15 16 16 18 20 22 22 20 18 18 16 14 12 11 12
20 23 26 28 30 31 33 34 34 35 34 34 35 33 31 30 30 28 27 27 28 28 26 24 20 19 17 16 15 15 15 17 19 22 23 22 18 17 16 14 13 12 14
25 28 30 32 34 35 35 37 39 36 34 33 33 34 33 31 29 29 28 26 28 27 24 23 21 19 18 17 17 17 16 17 18 20 22 23 20 17 16 15 13 12 12
30 31 33 35 38 39 38 39 40 41 40 37 33 33 33 31 28 27 27 26 27 24 22 21 20 19 19 18 17 17 17 16 17 18 20 21 20 18 15 15 15 12 11
36 38 40 41 43 44 44 42 42 41 40 39 36 32 29 30 29 27 26 25 23 22 22 20 19 19 19 19 17 17 16 16 16 16 17 18 18 18 16 14 14 14 11
39 41 43 44 46 42 39 41 41 39 39 36 34 32 28 30 29 26 25 24 23 22 21 21 20 19 18 19 18 16 16 15 15 15 16 17 17 18 17 14 13 13 12
46 48 48 48 47 46 43 41 40 36 34 30 31 31 30 28 25 24 24 24 23 25 23 24 21 19 18 19 19 18 17 16 15 14 15 16 16 16 16 14 11 11 11
51 51 49 48 47 44 40 36 35 36 34 29 28 28 26 24 26 24 24 24 23 22 18 23 22 20 19 18 16 17 18 17 16 15 14 14 14 14 13 13 10 9 10
49 48 46 43 41 40 39 34 30 36 34 27 28 26 25 27 26 25 25 22 21 16 18 23 24 22 20 20 19 17 15 15 17 16 15 13 13 13 12 11 10 8 8
44 42 41 39 37 35 34 30 30 27 31 31 32 24 24 27 28 27 28 24 21 17 15 20 25 26 26 25 24 21 19 18 17 16 17 15 13 13 11 10 8 7 6
42 41 40 38 35 33 33 27 24 28 36 36 28 26 25 27 27 31 34 34 30 29 28 28 29 30 29 27 27 26 24 22 21 20 17 18 16 13 11 10 9 8 6
40 39 37 36 35 33 31 27 26 28 27 26 27 27 27 27 28 28 28 28 28 28 30 33 28 26 26 24 24 23 24 24 21 20 20 19 18 16 13 11 10 9 8

GFSGL_700_spd_030.txt.gz
Wind_Speed
26 29 33 35 35 36 38 40 43 43 50 48 43 47 43 39 40 35 35 32 34 35 35 32 32 31 31 30 28 30 32 36 41 45 44 46 45 44 43 42 43 43 42
20 23 25 28 34 36 39 42 43 46 46 52 47 44 43 33 37 42 37 34 32 33 34 33 33 33 33 31 30 32 34 37 39 42 42 42 42 42 43 42 39 37 35
27 28 30 31 30 33 37 40 43 45 49 51 49 47 41 43 36 29 30 32 36 35 32 33 32 32 31 31 32 34 34 34 36 39 41 41 42 39 37 35 33 30 30
28 30 32 31 33 34 38 42 46 48 53 53 45 42 43 39 28 28 31 35 34 34 33 33 32 30 30 32 33 33 33 34 35 37 39 39 35 31 33 33 29 29 30
30 31 31 32 38 40 43 48 50 53 54 51 44 40 43 30 28 31 33 33 33 32 32 31 30 30 31 32 32 32 32 33 36 37 34 32 30 30 29 28 30 31 24
29 29 31 38 42 45 48 51 55 58 56 44 41 43 31 28 31 34 33 31 32 32 31 30 30 30 31 31 30 30 32 35 35 33 32 32 31 31 29 29 30 27 22
30 32 37 41 46 48 51 56 60 50 39 37 37 26 26 31 34 36 34 32 31 31 31 31 30 30 30 28 28 29 31 32 33 33 31 31 31 30 29 29 24 24 22
35 38 42 44 46 51 59 57 43 34 34 32 25 24 30 33 34 33 32 31 31 31 31 30 30 29 29 27 26 28 27 29 29 29 29 28 29 28 28 26 22 19 15
38 43 48 49 50 54 48 29 34 38 26 25 26 30 33 31 30 31 31 31 31 30 29 30 28 29 28 25 25 25 24 25 26 27 26 27 28 27 27 24 20 19 14
45 53 57 52 48 37 33 45 37 26 22 26 30 31 32 29 28 30 30 30 30 30 28 26 27 28 26 24 24 23 23 22 23 23 24 24 25 25 24 22 20 18 17
39 43 44 51 41 41 37 27 18 22 26 28 31 31 32 31 29 29 30 30 29 28 27 26 27 27 25 22 23 21 20 20 21 23 24 23 22 23 22 20 19 19 15
39 35 35 39 36 27 24 23 24 28 29 30 32 33 33 33 32 30 30 30 29 27 25 26 26 26 25 22 22 19 19 19 20 21 22 22 21 21 20 19 18 17 16
40 37 30 28 28 27 25 26 29 31 32 32 33 33 33 32 32 31 30 30 30 28 27 27 27 26 27 22 21 19 17 17 18 20 21 22 21 20 19 18 16 16 14
22 24 26 27 26 26 28 30 33 34 35 35 35 34 33 33 31 32 32 30 31 30 30 28 28 25 26 23 21 20 18 17 17 18 20 22 22 20 19 19 16 14 15
24 25 25 25 28 30 32 33 35 36 37 37 37 37 37 36 32 33 31 31 28 30 34 30 28 25 25 23 20 20 18 17 17 17 19 20 22 22 19 18 17 15 15
23 26 27 29 31 33 36 36 37 38 39 39 37 38 39 39 35 35 33 32 31 30 31 29 25 24 24 22 21 19 19 17 18 18 18 19 20 22 19 17 17 16 15
27 28 31 33 36 38 40 42 43 41 41 39 35 34 37 37 36 35 34 31 30 30 32 26 24 24 23 22 20 19 18 17 18 17 17 17 18 20 20 18 16 15 14
33 36 38 39 41 43 45 46 47 47 44 42 39 39 36 36 36 35 32 29 30 29 28 24 23 22 22 21 20 19 18 17 18 17 16 16 17 18 18 17 16 14 13
37 39 42 44 47 48 49 48 49 47 44 41 45 41 35 31 32 31 29 29 30 30 28 23 23 23 22 21 19 19 18 17 18 16 15 15 15 17 17 16 15 14 13
40 43 45 47 48 48 48 48 47 45 45 43 38 39 30 30 27 26 27 29 27 29 29 27 20 24 24 22 20 19 18 18 18 16 14 14 13 15 15 15 13 13 12
45 47 48 49 49 47 45 42 43 41 39 37 36 32 33 28 24 25 23 23 25 25 25 25 24 21 22 21 20 18 18 18 18 16 14 14 13 13 14 13 12 11 11
49 49 50 49 47 44 42 41 40 39 36 34 33 35 25 19 22 24 24 23 24 24 22 22 22 19 21 20 21 19 17 14 16 17 15 14 13 12 12 12 11 9 10
49 48 46 44 42 41 40 38 37 35 31 27 22 24 27 22 23 23 22 24 25 22 19 20 21 20 21 21 21 21 19 17 15 15 15 16 14 13 12 11 10 8 7
47 45 43 42 41 39 39 37 36 34 30 24 28 28 28 30 25 26 24 23 22 24 24 22 17 16 18 20 22 23 22 21 19 18 17 15 15 14 13 11 10 9 7
45 43 42 41 40 39 37 35 34 32 28 26 29 28 28 28 29 27 28 27 26 26 27 28 29 26 22 25 27 28 27 25 24 23 21 20 17 15 15 13 11 10 9
42 41 40 39 38 37 36 34 32 30 30 33 38 38 34 31 28 29 29 28 27 26 26 26 28 31 33 34 34 31 27 24 24 24 23 22 20 17 16 15 13 12 10

GFSGL_700_spd_033.txt.gz
Wind_Speed
13 14 17 19 22 25 30 35 38 38 40 41 44 47 51 51 53 46 42 45 44 40 35 34 34 35 34 33 31 31 31 33 36 35 38 41 42 42 42 42 43 44 44
17 20 20 23 26 25 27 29 33 37 39 41 45 48 50 50 47 42 44 41 38 35 33 34 34 34 33 32 31 32 32 34 37 38 38 38 38 40 43 43 41 39 40
23 25 23 25 27 26 29 33 36 36 39 43 48 51 51 48 39 41 39 32 33 36 36 35 35 33 33 32 32 33 34 36 37 37 37 38 39 38 38 38 36 36 34
30 28 26 26 28 31 32 38 41 41 46 49 51 53 51 38 39 39 31 32 33 36 38 37 36 34 33 32 32 33 34 36 35 35 37 37 36 34 35 36 32 33 30
28 30 28 28 31 31 36 38 44 48 54 55 55 51 38 43 37 29 31 34 37 38 37 37 36 34 33 33 33 34 34 34 33 35 34 34 34 33 33 33 32 29 27
28 30 28 29 33 37 38 43 50 53 53 53 45 36 43 39 28 29 34 37 37 36 36 36 35 33 32 32 33 33 33 31 33 33 33 34 34 34 32 31 31 28 23
28 31 32 35 38 41 48 52 54 57 55 46 38 41 39 28 29 32 36 36 35 35 35 34 33 32 32 31 30 31 29 30 31 32 33 33 32 32 32 30 28 26 21
27 32 36 37 42 47 52 57 61 52 42 37 42 35 31 28 32 33 33 34 35 35 35 33 32 31 30 28 30 28 26 27 28 29 30 30 30 30 29 29 28 24 18
30 34 39 45 47 54 51 58 43 43 39 44 38 29 29 30 31 31 32 34 35 35 35 33 32 31 28 28 29 26 25 24 25 26 27 27 28 29 29 29 26 24 17
31 38 44 49 60 51 45 41 42 42 41 34 26 29 30 31 32 32 33 34 36 35 35 32 31 31 28 28 28 25 24 23 23 23 24 26 28 28 28 28 27 24 19
31 31 33 35 42 41 41 41 38 32 31 29 30 31 34 35 35 35 34 35 34 35 34 32 31 30 27 28 28 25 24 22 21 21 21 23 25 26 26 25 25 25 19
29 30 34 38 41 42 33 32 33 33 32 32 34 35 36 37 37 36 36 37 33 34 33 31 31 29 28 27 28 26 24 22 21 20 21 22 23 24 24 22 22 22 21
34 35 31 28 28 31 33 33 33 34 36 37 38 39 39 39 38 37 37 38 36 35 32 32 32 30 30 26 28 27 25 23 21 21 21 21 22 23 24 22 20 21 20
26 27 28 29 31 32 33 34 36 37 39 41 42 42 43 43 42 39 39 39 37 36 33 31 31 32 33 29 29 28 25 24 22 21 20 21 22 22 22 23 19 19 18
25 27 28 30 32 33 35 37 39 40 42 44 45 45 46 47 46 44 41 39 38 36 36 33 29 32 38 30 28 28 25 24 22 23 21 22 22 22 21 22 21 19 20
25 27 29 32 34 36 39 40 41 43 46 48 49 48 45 46 45 44 43 41 38 34 35 34 31 31 31 28 28 27 26 24 22 23 21 21 21 21 19 20 20 19 19
29 30 32 34 37 40 42 46 48 48 49 50 51 48 41 40 42 39 40 40 35 34 33 30 29 28 27 25 27 24 23 23 23 22 20 21 21 20 18 19 19 18 17
32 35 38 40 43 45 48 50 52 54 54 52 50 48 45 38 34 41 40 34 30 30 29 28 32 30 24 23 27 23 22 22 22 21 19 20 20 19 17 17 19 17 16
35 38 41 44 46 49 50 51 52 52 51 50 47 42 40 38 42 36 31 33 30 26 27 31 27 27 27 23 28 24 22 21 21 21 19 19 19 18 16 16 17 16 15
39 43 45 47 49 50 50 50 48 46 44 43 41 39 37 35 34 35 32 34 27 23 25 26 24 29 28 24 25 24 23 20 20 20 20 20 19 17 14 15 15 14 13
43 46 48 49 50 50 49 48 46 44 42 40 38 36 34 31 31 28 28 25 24 24 25 24 24 23 23 25 25 22 21 21 21 20 21 20 19 16 14 13 14 13 10
47 48 49 50 50 49 47 45 43 42 41 41 39 35 32 23 20 23 24 20 22 25 25 22 21 21 20 23 26 24 21 20 19 17 18 19 18 16 14 12 13 12 10
48 49 49 48 47 45 43 42 41 40 39 37 36 33 26 24 27 27 22 23 26 24 22 21 22 21 18 23 26 21 20 20 18 18 16 17 18 17 14 13 12 12 10
48 49 48 47 45 43 42 40 39 38 37 36 33 31 27 27 24 24 25 26 28 29 28 24 23 22 24 16 18 19 18 18 18 19 19 19 18 16 15 15 12 12 11
48 48 46 45 43 42 40 39 38 36 35 33 32 30 29 35 39 35 31 30 32 30 29 28 27 25 24 27 21 22 24 23 22 20 22 23 22 21 18 16 15 12 11
46 45 43 42 40 39 38 37 35 34 33 32 31 31 31 30 31 35 40 36 30 29 28 28 28 26 25 26 27 30 29 27 28 29 25 25 25 25 21 18 17 15 13

GFSGL_700_spd_036.txt.gz
Wind_Speed
13 12 13 14 18 21 23 24 25 28 31 29 35 41 41 43 44 47 50 43 42 42 37 34 33 34 34 36 36 35 35 34 35 34 34 36 38 39 39 40 41 42 40
15 17 18 19 21 22 23 26 28 30 32 28 35 41 42 45 48 50 40 40 41 37 33 34 34 37 36 36 36 35 34 34 35 35 35 36 36 36 39 40 38 38 37
25 25 25 25 25 26 26 27 32 30 34 33 42 49 47 52 52 45 39 40 38 33 34 36 38 37 36 35 35 35 35 35 35 37 36 35 35 36 37 36 35 34 33
28 27 27 26 27 27 29 29 30 33 37 45 48 48 53 60 43 38 41 40 33 33 35 37 37 36 35 35 35 35 34 34 35 36 35 34 35 34 35 36 33 32 31
27 28 26 27 29 31 32 35 38 42 44 57 47 57 66 38 37 41 41 36 33 34 36 36 36 35 35 35 35 34 34 34 35 35 32 33 32 32 33 33 34 31 28
29 28 28 29 31 34 37 41 42 42 47 45 53 57 40 38 41 41 36 33 33 35 36 35 35 35 34 34 34 33 33 33 34 32 31 31 29 30 31 32 33 31 27
26 27 28 30 32 37 39 42 43 48 53 55 49 44 40 42 41 34 30 32 34 35 36 35 35 34 34 34 33 32 31 32 32 30 29 28 26 27 29 30 30 29 26
23 24 26 29 33 37 41 43 49 58 57 43 42 42 41 37 35 30 32 34 35 35 35 35 36 35 34 34 33 31 31 30 30 28 28 25 24 25 28 30 31 28 25
25 25 26 29 30 35 48 47 49 45 42 38 38 39 37 30 32 31 34 35 36 36 36 36 36 35 34 34 33 31 30 29 29 28 27 24 23 24 27 29 30 29 24
27 29 31 28 32 35 34 37 37 39 39 38 35 34 32 33 33 34 36 37 37 37 37 37 37 35 35 34 33 30 30 29 28 27 26 24 23 24 26 28 29 30 27
28 29 29 30 28 30 34 40 41 39 35 35 35 33 35 37 39 40 40 41 40 40 40 38 36 35 35 33 33 30 29 30 28 26 25 24 22 23 24 26 27 28 26
28 27 35 33 34 34 31 31 34 34 35 35 37 38 38 41 43 43 44 44 43 43 42 40 36 35 32 38 36 30 28 29 29 27 25 24 23 22 24 25 25 26 24
35 37 27 27 28 29 30 31 33 34 37 39 41 42 43 43 45 46 46 46 45 44 42 40 38 36 33 38 36 35 28 30 30 27 24 24 22 22 24 24 24 25 23
23 25 25 26 27 30 32 34 36 37 40 42 44 46 47 49 49 48 48 47 45 42 40 40 40 38 34 32 39 36 32 32 32 28 25 24 23 22 24 24 23 23 22
24 25 26 28 31 32 34 36 38 40 43 47 49 52 54 54 53 50 48 46 43 42 38 38 38 34 30 32 32 27 30 32 33 28 25 24 22 22 22 23 23 23 23
24 26 28 31 32 35 37 38 39 43 46 48 51 53 55 55 53 50 47 40 41 43 33 33 31 30 29 26 27 26 31 30 31 27 25 23 22 21 21 22 22 21 22
26 28 30 33 36 39 41 44 47 47 50 51 52 53 52 50 45 43 40 39 34 36 35 32 28 28 23 27 26 24 27 27 28 26 23 22 21 20 20 20 21 20 19
29 32 35 37 40 43 46 49 51 52 53 52 51 50 49 47 45 41 39 34 39 40 41 33 30 26 24 27 29 27 23 28 28 23 22 22 21 19 18 19 19 18 18
32 35 38 41 43 46 48 49 51 52 52 51 49 45 43 40 39 35 32 34 34 36 28 29 28 24 24 25 24 24 26 25 25 23 22 22 20 19 17 17 17 17 15
35 38 41 44 46 47 48 50 51 51 50 49 46 44 41 39 37 33 28 22 27 27 29 30 25 24 24 23 23 26 25 24 22 22 20 21 20 18 16 16 15 15 14
37 41 43 44 46 48 50 51 51 49 47 44 42 41 40 39 36 29 24 23 22 22 25 24 24 24 22 22 22 21 22 23 21 19 21 21 20 18 17 15 14 13 11
41 42 43 46 48 50 50 49 48 46 44 42 41 39 37 35 33 27 25 25 25 25 24 26 26 23 23 21 21 22 23 25 22 19 18 19 18 17 16 14 13 12 10
41 43 45 47 49 49 48 46 44 42 41 40 39 38 35 32 30 27 28 24 24 22 27 31 30 26 24 24 23 20 23 25 21 18 17 17 16 15 15 14 13 12 10
42 45 47 48 48 47 45 43 41 40 39 37 36 35 33 32 30 29 27 34 35 30 27 26 26 25 25 23 22 24 15 22 22 18 18 17 16 15 15 13 13 13 11
44 46 47 47 46 45 42 41 39 37 36 34 33 32 31 31 29 29 28 29 30 38 45 35 29 29 27 27 23 22 19 17 21 21 20 18 18 18 18 17 15 14 13
45 47 47 45 44 43 41 39 37 36 35 33 32 32 32 30 29 29 29 29 29 27 28 33 32 26 27 26 25 23 22 22 19 24 25 22 20 20 21 21 18 17 15

GFSGL_700_spd_039.txt.gz
Wind_Speed
16 17 17 16 18 19 20 23 24 24 21 27 31 32 37 38 39 43 43 49 40 34 37 36 33 31 32 34 34 34 35 35 36 35 36 33 34 36 38 38 38 39 40
12 14 17 20 23 27 24 21 19 24 28 27 31 32 38 39 49 48 50 42 34 38 37 35 32 33 34 35 34 35 35 34 35 36 33 33 34 36 36 37 36 37 38
17 21 24 25 27 25 25 23 29 29 32 35 37 39 37 42 49 53 45 35 36 39 36 36 33 35 35 35 36 35 34 34 35 35 33 33 35 35 35 34 34 33 35
22 25 28 27 27 27 26 26 30 34 27 34 40 41 47 48 50 49 35 37 39 38 35 33 33 35 35 36 36 35 34 34 34 34 32 34 34 33 32 31 29 29 32
28 32 33 32 30 30 30 29 31 32 35 34 47 48 50 52 48 38 41 40 41 35 34 32 34 35 36 36 36 35 34 33 33 33 32 34 31 31 30 27 28 29 30
30 30 31 31 31 30 29 29 32 35 36 44 53 57 50 39 41 38 40 42 35 35 32 33 35 36 37 36 36 35 33 33 32 32 32 32 31 30 27 26 26 29 30
28 29 28 29 28 27 27 30 32 42 40 53 48 41 37 39 37 37 39 39 33 33 34 35 37 38 38 37 36 36 33 32 31 32 32 30 30 29 26 25 26 28 30
25 24 25 26 28 30 31 31 37 32 37 33 38 36 38 37 34 36 34 36 34 35 36 37 37 38 39 38 37 37 33 32 31 32 31 30 30 28 26 25 25 26 29
24 25 27 29 31 33 33 30 32 30 32 35 37 37 34 32 32 33 34 36 37 38 38 38 39 39 37 37 38 37 34 31 31 31 31 30 29 28 26 25 25 26 27
26 25 24 24 24 27 28 27 29 34 34 30 29 33 33 33 33 35 37 39 40 40 41 40 40 39 37 37 37 36 34 28 31 31 30 30 29 28 26 26 25 26 27
24 24 25 26 28 31 25 25 26 28 30 31 32 33 34 36 37 39 41 43 44 45 45 43 41 39 38 37 36 36 35 33 32 31 30 29 28 28 26 25 24 26 27
25 26 30 28 22 23 24 25 27 29 31 33 35 37 37 39 41 43 45 47 47 50 49 47 44 40 37 37 36 35 32 38 37 29 29 28 28 27 25 24 23 25 26
28 25 21 23 23 24 25 27 29 32 34 36 38 41 42 44 45 46 48 50 51 52 51 47 42 38 34 35 33 33 32 36 39 30 33 30 28 27 25 24 23 24 25
22 22 21 22 24 26 28 30 32 34 36 39 42 45 47 49 51 53 53 52 50 48 45 43 41 37 38 34 33 30 30 33 32 36 36 31 29 27 24 23 22 22 23
21 21 22 24 26 28 29 31 34 37 40 44 47 50 52 53 54 55 55 54 51 46 41 41 39 34 32 29 28 25 29 32 30 23 27 29 28 26 23 22 21 21 22
21 22 24 26 28 30 32 33 36 40 43 46 48 50 52 53 54 53 52 49 47 42 39 38 35 35 26 26 25 23 23 24 22 24 28 27 26 25 22 21 20 19 20
22 24 26 28 30 33 35 38 41 42 43 45 48 51 53 53 52 50 47 44 39 37 35 33 33 31 26 27 25 23 24 25 23 26 25 26 25 23 21 19 19 18 19
24 26 28 31 33 35 38 41 43 45 48 51 53 52 51 49 46 44 41 39 36 32 30 28 30 33 37 29 24 23 24 27 26 26 26 26 23 22 20 18 18 16 17
26 29 31 33 35 38 40 42 45 49 51 53 52 50 46 42 40 39 37 34 31 29 29 28 25 28 29 25 22 23 22 21 23 26 24 23 22 21 19 17 16 15 15
28 30 32 35 37 39 41 44 48 50 52 51 49 47 44 42 40 39 35 32 26 22 24 23 22 20 18 21 22 22 21 22 23 25 23 22 22 20 18 17 15 14 14
29 32 35 37 38 40 43 46 50 51 50 48 44 42 42 41 40 38 35 31 28 24 23 23 25 25 25 24 22 23 21 20 21 21 21 19 21 20 17 16 14 13 12
31 35 37 37 39 42 45 48 50 49 46 44 41 40 38 37 36 34 31 30 28 27 28 25 24 26 27 25 25 25 23 21 21 21 22 20 19 19 17 15 14 13 11
34 37 38 39 41 43 46 48 47 45 43 41 39 39 37 35 33 31 30 27 27 26 26 32 30 25 23 24 25 26 25 24 22 22 24 21 17 16 15 14 14 13 11
36 38 39 40 42 44 46 45 44 43 41 39 38 37 35 33 32 30 29 27 27 25 25 26 30 35 29 26 26 27 23 21 19 20 24 22 17 16 15 13 13 13 12
39 39 40 40 42 44 44 43 42 41 40 38 37 36 34 33 33 31 30 28 27 27 26 27 28 29 30 36 27 25 25 21 18 15 23 24 20 17 16 14 14 13 11
40 40 40 41 42 43 43 42 41 40 38 36 35 35 34 34 32 31 29 27 27 26 27 25 25 26 24 23 26 25 25 22 18 19 17 24 23 20 17 15 15 15 14

GFSGL_700_spd_042.txt.gz
Wind_Speed
29 26 21 20 23 22 23 25 26 31 35 32 32 28 33 32 35 39 40 46 46 42 39 35 36 37 35 36 35 35 34 34 36 32 31 29 36 35 34 36 36 35 35
27 24 18 19 21 23 26 29 31 29 28 24 27 30 33 36 37 36 44 50 44 35 35 38 38 36 37 34 35 34 34 32 31 34 35 34 32 37 35 35 34 33 32
18 18 21 23 24 26 28 29 29 29 33 25 30 34 39 38 39 41 50 53 36 38 38 38 39 36 36 34 34 34 31 31 32 36 38 35 34 35 36 36 34 32 29
21 23 25 26 29 31 31 31 31 32 30 34 34 33 41 50 43 52 47 37 41 39 38 39 36 34 34 35 35 34 33 35 33 36 37 36 34 34 35 35 33 31 27
24 25 27 29 31 32 33 33 32 32 34 35 35 36 38 38 42 42 38 39 38 39 37 36 35 33 34 35 36 37 36 36 36 37 36 35 33 33 34 34 33 30 27
26 27 29 31 30 31 33 34 34 31 32 32 34 31 27 30 32 33 36 38 37 36 37 33 35 35 36 37 39 39 39 39 39 37 36 34 33 34 35 33 33 30 28
26 28 30 31 31 31 31 32 30 27 33 34 34 36 35 31 32 35 35 35 35 33 35 35 36 37 40 39 40 40 41 41 39 36 36 34 33 33 33 32 31 30 28
28 27 26 27 28 30 32 33 33 34 35 34 33 31 31 33 31 30 32 33 34 35 37 37 38 39 40 42 38 40 42 41 40 36 34 32 32 32 32 31 30 29 27
23 24 26 28 29 31 31 30 27 28 27 28 30 29 28 30 29 31 34 36 38 38 40 41 41 41 40 41 39 40 40 39 38 38 34 31 29 31 30 31 29 29 27
23 25 26 26 25 25 24 26 25 23 23 24 27 28 29 31 31 33 36 39 42 43 45 46 46 45 42 42 42 41 41 38 34 41 37 33 32 30 30 30 28 28 27
24 24 23 23 24 24 21 21 22 22 24 26 28 30 32 34 35 37 40 44 47 50 52 52 52 51 46 42 41 40 38 34 34 34 39 40 36 31 28 30 28 26 26
24 23 23 23 20 20 20 21 22 24 26 29 31 33 34 36 39 41 44 48 51 54 55 54 54 51 48 43 40 37 33 33 34 35 38 37 39 30 28 30 29 27 26
25 26 23 21 21 20 21 22 25 27 29 31 34 36 38 41 43 46 47 49 51 53 54 54 52 49 46 45 37 34 36 35 34 36 35 38 38 29 29 32 29 27 26
26 23 21 21 21 21 23 24 26 29 31 34 36 39 42 44 47 50 53 56 56 55 54 53 48 43 41 44 38 37 36 30 33 33 29 32 29 35 30 30 28 26 24
22 21 21 21 21 23 24 26 28 31 33 35 39 41 44 48 52 55 57 57 55 52 50 47 43 39 32 32 34 35 28 27 29 27 29 26 27 26 28 27 25 24 23
21 21 21 21 22 23 25 29 29 30 34 37 40 43 47 51 54 54 53 50 47 46 44 41 37 33 26 25 28 28 23 25 25 24 24 25 22 24 23 26 24 22 21
21 21 21 22 23 25 27 28 30 35 36 37 40 45 49 52 52 51 50 46 44 42 38 35 29 22 23 21 23 26 25 25 25 24 25 24 22 24 23 26 23 21 19
21 22 23 24 26 27 28 31 34 36 38 41 44 47 50 50 49 47 45 43 41 38 35 32 29 26 25 24 25 26 29 27 24 23 23 24 23 24 25 25 22 21 18
21 23 25 26 27 28 31 33 35 38 40 43 46 49 51 49 47 44 42 41 39 36 33 29 27 25 21 20 18 21 23 20 21 20 19 22 24 22 23 24 21 19 16
22 24 26 27 28 30 33 35 37 39 42 45 48 50 50 47 44 42 40 38 36 34 31 28 27 24 23 22 24 24 21 20 21 21 21 23 23 22 24 23 19 18 16
24 26 27 29 30 33 35 37 39 41 43 45 48 48 47 44 42 40 39 37 35 33 30 27 26 26 24 27 27 27 25 23 21 23 20 20 21 23 22 22 19 18 16
26 27 29 31 33 35 37 39 41 42 43 45 46 45 43 40 39 38 37 35 33 31 30 28 26 24 24 26 27 28 27 23 23 24 21 20 21 21 21 21 20 18 16
28 29 31 34 36 38 39 41 42 43 44 45 44 43 41 39 37 36 35 35 33 31 29 28 26 25 24 23 26 28 27 24 23 24 24 23 22 22 21 19 19 17 15
31 33 35 37 38 40 41 42 43 43 43 43 42 40 38 37 37 36 35 34 33 31 29 28 27 26 26 27 28 28 30 27 26 22 21 21 21 22 21 18 19 17 16
35 36 38 40 41 42 42 43 42 42 41 41 39 38 36 35 35 35 35 35 33 31 28 27 27 26 25 25 26 26 28 27 26 24 21 19 19 24 22 19 18 16 15
37 39 40 41 42 42 42 42 42 41 40 38 37 35 34 34 34 34 33 31 30 28 27 27 26 26 24 23 24 24 23 25 25 25 23 19 18 25 23 20 18 16 15

GFSGL_700_spd_045.txt.gz
Wind_Speed
32 30 29 25 25 25 26 27 26 28 28 28 30 32 34 35 28 28 37 39 40 37 43 49 35 35 37 36 39 39 40 39 37 33 28 28 32 35 36 41 41 40 39
31 29 28 29 27 24 24 24 27 29 30 31 33 34 31 36 29 33 44 46 48 43 39 39 42 38 37 40 39 38 39 35 34 36 33 32 32 34 36 39 40 39 36
26 24 23 23 23 24 25 28 29 31 32 35 34 35 38 33 36 38 45 43 45 41 39 41 39 37 38 38 38 39 36 32 33 34 37 33 34 35 36 37 37 39 36
18 18 21 22 25 27 29 31 33 34 35 35 35 37 29 33 36 39 44 38 44 39 39 39 39 39 38 37 36 36 36 36 34 37 37 34 32 33 37 36 36 31 36
20 21 21 24 28 31 32 33 35 36 35 33 29 33 34 36 32 33 39 39 38 38 38 40 39 39 36 35 35 35 37 39 38 36 38 36 36 34 33 32 37 38 36
25 27 29 30 32 33 33 32 34 34 34 34 34 36 39 38 39 39 36 38 39 38 37 38 37 37 38 39 38 39 39 41 41 40 41 40 37 38 35 35 37 38 38
29 31 30 30 31 33 34 32 31 32 34 35 35 37 39 38 37 34 35 34 35 37 37 38 38 38 39 41 43 47 44 43 44 44 43 42 40 38 37 38 36 36 36
25 28 31 31 31 30 31 32 34 35 36 36 34 34 32 31 31 30 33 35 38 37 38 40 41 42 43 43 44 45 46 47 45 43 44 40 38 36 37 36 33 34 34
29 30 29 29 29 31 32 33 33 33 32 31 29 27 27 28 29 31 35 37 38 38 40 42 45 46 47 47 47 49 47 43 43 44 43 41 40 35 34 35 33 33 34
27 27 27 28 29 29 30 31 30 29 26 26 25 25 27 28 31 32 33 37 41 43 46 46 48 50 50 52 53 48 49 45 40 39 42 42 40 39 37 39 35 30 30
25 25 26 27 28 28 28 26 24 25 25 25 26 27 28 30 32 35 35 38 42 45 48 50 52 53 54 53 52 51 46 42 40 39 38 42 39 38 41 39 37 32 31
25 25 26 27 27 26 24 25 25 25 25 26 26 27 29 31 35 37 38 40 43 47 51 54 55 55 54 52 50 47 48 48 42 36 36 37 36 36 35 37 40 30 29
25 26 27 27 26 24 24 24 24 24 25 27 28 30 31 33 36 38 39 42 47 50 52 53 52 50 48 46 42 41 40 43 38 43 40 41 33 29 30 29 34 32 30
28 28 27 25 24 24 24 24 26 25 27 28 30 31 33 35 38 40 44 47 50 52 53 51 48 43 41 39 36 30 30 33 35 37 36 28 26 27 28 31 28 28 29
30 28 26 24 24 24 24 25 26 25 28 29 30 32 34 36 40 44 48 51 53 53 52 49 46 44 40 35 29 24 25 24 23 27 27 25 25 29 25 26 25 23 26
30 29 25 24 24 25 26 25 25 28 29 29 31 33 36 40 43 47 50 52 52 50 47 46 42 40 36 31 23 22 24 23 25 22 20 22 20 22 23 23 20 22 25
32 27 25 24 24 24 25 26 30 28 27 29 31 35 37 42 45 47 50 51 50 47 44 42 40 38 35 31 26 23 14 25 28 26 27 24 20 25 22 21 22 23 26
29 25 23 24 24 25 26 27 27 28 31 35 38 38 40 42 45 47 49 49 47 44 41 40 38 36 34 30 27 27 27 23 26 26 22 20 21 22 22 22 21 23 26
22 24 24 22 24 25 26 28 28 30 33 35 37 40 43 44 46 47 49 49 46 42 40 38 36 33 30 28 25 23 22 22 18 19 21 21 19 18 22 22 22 21 24
23 22 20 22 25 27 28 29 31 32 35 37 40 42 43 45 46 47 48 47 44 41 38 37 33 29 28 27 25 24 25 22 17 20 17 20 20 20 21 20 20 22 22
20 20 22 25 27 29 31 31 33 35 37 39 41 43 44 45 46 47 46 44 42 39 38 36 32 28 27 26 24 24 27 27 24 23 21 19 19 19 19 20 22 22 22
21 23 25 27 30 31 33 35 36 38 40 42 43 44 44 45 46 45 43 41 39 38 36 34 32 29 27 26 24 22 22 25 26 25 26 24 21 20 19 19 21 22 21
25 27 29 32 33 35 36 37 39 41 42 43 44 44 44 44 44 43 41 39 37 36 35 34 32 29 26 25 25 24 24 22 25 24 25 24 23 22 20 18 20 22 20
29 32 34 36 38 39 40 40 42 42 43 43 43 43 43 43 43 41 39 37 36 34 33 31 30 28 26 25 24 25 24 25 25 27 28 27 24 22 20 19 22 21 19
35 37 39 40 42 42 43 43 43 43 43 43 42 42 41 41 41 39 37 35 34 33 31 30 31 29 27 25 25 25 24 24 25 26 28 29 24 21 20 20 22 20 21
39 41 42 43 44 45 44 43 42 42 42 42 41 40 40 39 38 36 34 33 33 31 31 31 31 30 27 25 25 24 24 24 25 26 27 25 25 22 20 20 23 20 21

GFSGL_700_spd_048.txt.gz
Wind_Speed
38 33 30 28 27 23 24 22 23 24 25 26 26 27 28 29 29 29 28 35 33 33 41 49 41 34 38 39 38 38 39 39 39 41 40 37 36 37 38 41 44 45 44
30 29 22 24 24 24 24 25 23 24 26 28 28 29 31 32 31 29 34 37 32 41 35 41 41 44 40 41 41 41 39 37 39 42 40 38 37 37 38 39 41 44 44
25 24 22 20 21 21 22 22 25 27 29 31 31 33 33 33 31 35 35 30 39 37 40 40 42 41 41 41 40 39 38 37 39 40 43 42 41 40 41 42 42 43 44
21 21 21 17 18 19 23 24 27 29 32 34 34 35 33 31 35 25 40 41 45 42 41 41 40 40 40 39 38 37 36 37 36 40 44 45 43 43 43 42 42 44 46
21 20 19 18 21 22 24 27 30 33 35 36 37 38 35 35 33 40 39 44 44 42 38 37 36 36 37 37 37 37 37 39 40 41 46 48 48 46 46 44 42 46 45
23 24 24 25 26 30 31 31 32 33 34 36 33 32 33 36 36 38 38 41 39 38 35 35 35 36 36 38 39 40 41 43 45 44 45 45 46 46 47 48 49 47 48
27 27 29 30 31 33 32 33 35 34 32 32 33 34 35 34 32 34 33 33 33 33 34 35 36 37 37 39 41 43 45 46 48 50 49 47 47 43 40 41 45 46 41
30 33 32 28 29 32 33 32 31 31 32 33 32 32 32 31 31 28 29 31 32 33 34 36 37 39 41 43 46 49 51 52 51 49 48 49 47 45 43 40 39 40 41
27 25 27 29 30 30 29 29 30 31 32 33 32 32 29 29 30 29 30 32 32 34 34 36 39 42 44 48 52 55 55 55 53 49 44 45 46 47 44 41 41 37 40
25 27 28 28 28 28 28 29 30 31 32 31 28 27 27 31 32 29 29 32 33 35 37 38 41 45 48 51 53 55 56 55 51 47 45 43 41 43 42 41 39 41 38
27 27 27 27 27 28 28 30 31 31 29 27 27 27 29 32 31 30 30 31 34 36 38 42 45 48 50 52 51 51 49 48 48 46 43 40 42 39 38 37 39 38 36
28 28 28 28 29 30 31 31 30 28 28 27 26 27 28 31 32 30 30 33 36 39 43 45 47 49 51 50 48 46 45 44 44 42 41 39 39 35 34 37 38 37 31
30 30 30 31 31 32 32 31 30 28 27 27 27 27 29 30 32 30 32 34 38 41 44 46 48 49 50 48 44 42 40 39 36 33 32 30 31 31 25 30 30 28 22
32 32 32 32 32 33 32 31 28 27 27 27 27 28 29 30 31 32 33 36 39 42 45 46 48 49 48 46 42 39 36 32 28 26 26 23 20 30 27 25 26 26 22
35 35 34 34 33 34 31 29 28 27 27 28 27 28 28 30 32 34 36 38 41 44 46 48 50 50 48 44 39 36 34 28 26 24 23 25 22 23 21 21 22 18 22
38 37 36 36 35 36 31 30 27 26 26 26 27 28 29 30 34 36 37 40 43 45 47 49 50 49 46 43 39 36 33 27 22 18 18 19 19 16 20 20 19 18 19
40 39 40 41 37 33 30 26 25 24 24 26 27 28 30 32 36 38 39 41 43 45 48 49 48 46 44 40 38 36 33 27 27 21 22 21 20 23 22 23 21 19 20
41 45 46 38 29 26 28 26 24 24 27 29 30 33 33 32 37 38 40 42 43 44 46 47 46 44 41 38 36 33 30 26 24 29 27 16 16 17 18 20 20 20 19
47 46 38 31 28 28 26 24 25 27 28 30 34 37 38 37 40 41 42 43 45 46 46 46 43 40 38 35 33 31 28 26 23 19 17 19 13 18 19 17 19 20 19
48 36 24 23 25 25 24 25 27 28 29 33 35 38 38 39 40 41 43 44 45 45 45 44 41 38 35 34 32 29 27 24 23 25 19 16 18 16 17 18 19 18 18
22 22 22 22 21 23 25 28 29 31 34 36 38 40 40 40 42 42 43 45 45 44 43 41 39 36 35 33 31 29 26 23 21 24 30 16 13 20 19 17 16 17 19
23 21 20 22 25 26 28 31 33 36 38 40 40 41 43 43 43 44 44 44 44 43 41 39 37 35 34 31 29 27 25 22 21 20 22 26 24 21 21 18 16 16 20
21 21 24 26 27 29 33 35 37 40 41 42 42 43 43 43 44 44 44 43 42 40 38 36 35 34 31 29 27 27 25 22 21 22 20 22 23 27 27 21 17 15 19
23 26 27 30 32 34 37 39 41 42 43 44 44 44 43 43 43 43 42 42 40 38 35 34 33 32 31 30 28 26 25 24 22 22 22 20 23 24 26 24 18 17 18
28 29 32 35 38 39 40 41 42 43 43 43 43 42 42 42 42 41 41 39 38 35 33 32 32 32 31 29 27 26 24 24 23 22 23 23 21 27 27 25 20 18 18
33 35 37 39 41 42 42 43 43 43 42 42 41 41 41 40 40 39 38 37 35 33 31 31 31 30 28 27 25 23 22 22 21 22 23 23 24 25 27 26 21 19 18

GFSGL_700_spd_051.txt.gz
Wind_Speed
24 26 28 29 31 32 31 24 22 22 20 19 23 24 24 24 23 24 26 26 30 30 28 38 31 35 41 36 42 41 38 37 42 42 41 38 39 36 34 37 39 42 41
20 25 28 27 23 26 34 25 24 23 21 21 22 24 26 27 27 26 26 33 28 36 41 28 30 41 42 41 42 39 38 36 39 43 41 39 40 38 39 39 40 41 42
23 17 21 26 22 16 21 23 22 20 21 21 24 27 29 30 30 32 35 31 31 31 32 40 43 46 41 41 39 38 36 36 37 40 42 41 41 41 44 44 49 45 44
16 22 25 24 21 15 16 15 16 18 21 24 27 29 31 33 33 31 26 35 29 32 38 40 44 39 39 38 36 35 34 36 37 40 43 43 43 42 45 48 46 50 48
26 20 16 16 17 19 19 19 20 22 26 29 31 33 33 32 33 31 29 33 36 40 36 38 38 34 33 35 36 36 36 38 40 42 45 46 47 47 46 47 49 48 52
24 22 20 21 21 20 21 23 26 29 31 32 31 32 31 31 30 31 36 34 34 35 35 32 30 32 32 34 36 38 40 42 44 47 50 52 52 51 46 44 45 47 47
29 28 25 24 23 24 26 28 31 30 30 31 30 31 32 32 32 32 34 32 30 29 29 31 31 33 34 37 37 39 41 43 46 49 53 54 53 52 49 48 48 48 49
32 30 28 26 27 30 31 29 30 31 31 29 31 32 33 32 32 31 29 28 27 28 30 31 33 33 35 38 41 44 47 47 49 51 53 54 54 52 49 44 45 47 45
31 28 29 33 30 28 30 32 32 30 29 30 30 32 33 33 28 26 27 28 29 30 31 32 33 34 35 39 45 49 49 49 50 52 52 52 52 49 44 41 41 40 41
27 28 26 25 27 29 30 30 29 29 30 30 31 34 33 29 28 28 28 28 29 30 29 30 31 35 39 43 47 48 50 49 50 49 48 47 46 42 39 39 36 35 37
24 25 25 26 29 30 29 29 29 29 30 32 34 32 31 29 28 28 28 30 31 30 30 30 33 37 41 43 46 47 49 49 48 49 47 44 41 40 38 35 35 34 40
25 25 27 29 30 29 29 30 30 30 31 32 32 33 33 31 29 29 29 30 30 31 31 33 36 39 41 44 46 47 47 47 47 46 44 41 36 32 30 28 29 27 26
27 28 29 30 31 31 31 33 34 33 33 32 34 35 34 31 29 29 29 29 30 32 34 36 38 40 42 44 45 46 46 46 45 43 42 35 29 23 23 21 16 18 23
31 31 32 33 34 34 34 35 33 33 34 34 32 32 32 29 27 29 29 30 32 34 35 37 40 41 42 44 44 45 45 46 44 41 40 32 25 23 22 17 20 22 21
34 35 36 36 38 38 37 36 37 37 35 34 32 30 27 27 29 30 31 32 34 36 37 40 41 42 43 44 45 45 46 44 41 38 36 30 22 19 20 20 19 18 18
39 39 40 41 41 40 38 37 37 37 34 31 28 28 28 27 29 31 32 34 38 39 40 42 43 44 45 45 46 45 45 43 39 36 33 28 24 18 16 17 17 18 17
44 44 44 43 43 41 39 38 35 29 26 28 33 28 25 28 30 34 36 37 39 41 42 43 44 45 45 45 45 45 43 40 37 33 31 26 28 21 18 20 21 22 21
48 47 45 44 45 43 42 37 31 30 34 34 31 30 30 30 32 37 39 40 40 41 42 43 44 44 43 43 43 42 39 37 33 30 29 25 23 24 16 14 16 18 19
45 44 43 43 43 42 35 30 29 30 30 28 28 30 31 31 34 38 40 41 42 43 44 44 43 43 43 43 42 40 37 35 32 29 26 22 19 20 23 16 15 17 18
45 46 47 37 29 26 26 26 26 26 27 29 32 34 35 36 38 41 43 43 44 44 45 44 43 43 42 41 39 37 34 32 30 28 25 22 23 18 19 21 20 18 18
41 30 25 26 27 23 24 25 26 28 31 33 34 35 38 40 42 42 43 44 44 44 43 43 42 41 41 39 37 34 32 29 27 26 24 22 24 24 18 22 21 14 15
23 25 26 24 24 25 26 27 28 30 32 33 36 38 40 42 43 43 44 44 43 43 42 42 41 40 39 37 35 32 30 28 26 25 24 23 21 24 29 20 20 15 15
22 22 23 24 25 27 29 30 32 34 36 38 39 41 42 43 43 43 43 42 42 41 41 39 38 37 35 34 33 32 30 29 27 25 23 22 22 22 25 25 24 18 17
21 23 25 27 30 32 33 35 36 38 40 41 41 42 42 42 42 42 42 41 41 39 37 37 36 35 33 32 31 30 29 28 27 25 24 21 20 21 22 24 27 26 21
25 27 29 32 34 36 38 39 41 41 42 42 42 42 42 42 41 41 40 39 38 35 35 35 34 32 31 30 29 27 26 25 24 24 23 21 20 20 19 23 26 26 23
30 33 35 37 39 40 41 42 42 43 43 43 42 42 41 40 39 38 38 36 34 33 32 31 30 29 28 27 26 24 24 23 22 22 21 20 19 19 20 20 26 27 23

GFSGL_700_spd_054.txt.gz
Wind_Speed
13 32 35 35 30 33 32 26 28 32 32 25 22 23 24 22 23 24 27 29 29 27 28 32 35 41 41 33 33 45 39 40 49 48 46 42 42 40 40 41 40 41 43
26 17 26 31 32 37 40 24 33 27 23 17 26 24 24 24 26 28 30 30 30 30 34 35 36 42 36 35 46 45 41 42 45 48 45 41 40 38 40 42 43 45 45
42 31 22 27 28 30 22 15 23 29 26 24 26 25 26 27 28 31 32 32 28 36 39 38 39 36 38 44 46 43 44 43 42 45 45 43 42 40 41 43 45 47 46
27 29 27 25 23 23 24 19 19 20 21 22 24 25 28 31 33 34 34 31 38 35 35 32 34 39 43 42 43 43 40 41 39 40 42 43 45 44 46 48 50 49 51
22 27 26 24 21 21 20 19 19 20 20 23 25 28 31 34 35 34 35 36 33 38 32 39 39 41 37 42 41 38 37 37 37 39 43 46 47 47 49 52 54 53 52
22 26 26 23 23 21 22 22 21 23 25 27 30 32 34 34 34 35 34 35 32 31 40 35 34 38 38 36 36 37 36 37 39 43 46 49 50 51 53 56 57 57 56
24 24 24 25 24 24 26 25 26 25 28 31 33 33 33 33 32 32 31 31 30 33 34 34 34 34 35 34 33 33 34 36 41 46 49 49 51 52 55 56 56 54 52
24 26 25 27 29 29 29 29 30 32 31 31 31 31 31 30 31 31 32 32 32 33 32 33 33 34 34 34 33 35 35 38 41 43 46 48 50 52 54 55 53 50 48
27 26 28 30 32 31 31 31 33 30 31 32 31 31 31 30 31 33 33 32 31 32 32 33 33 32 32 35 36 38 38 40 43 45 47 48 49 50 51 51 47 46 45
27 29 30 31 32 35 34 30 30 32 33 32 31 31 31 31 33 33 31 32 32 32 32 32 33 33 33 35 37 40 43 44 45 46 47 46 47 47 46 45 43 41 39
32 32 31 31 28 27 28 29 31 32 32 32 31 31 32 33 33 32 32 32 32 32 32 32 32 33 35 37 39 42 44 46 47 47 47 47 47 46 44 42 39 38 34
30 30 28 26 26 28 29 31 32 32 32 33 33 34 34 33 32 32 32 33 33 33 31 31 32 36 37 39 41 43 45 46 47 48 47 47 47 45 41 38 32 32 27
27 27 28 29 30 31 31 33 33 34 34 35 36 36 35 34 34 34 35 35 32 30 29 34 36 38 39 41 43 45 46 47 48 48 48 48 47 43 39 33 28 27 20
28 31 33 34 34 35 35 35 35 36 37 37 37 36 35 36 35 35 33 31 29 36 35 37 38 39 42 44 46 46 47 48 48 48 48 48 46 41 35 28 28 24 20
33 36 37 38 39 39 38 38 38 39 39 40 39 38 37 35 32 30 32 39 37 33 35 38 40 43 44 47 47 47 47 47 47 47 47 45 43 38 31 22 17 21 21
39 40 41 42 43 42 42 42 41 40 40 40 41 38 36 34 33 37 38 34 34 36 38 41 42 45 47 47 48 49 48 47 46 45 45 43 40 36 30 26 25 23 20
42 44 44 45 46 46 45 45 43 43 42 38 32 30 30 34 36 39 37 38 38 38 40 42 45 46 48 48 48 48 48 46 45 45 43 40 36 33 29 25 25 25 24
44 46 46 46 46 47 47 46 47 45 40 35 37 38 36 40 41 37 37 38 40 41 43 45 47 48 47 47 48 47 46 45 44 42 39 37 33 31 26 21 22 21 17
44 44 46 47 47 47 48 47 43 37 35 34 33 34 36 35 35 38 41 42 42 43 45 47 46 47 47 47 46 46 45 44 42 39 37 34 30 27 24 22 21 24 23
42 41 41 41 42 41 41 38 36 33 30 33 34 34 35 37 39 41 41 42 43 45 46 46 46 46 45 45 45 44 43 41 39 36 34 31 28 26 23 22 20 22 23
32 33 35 36 35 33 32 30 30 32 33 33 34 37 39 40 40 41 42 44 45 45 45 45 45 45 45 45 44 42 41 39 36 33 31 29 27 24 24 23 21 21 24
29 28 26 25 25 25 26 28 29 30 33 35 37 38 39 41 43 44 45 46 46 45 45 45 45 45 45 43 41 40 38 35 33 31 29 28 26 24 23 22 24 21 21
19 19 20 22 23 25 27 29 32 34 36 38 40 41 42 43 45 46 47 46 45 45 45 44 44 43 41 40 39 38 36 33 31 30 28 26 25 24 23 23 20 23 23
18 19 21 23 26 28 31 34 36 38 40 41 43 44 45 46 46 46 47 47 46 45 44 43 42 40 38 37 35 33 32 30 29 27 26 24 22 23 23 22 21 22 26
21 23 26 29 32 34 37 39 42 43 44 45 46 47 47 47 47 47 46 45 44 42 41 40 38 37 36 34 31 29 28 27 27 26 25 23 20 21 21 21 22 20 26
27 30 33 36 38 40 41 42 44 45 46 47 47 48 47 47 46 45 44 42 41 40 38 36 35 34 31 29 27 26 25 24 24 24 22 20 18 18 20 20 21 21 22

GFSGL_700_spd_060.txt.gz
Wind_Speed
21 21 19 20 21 23 25 24 25 27 28 29 33 34 36 35 35 37 36 32 33 33 32 34 37 36 38 37 37 42 39 45 50 48 47 36 41 43 39 38 38 39 39
18 21 25 26 29 35 31 30 30 31 29 32 35 39 35 37 42 37 38 34 33 33 36 39 40 37 38 41 46 39 41 48 47 47 44 42 45 43 41 40 38 39 41
20 20 25 29 37 32 19 26 29 33 35 46 38 34 39 39 36 36 35 31 33 38 37 40 38 40 45 45 42 41 50 51 51 49 47 47 46 42 43 43 43 42 43
13 17 20 26 29 40 36 28 26 27 27 33 22 25 32 39 39 37 36 32 33 36 39 40 41 42 46 44 47 42 50 46 43 47 50 46 44 43 45 45 44 43 44
11 13 19 21 26 29 34 32 30 27 26 30 33 31 27 29 33 37 34 33 35 37 39 40 40 40 50 39 44 50 50 47 44 52 46 44 43 43 44 44 46 48 46
16 18 14 20 23 26 29 29 32 30 27 29 28 29 28 29 30 32 33 35 38 40 38 40 41 42 44 47 53 49 47 45 54 47 43 43 42 43 42 44 47 48 50
21 23 23 20 22 23 25 29 31 33 31 29 31 30 30 32 33 35 36 39 41 41 39 40 43 47 47 51 48 49 42 51 50 45 43 43 41 39 44 46 45 50 50
24 26 27 25 23 22 24 27 30 30 30 32 33 33 32 34 38 37 39 41 43 37 42 47 46 47 46 47 48 46 47 50 47 44 43 40 39 44 45 47 49 50 51
28 28 27 26 24 26 24 27 28 29 32 33 35 35 36 39 39 39 42 38 39 43 44 45 45 46 47 48 47 49 49 46 44 43 41 40 45 43 45 48 49 50 54
31 31 28 26 28 29 28 28 29 32 35 37 38 39 39 38 42 43 39 39 40 41 43 44 46 48 49 49 49 46 44 43 42 39 39 43 42 42 44 47 48 50 52
33 30 27 29 29 31 32 32 32 33 35 38 40 40 42 45 42 39 40 40 41 42 45 47 48 49 50 49 47 44 44 42 39 42 48 45 42 46 46 47 47 49 49
30 29 28 31 31 32 34 36 36 35 34 35 39 40 40 38 38 39 39 40 41 44 46 47 48 48 48 47 46 48 44 48 53 51 49 44 48 49 48 47 47 46 48
27 28 30 30 30 30 30 33 32 30 34 35 37 37 37 38 39 40 42 43 45 46 46 47 48 47 46 48 51 52 52 54 52 52 48 48 50 48 47 47 47 47 45
25 26 27 29 29 30 29 30 31 36 38 39 38 39 39 40 41 42 45 46 47 47 46 46 47 50 53 55 55 52 52 55 54 48 48 48 47 47 46 47 46 45 43
24 25 26 27 28 29 28 30 34 37 38 38 39 40 41 42 43 45 47 47 47 48 51 51 52 52 51 49 50 52 52 48 47 47 46 46 46 46 46 45 44 44 44
24 24 24 25 24 25 28 32 34 35 36 37 39 41 42 44 43 43 45 48 50 49 46 44 46 47 47 47 49 49 46 46 45 45 46 46 46 46 45 43 43 42 42
24 25 26 29 29 28 29 35 36 33 31 32 34 37 39 41 42 43 42 41 42 41 42 43 43 43 46 48 46 45 45 45 45 46 46 47 46 44 43 42 41 41 39
29 32 32 33 36 35 31 30 27 26 27 29 31 32 33 35 37 40 42 42 42 42 41 42 44 46 44 44 45 45 46 46 46 46 45 44 43 43 42 41 40 38 35
33 35 32 32 31 29 27 28 28 28 29 31 33 35 37 39 39 40 40 39 39 40 43 43 42 43 44 45 46 47 47 46 46 45 43 43 43 42 40 39 37 34 32
35 32 30 30 28 28 29 28 28 29 31 33 35 36 36 36 35 35 36 38 39 40 42 43 45 46 47 48 48 48 48 46 45 45 43 42 41 39 38 37 34 31 28
26 27 27 25 25 26 26 28 30 31 32 31 32 32 32 33 34 36 37 39 41 43 45 47 48 49 50 51 50 49 48 46 44 42 40 39 38 36 35 33 31 29 26
17 18 20 22 24 24 25 25 25 25 26 27 29 30 33 35 37 40 42 44 47 49 51 52 52 51 51 50 49 47 44 41 40 39 37 36 35 33 32 30 27 26 24
17 19 19 19 20 20 21 22 23 25 27 29 32 34 37 40 42 45 47 48 49 50 51 51 51 49 48 47 45 43 40 38 36 35 34 32 30 29 27 26 24 23 21
15 16 17 18 19 21 24 26 28 31 33 36 38 40 42 43 44 45 45 46 47 48 48 48 47 46 44 42 39 37 35 33 32 31 30 28 25 24 23 22 22 21 19
19 21 23 25 27 29 31 32 34 35 36 37 37 37 38 40 41 42 42 42 42 42 41 41 40 38 36 34 31 30 29 28 27 27 25 23 21 20 20 20 19 19 18
25 27 28 30 31 31 31 31 31 31 32 33 34 35 35 36 36 37 37 37 36 36 35 34 32 31 29 27 26 25 24 23 22 22 21 19 18 17 18 17 16 16 16

GFSGL_700_spd_066.txt.gz
Wind_Speed
15 16 14 12 13 13 12 14 15 19 21 24 26 31 35 37 37 39 40 40 44 44 46 45 45 43 45 44 47 36 34 34 39 38 37 37 39 41 38 43 48 48 44
17 18 18 19 20 21 19 18 19 20 21 21 24 30 32 34 36 40 41 43 46 48 48 49 49 56 51 43 42 36 31 36 38 37 38 36 44 37 42 42 46 48 44
21 21 21 23 25 26 24 24 27 26 26 26 30 34 34 36 38 40 41 44 46 50 52 61 40 42 43 37 42 31 36 37 42 39 41 42 41 43 45 48 50 48 45
27 29 28 26 24 24 26 31 32 32 32 35 33 32 37 39 41 42 45 48 52 47 49 40 41 42 39 36 38 33 39 38 40 42 44 46 45 47 45 54 55 47 48
25 27 27 23 26 29 30 30 31 34 37 37 38 38 39 41 44 46 49 52 49 46 43 40 39 42 42 36 42 35 43 37 43 43 49 45 44 49 54 57 51 47 50
18 20 18 17 16 18 24 28 31 35 38 40 41 44 42 44 41 37 43 51 46 46 43 43 41 41 44 40 43 39 38 39 39 48 41 45 45 51 59 51 51 50 48
27 24 24 24 23 21 22 23 24 28 31 36 40 45 49 51 52 52 47 45 45 48 46 46 44 41 38 44 42 42 40 42 40 46 44 49 56 57 53 51 52 51 47
36 35 31 32 30 28 28 29 29 28 31 35 36 39 43 46 47 47 47 49 47 42 44 46 45 42 43 46 48 46 46 41 40 44 47 56 56 52 52 54 52 50 48
36 37 36 38 37 34 34 34 33 34 33 34 36 38 39 40 42 42 43 45 45 45 45 46 42 46 44 49 55 51 42 41 42 49 54 56 53 53 55 57 51 51 55
39 39 42 42 39 39 39 38 36 39 39 37 38 38 39 40 40 41 41 43 44 45 46 45 45 46 47 52 52 40 41 42 46 56 53 53 55 56 54 51 51 51 54
40 39 40 41 43 43 41 40 43 41 39 38 40 41 42 42 41 40 41 43 45 46 44 46 46 53 49 42 39 41 43 52 57 53 52 56 56 53 51 50 50 53 52
40 39 41 43 43 44 42 45 41 37 37 41 44 42 43 43 43 42 42 42 41 41 45 48 51 47 34 37 42 50 53 50 51 53 54 53 52 50 49 50 50 49 49
39 41 43 45 41 40 41 40 41 44 39 47 47 46 44 43 43 43 41 41 39 44 44 39 33 38 41 43 44 45 47 48 48 49 50 49 48 47 48 48 47 47 45
42 37 37 40 36 36 36 38 39 36 45 46 41 41 38 35 33 36 38 33 29 29 31 36 36 38 41 44 43 43 45 47 48 47 47 48 48 48 47 48 46 44 43
32 30 31 33 32 33 34 36 37 40 44 39 35 33 30 31 34 33 30 29 30 33 36 37 38 38 39 41 43 44 46 47 48 48 47 46 46 47 46 43 43 43 43
27 28 30 30 32 35 35 32 32 38 34 29 29 31 31 32 34 35 32 32 33 33 34 33 35 38 40 43 45 47 48 47 46 45 45 45 44 44 45 44 45 45 45
16 21 32 35 38 43 44 49 32 28 28 29 30 31 31 30 31 32 32 31 28 28 31 34 37 40 42 45 46 46 45 44 43 43 44 45 46 47 48 47 47 48 47
25 24 23 25 28 30 31 29 23 21 25 27 29 31 30 27 26 27 26 27 30 33 36 39 41 43 43 43 43 42 43 44 45 46 48 49 49 50 50 50 49 48 45
25 22 22 26 32 30 29 27 27 28 29 26 22 20 22 23 24 25 28 32 35 37 38 39 39 39 40 41 42 44 46 48 49 51 52 52 52 51 49 48 46 44 42
18 21 23 22 22 23 21 21 20 18 18 18 20 22 25 28 30 32 32 32 33 34 35 36 38 40 42 45 47 49 50 50 50 51 51 50 49 47 46 44 41 39 37
12 11 12 13 13 14 15 17 19 21 23 25 26 26 27 27 28 29 30 31 33 35 38 40 42 44 45 45 46 46 47 47 47 46 46 45 44 41 39 37 36 34 33
9 9 10 11 13 16 18 18 19 20 21 22 22 23 25 27 29 31 33 35 37 37 38 38 40 41 42 42 42 42 42 42 42 42 41 39 37 34 32 31 30 29 28
8 8 9 10 11 12 14 16 18 20 23 25 26 27 29 30 31 32 33 33 34 34 35 37 37 38 39 39 39 38 37 37 36 35 33 31 29 27 26 25 25 25 24
12 14 15 16 16 17 18 19 21 23 24 25 26 26 26 27 28 29 30 31 32 33 35 35 35 35 34 33 33 32 31 30 29 27 26 24 23 22 22 21 21 21 20
15 16 17 18 19 20 20 20 21 21 21 22 23 23 24 25 27 28 29 30 31 32 32 32 31 30 28 28 28 27 27 26 25 24 22 21 20 19 19 18 17 16 16
18 18 18 17 18 18 18 18 19 19 20 20 21 22 23 24 26 27 28 28 29 29 29 28 27 26 26 26 26 26 25 23 22 21 19 18 17 16 15 14 13 13 13

GFSGL_700_spd_069.txt.gz
Wind_Speed
13 12 11 12 13 14 13 14 14 17 21 24 27 29 34 36 37 40 41 39 39 42 44 46 45 43 47 48 48 47 46 41 43 48 44 44 36 37 38 41 40 37 36
15 16 16 16 16 15 14 15 17 17 18 20 22 23 25 27 32 36 37 38 38 39 41 45 47 45 50 51 55 51 52 55 60 51 38 42 46 36 42 45 42 45 45
19 18 20 21 22 21 20 20 21 21 23 24 24 25 26 27 31 34 36 37 38 40 43 46 46 46 52 49 54 51 51 53 46 32 37 36 45 38 47 43 47 43 47
24 24 24 24 23 23 25 27 27 26 28 28 29 29 29 28 29 36 37 39 41 44 44 46 48 49 52 51 48 48 43 38 46 38 43 45 41 50 42 48 48 45 45
23 25 27 29 30 30 29 28 27 30 33 33 34 36 36 39 37 38 40 42 45 45 49 54 51 51 52 47 51 44 43 48 50 41 41 45 48 46 51 45 46 48 49
27 23 23 25 29 32 28 29 30 31 32 34 36 37 40 42 42 43 44 46 46 49 52 44 50 50 54 53 50 49 49 47 46 50 44 54 46 51 50 49 50 49 52
28 27 27 25 26 27 25 24 23 24 26 27 30 35 37 41 43 45 46 49 51 51 52 53 57 47 48 55 46 51 50 47 48 47 51 48 53 52 54 50 45 48 55
30 32 33 32 31 32 31 30 29 29 30 29 29 30 32 36 39 41 44 50 53 56 59 58 56 54 52 49 48 50 54 49 53 61 58 57 63 51 45 47 47 54 56
34 30 33 39 39 40 40 39 37 38 37 37 36 35 35 34 36 38 40 42 44 46 48 49 49 50 52 52 49 52 54 56 58 58 56 49 43 42 46 48 56 57 56
23 30 39 41 43 50 49 47 45 46 44 45 45 42 40 37 38 38 40 43 44 45 47 49 49 49 50 49 48 51 55 51 56 56 48 41 45 46 49 54 55 51 50
28 28 33 41 46 45 48 51 50 52 52 51 48 48 42 39 41 40 42 44 47 48 48 49 49 49 51 50 52 52 52 57 38 37 44 44 45 49 48 49 50 52 52
45 45 39 36 42 43 42 46 49 50 49 52 52 43 41 40 47 45 44 46 48 49 49 49 48 48 50 52 54 45 38 37 39 39 40 43 45 47 49 50 50 49 50
40 40 41 40 39 36 39 42 48 46 49 47 41 45 45 45 50 45 46 48 47 47 46 47 45 46 50 47 37 33 35 38 38 41 42 45 47 47 48 48 49 48 48
36 37 38 40 39 39 41 46 48 45 43 42 48 47 46 45 45 46 49 45 41 39 41 39 35 31 29 31 35 36 36 37 41 43 44 45 46 47 47 48 47 46 46
29 28 33 36 37 36 34 34 41 44 46 43 41 45 44 43 47 49 44 39 37 34 33 32 33 32 32 33 35 37 38 39 41 42 44 46 46 47 46 46 45 44 45
26 23 19 22 26 28 30 30 30 34 38 41 41 42 44 41 42 44 42 34 30 29 28 28 30 31 32 33 35 37 39 42 43 45 44 44 43 44 44 45 46 48 49
20 14 20 14 20 32 40 41 40 41 44 45 48 46 44 38 31 23 22 24 25 25 26 26 28 30 32 35 37 40 43 43 42 42 42 44 46 47 48 49 50 52 52
26 28 23 30 23 20 22 27 26 28 28 28 28 26 24 25 25 22 22 21 22 24 27 29 31 34 37 38 39 39 40 42 44 45 47 49 50 51 51 51 51 51 51
28 26 23 22 25 25 26 27 23 21 24 23 20 19 19 18 17 19 23 26 28 30 32 33 34 35 35 37 39 41 43 45 47 48 49 49 50 50 50 49 48 48 46
22 21 21 21 21 22 23 20 19 19 18 18 18 18 19 21 23 25 27 28 29 30 31 32 34 35 37 39 41 42 43 44 45 46 47 47 47 47 46 46 44 42 40
13 12 12 12 12 13 13 14 15 15 16 18 20 21 22 23 23 24 25 27 29 31 34 36 37 37 37 38 39 40 41 42 43 43 43 43 42 42 41 39 37 35 33
10 10 10 11 13 14 15 16 17 18 18 20 21 21 24 26 28 28 29 30 31 32 33 33 35 36 36 37 38 39 39 39 39 39 38 37 36 35 33 31 29 27 26
8 9 9 10 12 14 16 17 19 21 22 23 24 25 26 28 29 29 29 30 30 30 31 32 33 33 34 35 36 36 35 34 34 33 32 30 29 27 26 24 23 23 22
14 14 15 16 17 18 19 21 22 23 24 25 25 25 26 26 26 26 26 27 28 28 29 30 31 32 32 33 32 32 30 29 29 28 26 25 24 23 22 21 20 20 19
18 19 20 20 20 21 21 21 21 21 22 22 22 22 22 23 23 24 25 26 27 28 29 29 30 30 30 29 28 27 26 25 24 24 23 22 22 21 20 19 18 16 16
19 19 19 19 19 19 20 20 20 20 20 20 20 21 21 23 23 24 25 26 27 28 28 29 28 27 26 24 24 24 23 23 22 22 21 20 19 19 17 16 15 14 13

GFSGL_700_spd_072.txt.gz
Wind_Speed
7 7 7 5 6 8 10 15 18 20 25 29 30 30 35 39 40 46 49 48 44 41 43 45 46 42 41 44 44 44 43 48 53 56 56 51 44 47 46 53 46 42 35
8 9 10 11 10 9 8 9 12 13 16 19 24 28 30 30 34 38 41 42 44 46 45 46 41 41 44 45 43 44 47 49 57 50 50 47 52 49 59 51 47 45 37
15 14 13 14 14 14 14 15 15 15 16 18 20 19 21 23 27 30 32 34 37 37 38 40 40 42 44 44 43 43 47 51 49 55 52 52 42 36 37 40 37 48 51
20 20 20 19 18 18 19 21 22 21 22 22 22 24 25 26 27 28 30 30 32 34 36 38 39 41 42 43 43 44 47 51 52 49 52 51 49 50 41 42 47 45 48
23 21 21 20 22 25 26 25 25 26 26 26 27 28 28 30 31 32 33 33 33 34 36 39 41 43 44 48 45 46 51 55 54 53 56 54 55 42 50 47 48 50 54
24 24 24 24 23 24 27 30 31 31 30 30 30 30 31 32 32 33 36 38 38 40 42 43 45 47 47 47 50 51 47 57 50 50 49 54 52 46 55 58 57 55 56
20 24 27 29 28 26 25 28 30 31 30 30 29 30 29 30 30 34 35 39 41 43 45 47 50 52 53 52 53 53 54 57 58 48 50 51 55 54 60 51 56 56 63
24 25 26 29 32 33 33 31 30 31 31 29 29 30 31 29 29 28 31 37 40 42 45 49 51 52 52 52 53 53 53 54 58 56 58 56 55 56 51 58 58 54 47
23 27 29 28 31 34 36 33 37 39 38 37 37 38 39 36 37 36 36 35 37 39 40 42 45 46 47 45 44 49 51 54 55 55 55 54 58 60 58 54 45 43 44
21 23 27 29 30 32 38 40 42 46 46 47 47 48 46 46 45 43 41 41 41 42 42 43 43 44 45 47 48 51 52 52 55 58 59 56 58 48 40 37 40 44 43
39 37 32 32 31 34 31 32 46 50 58 52 57 56 53 51 52 49 48 44 44 46 44 46 45 47 49 50 51 53 50 55 52 59 59 49 39 36 35 38 39 40 45
32 40 41 37 44 47 40 43 44 43 47 51 49 50 45 52 57 54 46 45 51 48 48 47 49 48 49 51 52 52 55 56 58 43 39 35 35 35 36 39 43 45 47
31 28 28 33 37 41 49 48 44 43 43 43 42 46 47 50 52 54 54 50 58 54 50 42 42 45 50 51 51 46 50 46 38 35 34 33 36 38 39 42 44 45 46
29 32 35 35 30 30 35 40 42 42 44 45 45 47 51 57 63 68 54 52 48 43 44 47 48 50 51 53 42 37 35 31 29 30 31 35 38 41 43 45 46 46 45
27 26 27 31 30 31 28 33 38 41 45 46 48 49 53 49 45 42 40 45 43 43 45 46 43 38 42 30 24 23 24 28 31 34 36 39 42 44 44 43 43 44 44
28 27 29 29 24 22 27 31 37 45 42 36 43 51 48 36 40 35 35 39 41 38 23 20 18 17 19 22 26 29 30 32 36 39 40 40 40 40 40 42 44 46 47
32 31 32 23 27 36 38 38 26 28 29 22 26 30 34 35 38 37 30 18 14 15 18 19 21 23 26 28 31 34 35 36 35 35 37 39 40 41 42 43 44 45 46
26 26 29 28 25 25 22 25 24 30 31 31 28 23 27 28 21 15 16 15 15 17 20 21 24 26 28 31 32 32 33 35 37 38 40 40 41 41 42 43 43 44 45
25 27 27 24 22 22 23 23 23 24 24 22 21 18 18 16 16 17 17 19 20 22 23 24 26 27 28 31 34 35 36 37 38 39 40 40 40 40 41 41 42 42 43
20 22 19 17 15 15 13 13 13 14 15 14 13 12 13 15 17 20 21 22 23 24 25 27 30 31 32 32 33 33 34 35 36 37 38 39 40 40 40 40 40 40 39
13 14 13 12 13 13 13 13 14 14 14 16 17 17 18 18 19 21 23 26 28 28 28 29 28 28 28 29 31 32 34 35 36 36 37 37 37 37 37 37 35 34 31
10 10 10 11 11 12 14 15 15 16 17 19 20 21 22 22 22 23 23 24 25 25 25 27 29 29 29 30 30 31 33 34 35 34 34 33 33 32 31 30 27 26 24
9 11 12 13 14 15 17 18 19 20 21 23 24 25 25 26 25 25 25 25 25 25 26 27 27 28 29 30 31 32 32 32 31 30 29 29 28 27 26 24 23 21 20
16 17 18 18 19 20 21 22 22 23 23 23 23 23 23 23 23 23 23 23 24 24 24 26 27 27 28 30 29 29 28 27 26 26 26 25 25 23 22 20 19 18 17
19 20 20 21 21 21 21 21 21 21 21 21 21 21 20 20 21 21 21 22 23 24 24 25 26 26 26 26 26 26 25 24 24 24 23 22 21 19 18 18 16 15 15
20 21 21 21 21 21 21 21 21 20 20 20 20 20 21 21 22 22 23 24 24 24 25 25 26 26 27 26 25 24 22 22 21 20 19 19 18 18 17 16 15 14 14

GFSGL_700_spd_075.txt.gz
Wind_Speed
4 3 1 1 1 1 2 7 9 11 14 18 24 24 25 33 38 46 50 48 47 50 53 50 47 48 47 45 41 40 43 43 49 45 44 45 49 50 48 46 44 42 46
7 6 4 3 2 2 2 3 5 6 9 12 16 19 24 27 29 36 37 44 44 47 49 51 47 47 47 43 41 42 44 42 46 48 44 51 50 45 48 48 49 37 41
10 11 10 8 6 6 7 8 8 8 9 11 12 13 16 19 25 26 30 35 35 36 39 42 40 43 42 39 38 39 39 40 43 47 51 50 53 52 49 48 46 45 44
16 14 14 14 13 13 14 14 14 14 16 15 16 17 18 20 21 23 24 26 26 26 29 34 34 36 35 34 37 38 41 43 47 50 47 53 51 49 53 51 50 49 50
22 20 17 17 19 21 21 20 21 22 23 23 23 24 24 25 25 25 26 28 31 31 32 32 33 35 37 37 39 42 45 47 46 49 55 49 58 56 49 44 46 47 46
10 19 23 22 20 22 25 27 27 28 28 29 29 28 28 29 28 28 30 32 34 35 36 37 39 40 41 41 43 45 47 49 49 51 52 56 56 59 56 57 47 49 54
17 14 14 17 22 28 28 27 26 28 31 32 34 34 33 31 30 32 34 37 38 38 39 40 41 41 41 43 44 47 50 53 53 54 56 57 57 56 59 57 52 56 55
24 27 28 27 23 23 27 30 31 32 32 32 32 35 37 33 36 36 36 39 40 40 42 42 44 43 44 46 48 50 53 55 54 53 48 50 58 60 63 61 58 59 59
27 28 31 31 30 29 31 31 30 34 36 34 32 38 41 40 43 40 42 44 46 47 46 45 46 46 45 47 50 53 53 53 51 47 48 52 54 60 61 55 56 59 52
24 26 26 26 25 27 30 32 36 35 34 35 38 42 45 44 46 47 48 50 51 51 52 53 53 52 53 53 51 48 45 48 52 54 54 59 56 56 59 59 50 49 36
34 30 30 34 34 36 35 37 37 37 34 32 36 39 48 51 53 55 55 53 53 54 55 57 58 58 54 53 50 52 49 62 64 60 59 61 59 53 56 44 32 31 32
25 27 28 28 31 36 39 41 41 42 44 46 46 52 44 46 45 45 48 49 49 51 52 56 61 66 59 56 57 59 67 56 52 53 54 47 46 36 29 30 30 30 33
18 20 23 29 33 34 33 39 49 48 47 48 50 50 50 49 50 54 51 47 47 46 53 60 60 70 67 70 60 57 55 51 51 44 35 31 24 24 25 26 31 35 38
23 24 25 26 27 28 30 33 34 34 38 41 44 49 48 51 53 58 67 48 59 53 56 64 66 54 49 43 36 44 40 34 27 22 21 22 25 27 31 34 36 38 38
29 29 29 29 28 28 30 32 33 34 36 37 39 43 50 51 53 59 63 55 57 54 48 45 36 34 30 30 23 15 13 14 18 23 27 30 33 35 37 38 39 41 42
34 35 34 34 34 29 28 27 28 31 35 34 36 31 28 31 39 31 26 26 27 23 22 19 13 11 11 12 13 15 18 21 25 28 30 32 34 36 38 40 42 42 43
32 31 30 30 28 24 24 26 26 25 20 21 19 22 24 24 21 20 13 11 18 12 12 11 12 14 16 18 20 23 25 26 29 31 34 37 38 38 37 37 38 39 40
26 24 22 22 23 25 25 23 24 25 27 27 24 19 14 15 13 11 11 13 12 11 14 16 17 19 22 24 26 27 28 30 32 33 33 33 33 34 35 35 36 36 37
23 24 23 21 19 19 18 18 18 18 19 18 15 13 11 10 10 11 12 13 15 17 19 20 21 22 24 26 28 29 28 28 29 30 31 32 33 34 35 35 34 34 35
19 19 19 16 14 12 12 12 13 13 13 13 14 14 14 14 15 16 17 18 19 20 22 25 26 26 26 26 27 27 28 28 28 28 28 29 30 30 31 31 32 33 33
16 15 14 12 12 12 12 12 12 12 12 13 13 14 15 17 19 21 22 23 23 24 23 22 22 23 23 23 24 24 25 25 26 28 29 30 30 30 31 30 30 30 30
10 10 9 9 10 11 14 16 17 18 19 18 18 18 19 20 21 22 23 22 23 23 22 21 22 22 22 22 23 24 25 26 27 27 28 28 28 28 28 28 27 26 25
12 13 13 15 16 17 18 19 20 21 22 22 23 23 22 21 21 20 19 19 20 21 21 21 22 22 23 24 25 26 26 26 27 27 26 26 25 25 25 24 23 22 21
16 17 17 18 18 19 20 20 21 21 21 21 22 21 21 21 21 22 23 22 22 24 24 24 25 27 27 27 27 27 26 26 26 25 24 23 23 23 22 20 19 18 17
18 19 19 19 19 19 20 20 20 20 20 21 21 21 21 21 20 21 22 23 23 23 24 25 25 25 24 24 25 25 25 25 24 23 21 21 20 19 17 17 16 15 15
18 18 18 18 18 18 18 18 18 18 19 20 20 20 21 22 22 23 24 24 24 25 25 25 24 24 24 24 24 24 23 22 20 19 19 18 17 16 16 15 14 14 14

GFSGL_700_spd_078.txt.gz
Wind_Speed
4 4 4 6 7 6 7 11 13 15 16 14 24 28 29 29 22 28 32 40 48 48 50 51 50 47 44 44 44 37 40 44 49 46 46 42 40 39 41 42 44 46 47
5 5 3 3 4 6 7 8 10 10 12 14 20 22 26 25 27 32 36 33 34 39 42 48 45 45 44 43 45 47 48 44 51 52 46 43 43 42 43 48 51 49 52
8 8 6 5 4 4 5 7 7 8 10 13 16 19 21 22 25 30 32 35 39 39 40 40 41 47 45 47 51 53 49 51 53 54 50 46 46 45 44 46 46 48 43
14 13 12 11 10 10 10 10 11 13 13 13 14 16 17 19 23 26 29 30 32 34 38 40 39 43 41 43 46 46 46 49 48 50 49 47 46 50 49 47 50 48 49
11 17 17 17 17 18 17 17 17 19 19 19 20 21 21 22 23 24 25 28 31 34 35 34 34 36 37 37 42 40 42 46 46 48 51 51 52 53 53 49 54 49 54
10 12 14 15 16 18 20 23 24 24 25 25 26 27 27 26 27 28 30 32 33 34 35 37 37 38 39 40 42 43 45 48 50 53 54 56 57 56 57 53 52 55 53
19 19 18 17 17 16 17 17 19 22 27 29 30 32 32 31 32 32 34 37 39 40 40 41 42 42 43 45 46 47 49 52 55 56 59 58 58 56 54 62 56 53 52
17 19 22 24 25 25 25 23 24 24 22 22 26 31 33 34 36 38 40 42 43 44 45 46 47 46 47 47 48 50 52 56 58 58 58 58 57 58 62 65 65 64 75
24 26 29 27 28 29 29 30 30 31 30 27 26 27 27 29 34 37 39 43 46 46 46 49 51 51 50 51 52 52 54 56 58 59 59 60 65 70 69 60 71 64 68
17 20 23 25 26 28 27 26 28 29 34 33 31 34 43 40 35 34 34 36 40 44 48 50 53 57 57 56 56 56 58 59 62 64 67 71 69 69 63 65 75 69 61
23 25 29 31 30 32 35 35 34 35 38 40 40 37 39 40 38 46 49 51 50 43 47 47 51 56 57 57 58 58 59 62 65 70 73 76 75 75 74 59 57 56 52
14 17 21 25 30 33 31 33 37 42 44 43 43 43 45 47 51 47 47 53 48 50 52 57 58 56 59 59 60 60 60 67 69 70 78 61 58 48 46 44 38 32 28
18 19 19 19 20 19 21 25 29 33 34 36 41 45 45 47 50 50 54 53 52 54 58 54 63 61 64 64 64 66 70 66 56 44 39 40 41 37 28 22 22 23 26
19 20 21 23 25 26 28 28 29 28 27 29 32 35 34 39 43 48 51 50 50 55 57 53 57 58 59 61 55 44 37 33 29 23 19 16 16 18 22 25 27 29 32
24 25 26 27 29 30 32 33 32 32 31 29 29 30 31 37 40 45 52 48 52 42 35 34 35 37 32 24 18 16 15 15 15 15 18 21 23 25 26 28 30 32 34
27 28 29 29 29 31 31 30 30 30 29 28 27 27 28 29 30 31 30 29 26 22 20 17 16 15 14 13 12 13 14 17 19 20 23 27 27 28 31 31 32 33 34
26 28 30 30 31 30 28 27 27 28 28 28 28 28 27 27 23 22 20 18 15 12 11 11 11 11 12 13 15 18 20 23 22 23 26 28 29 29 29 31 32 33 34
24 24 25 25 26 27 28 28 28 26 24 22 21 19 17 14 14 13 12 12 12 13 13 14 15 17 19 21 22 22 24 27 29 28 27 27 28 27 28 29 30 31 32
21 20 21 22 23 23 23 21 20 19 17 16 15 14 12 12 11 12 13 14 15 16 18 19 20 21 22 24 26 26 25 24 24 24 25 26 27 28 28 28 29 29 29
22 21 20 19 18 18 18 18 17 16 15 15 15 14 14 14 14 15 15 16 18 20 23 24 23 23 23 22 21 22 23 23 23 24 24 25 25 25 25 25 25 26 27
17 17 17 16 15 15 15 14 14 14 14 15 16 17 19 21 21 21 21 21 21 22 22 22 22 22 22 22 23 23 23 24 24 24 24 24 24 24 25 24 24 25 25
13 12 13 14 14 15 16 17 17 18 19 20 21 21 22 22 23 23 22 21 20 19 19 19 20 20 20 20 21 22 22 22 23 23 23 23 22 22 23 22 22 23 22
14 14 14 15 16 17 19 20 21 22 23 23 22 22 21 21 22 22 22 21 20 21 21 21 21 21 21 22 22 22 22 22 22 22 22 22 22 22 21 21 21 21 21
17 18 18 19 19 19 20 20 21 21 21 21 21 21 20 21 21 20 20 21 21 21 22 22 22 22 23 23 23 23 23 23 23 22 22 22 21 20 20 20 20 19 18
19 19 19 20 20 20 21 21 20 20 20 20 19 19 19 19 21 22 21 22 22 23 23 23 24 24 24 24 24 24 24 23 23 22 21 20 20 19 19 18 18 17 17
19 19 19 19 19 19 18 19 20 20 21 20 21 21 22 22 23 24 24 25 25 25 25 25 26 25 25 24 24 24 23 23 22 21 20 19 19 18 17 16 16 15 15

GFSGL_700_spd_081.txt.gz
Wind_Speed
6 5 5 5 6 9 15 18 17 17 17 22 27 24 24 23 26 31 28 33 37 39 38 39 41 43 47 50 49 49 42 39 42 42 39 37 40 38 40 41 44 46 45
7 6 6 4 4 5 8 12 16 17 16 16 21 27 31 28 30 28 30 25 33 40 39 46 51 50 52 52 51 51 46 48 48 48 42 45 49 48 49 47 46 46 46
10 8 7 6 4 4 5 5 8 10 12 15 18 20 22 31 34 34 34 36 39 39 39 38 37 43 46 46 47 48 48 48 48 52 53 50 51 50 48 48 47 48 49
15 13 12 11 10 8 7 8 9 9 10 11 13 14 16 19 22 26 30 32 35 34 33 35 39 43 43 44 45 45 45 49 51 56 58 54 51 48 51 49 52 50 51
18 17 16 17 16 15 14 14 14 14 15 17 18 19 20 21 22 24 27 29 32 33 32 33 36 37 35 37 43 42 46 49 50 52 55 54 51 50 53 51 54 53 55
16 17 18 18 18 17 18 19 20 20 21 22 23 24 25 26 27 29 31 33 34 34 34 35 36 39 38 41 43 44 47 50 51 53 55 58 57 56 56 59 59 59 62
15 14 14 14 15 17 17 18 18 20 21 24 26 28 29 30 31 32 33 36 39 40 40 41 41 42 43 45 45 48 50 52 54 55 59 61 61 60 61 62 64 62 60
13 13 14 19 21 20 21 22 23 23 21 21 20 19 22 23 27 31 35 38 41 42 43 44 47 47 48 48 50 53 53 55 57 58 61 64 65 66 64 63 61 62 64
18 18 18 20 21 22 23 30 33 28 27 27 25 26 27 27 29 30 28 30 35 38 40 40 43 48 49 52 52 53 54 57 60 62 64 67 68 68 68 65 64 63 70
28 27 22 21 21 24 24 24 24 26 32 36 37 38 35 36 38 37 35 34 35 40 44 46 47 46 45 45 49 49 52 56 59 59 65 68 71 70 68 69 71 79 79
23 26 28 27 26 28 29 29 30 31 31 33 34 36 37 39 43 43 45 42 42 45 43 52 62 61 61 61 59 58 59 60 63 70 73 70 73 76 72 76 76 71 60
16 16 18 19 20 21 23 27 32 34 36 38 40 42 43 44 45 45 45 47 47 50 49 55 56 62 65 59 60 66 73 70 74 71 68 66 69 57 43 38 39 39 39
18 19 19 20 21 22 24 25 25 26 27 28 29 33 38 42 43 43 46 47 49 52 52 55 55 54 56 66 61 58 52 53 52 50 50 50 42 36 32 25 21 19 19
16 18 19 20 21 22 24 24 26 27 30 32 33 33 34 34 33 31 35 42 44 48 52 55 52 51 50 49 50 46 42 34 31 32 30 26 23 20 20 20 21 24 25
17 18 20 21 22 23 24 25 26 27 27 28 29 31 31 33 34 36 38 38 38 37 35 35 35 30 26 24 22 21 19 18 17 18 18 19 21 23 25 27 28 30 31
18 20 21 22 24 24 24 24 24 25 25 25 27 29 31 33 33 33 32 31 29 28 26 24 20 19 18 16 15 14 14 15 17 20 22 25 27 29 30 31 32 32 32
20 21 22 23 23 24 23 23 23 23 24 25 24 25 26 27 27 26 25 24 24 22 18 17 16 16 16 16 17 18 20 23 25 27 28 29 31 32 32 31 30 30 30
22 22 22 22 22 22 23 23 23 22 22 22 22 22 21 19 18 17 17 17 17 17 16 17 17 18 19 20 21 23 24 27 28 29 29 28 27 27 27 27 28 29 29
21 21 21 22 22 22 22 22 22 21 20 20 20 19 18 18 19 18 18 18 19 20 20 21 21 23 26 28 28 27 27 26 25 25 25 25 26 26 27 27 27 27 27
21 21 21 20 20 19 19 18 18 19 19 18 18 18 18 18 18 19 20 21 23 24 25 25 27 27 27 26 26 25 25 24 24 24 24 25 25 25 25 25 25 25 25
17 16 16 16 16 16 16 16 17 17 18 18 19 20 21 21 22 23 23 23 24 24 25 25 25 24 25 26 26 25 25 25 25 25 25 25 25 24 24 24 24 23 22
14 14 14 15 16 16 17 18 19 20 21 22 23 24 24 24 24 24 24 24 24 24 24 23 23 23 24 24 23 23 23 24 24 24 24 23 23 23 22 21 20 20 19
15 16 17 17 18 19 20 21 21 22 23 23 24 24 24 24 24 24 24 24 24 24 23 23 23 24 24 24 24 24 24 24 23 23 23 22 21 21 20 19 19 18 17
17 18 19 20 20 21 21 22 22 23 23 23 23 23 23 23 23 23 23 24 24 24 24 25 25 25 25 26 26 26 25 25 25 24 23 22 21 20 19 18 17 17 16
21 22 22 22 22 22 22 22 22 22 22 22 22 23 24 24 24 24 24 25 25 26 26 27 28 28 28 28 28 27 26 26 25 24 23 22 21 19 19 17 16 16 15
22 22 22 22 21 21 21 21 20 20 20 20 21 21 22 23 24 25 25 26 26 27 27 28 28 29 29 30 30 29 27 26 25 24 23 22 21 19 18 17 16 15 15

GFSGL_700_spd_084.txt.gz
Wind_Speed
7 5 3 2 5 9 13 13 14 16 17 21 25 27 24 27 26 21 21 24 22 32 34 33 41 40 37 38 36 42 43 43 48 48 45 40 34 41 35 35 35 42 42
12 9 7 5 5 6 11 14 15 15 13 15 18 25 28 27 26 24 30 34 29 30 33 34 32 35 36 38 39 41 42 46 52 57 48 48 40 38 40 42 44 48 50
14 13 11 9 8 9 9 11 12 14 14 14 15 19 24 25 28 29 30 29 30 27 26 27 29 34 39 41 43 46 48 51 51 52 50 47 47 46 46 49 48 50 50
17 16 14 13 11 10 10 9 9 9 10 12 13 15 18 22 25 28 32 32 33 33 33 35 37 39 41 42 44 46 47 51 52 55 56 53 51 50 53 53 51 49 49
20 18 17 16 14 12 11 10 11 11 12 12 13 14 16 18 20 23 27 31 34 36 35 35 36 37 37 38 40 41 44 48 52 55 57 56 54 52 51 49 54 50 52
18 19 19 19 18 16 15 15 15 15 15 16 17 18 20 21 23 25 27 30 32 33 34 34 36 38 40 42 44 45 46 50 50 50 53 56 55 54 54 56 58 58 60
15 14 14 16 18 18 17 17 19 19 19 20 22 24 25 26 28 28 30 32 34 35 36 37 39 41 41 42 44 46 47 48 51 53 57 57 59 57 58 59 59 60 63
16 13 17 15 15 14 14 16 18 18 16 16 18 19 20 26 28 29 31 32 34 35 37 39 42 43 44 46 48 50 50 52 56 56 55 58 61 63 61 61 61 61 63
13 13 13 14 22 24 24 26 25 24 26 27 26 27 26 28 28 26 23 23 26 26 28 33 33 36 39 37 40 42 44 49 51 50 55 57 59 62 61 59 59 61 67
13 15 17 20 23 21 19 21 22 25 26 28 32 37 41 42 40 42 42 42 41 38 41 45 48 45 52 51 48 54 52 55 61 62 61 65 62 74 74 68 71 68 70
15 15 16 19 21 23 26 29 30 30 31 30 29 31 33 34 34 36 37 39 42 44 45 47 49 49 49 54 50 58 56 57 62 58 67 56 51 58 64 67 62 64 67
14 16 15 16 17 18 19 21 22 22 24 26 28 29 31 33 35 38 39 40 42 44 46 47 50 49 55 53 60 52 52 52 52 53 57 52 49 50 48 47 47 43 41
16 16 17 18 20 21 22 23 24 25 26 28 29 30 31 32 33 34 35 36 36 37 40 43 47 51 53 54 59 54 52 43 43 42 34 35 36 35 33 31 30 27 25
17 18 20 21 21 21 22 22 23 24 25 25 26 27 28 29 30 31 32 33 34 35 36 38 39 41 43 44 43 40 36 32 28 25 23 23 22 21 21 21 22 23 24
15 17 18 19 19 20 21 23 24 25 26 27 28 29 29 31 32 32 33 34 36 37 37 36 36 35 32 31 31 28 26 23 21 20 20 20 20 22 24 25 28 29 31
14 15 16 18 19 19 20 20 21 22 23 24 25 25 27 28 29 30 30 31 32 33 33 32 32 29 26 25 24 23 22 21 21 22 23 25 26 28 30 31 32 32 31
17 18 19 20 20 20 20 20 20 20 20 21 21 22 23 24 24 25 26 26 26 26 25 24 23 23 23 23 22 23 24 26 27 28 29 31 32 32 30 28 28 28 27
18 18 18 19 19 19 20 20 20 21 20 20 20 20 19 19 19 19 20 21 21 22 23 23 23 23 24 24 25 26 28 29 29 29 30 30 29 28 28 27 27 27 28
18 18 19 19 19 19 19 20 20 20 20 20 20 19 19 20 20 20 20 20 20 21 21 22 23 25 26 27 27 27 27 27 27 27 27 27 27 27 27 27 27 27 27
18 18 18 18 18 18 18 18 18 18 19 19 19 19 19 20 20 21 21 22 23 24 24 25 26 26 26 27 27 27 27 27 27 27 27 27 27 27 27 27 27 27 27
17 17 17 17 17 17 17 18 18 19 19 20 20 21 22 22 23 23 23 24 24 24 25 25 25 26 26 26 26 26 26 26 27 27 27 27 28 28 27 27 26 26 25
16 16 17 17 17 18 19 19 20 20 21 22 22 23 23 23 23 23 23 23 23 23 24 24 24 25 25 25 26 26 26 26 26 26 26 26 26 26 26 25 24 23 22
16 17 17 18 19 19 20 21 22 22 23 23 23 23 23 23 23 23 23 23 23 24 24 24 25 25 26 26 27 27 27 27 27 27 27 26 26 26 25 23 22 21 19
19 19 20 21 21 22 23 23 23 23 23 23 23 23 23 22 22 22 23 23 24 24 25 25 26 26 27 28 29 29 29 29 28 28 28 28 26 25 24 23 21 20 18
21 22 22 22 22 22 22 22 22 22 22 22 22 21 21 22 22 22 22 23 24 24 25 26 27 28 28 29 29 29 29 29 29 29 28 27 26 25 24 22 21 19 18
24 23 23 23 23 23 22 21 21 20 20 20 20 21 22 23 24 24 25 25 25 26 26 27 28 28 29 29 30 30 31 30 30 29 29 27 26 25 23 22 20 19 18

GFSGL_700_spd_087.txt.gz
Wind_Speed
11 8 5 4 6 10 13 13 14 17 19 18 18 24 26 17 23 18 19 25 18 21 26 31 33 31 37 35 38 44 47 47 47 47 41 42 44 42 45 42 37 36 39
13 11 8 6 5 9 13 15 14 17 19 21 23 27 31 27 23 20 23 20 26 24 25 31 39 36 32 33 34 39 35 43 47 43 41 43 44 46 48 44 42 40 42
16 13 10 8 8 7 10 14 15 16 16 16 17 20 25 27 27 28 22 21 25 25 28 26 28 30 29 30 30 31 32 34 39 44 45 45 46 47 49 48 47 48 51
18 16 13 11 9 9 9 10 11 12 13 13 14 15 18 22 26 23 27 29 31 28 27 30 30 31 33 34 35 38 41 45 46 49 50 49 49 49 51 52 52 50 48
21 19 16 14 11 10 9 9 10 10 10 10 11 11 13 15 18 21 24 26 26 28 29 31 32 32 35 36 37 36 38 42 42 43 47 48 47 49 53 50 53 51 51
24 22 20 18 15 12 10 10 9 9 9 10 11 12 15 17 18 19 21 22 23 24 25 28 32 35 35 35 37 39 40 45 49 51 52 53 53 54 51 51 54 56 59
23 22 20 20 19 17 16 15 15 16 16 16 17 17 20 21 21 22 24 25 27 28 30 33 35 36 37 40 40 42 44 46 49 51 54 55 57 56 55 55 54 53 57
14 16 17 18 19 17 16 16 16 16 15 16 17 18 21 19 19 21 23 27 29 31 34 36 35 34 36 38 39 39 41 45 47 44 49 50 53 51 54 55 58 60 65
30 20 19 20 20 20 19 18 17 19 19 20 21 22 24 25 22 23 23 21 24 26 27 29 31 34 37 34 39 36 43 48 52 53 56 52 54 56 58 60 59 67 64
26 21 19 19 17 16 17 17 17 18 21 22 25 29 31 33 33 33 35 36 37 41 36 42 46 42 43 43 45 47 51 55 55 56 54 57 50 53 59 55 56 61 57
18 18 18 19 21 21 22 26 29 28 28 27 26 29 30 33 31 32 32 34 39 43 46 47 47 48 47 50 48 50 48 52 50 52 55 53 55 54 55 53 52 50 49
14 11 11 15 16 16 18 20 21 23 25 28 30 31 31 30 30 31 31 31 32 34 36 38 40 42 43 45 47 49 50 51 51 51 48 44 43 43 43 43 41 38 37
10 10 12 14 14 14 16 17 19 20 22 23 25 26 28 29 29 30 30 31 31 31 32 33 34 36 37 39 40 41 41 41 41 39 38 36 34 33 32 31 30 29 28
12 13 14 15 16 18 19 20 20 20 21 22 24 25 26 27 28 29 30 30 30 30 30 32 33 35 37 38 38 38 38 37 34 31 28 27 27 26 26 25 25 26 27
11 13 12 14 15 16 16 18 18 20 21 22 23 24 26 26 27 28 29 30 30 31 30 30 30 31 32 32 32 32 30 28 26 26 25 25 25 26 26 28 29 31 32
9 11 13 14 15 15 16 17 19 20 21 22 24 24 25 27 28 28 29 29 29 30 30 30 30 30 30 30 29 29 29 28 28 28 28 28 28 29 30 31 32 32 32
15 15 16 17 17 18 20 21 21 21 22 23 24 25 26 27 28 28 27 27 27 28 26 26 26 26 26 26 27 27 28 28 29 30 31 31 31 31 30 30 29 29 29
16 16 17 18 19 19 20 21 22 22 22 23 23 24 25 25 25 25 25 25 24 24 24 24 24 25 25 26 27 29 30 30 30 30 30 30 29 29 29 29 29 29 29
14 15 16 17 18 19 19 19 20 21 21 21 21 20 20 20 20 20 20 21 21 22 23 23 24 25 26 27 27 28 29 29 30 30 30 30 29 29 29 28 28 28 28
16 16 17 17 17 17 18 18 19 19 19 18 18 18 18 19 19 20 21 22 23 23 24 25 26 27 27 27 28 28 28 28 28 28 28 28 29 29 29 29 29 29 28
16 17 16 16 17 17 17 17 17 17 17 18 18 19 19 21 21 22 22 23 24 25 25 26 26 27 27 27 27 27 28 28 28 28 28 29 29 29 29 29 29 28 28
16 16 17 17 17 17 17 18 18 19 19 20 20 21 21 22 22 22 23 24 24 24 24 25 25 26 26 26 27 27 27 27 27 28 28 28 29 29 29 29 28 28 27
18 18 18 19 19 20 20 21 21 22 22 22 22 22 22 23 23 23 23 24 23 24 24 25 25 26 26 26 26 26 27 27 28 28 28 28 29 29 29 28 27 27 25
21 21 21 21 22 22 22 23 23 23 23 23 23 23 23 23 23 23 23 23 23 24 24 24 24 25 25 26 26 27 28 29 29 30 30 30 30 29 29 28 27 26 25
22 22 22 22 22 22 22 22 22 22 22 22 22 22 22 22 22 22 23 23 24 25 25 25 25 26 26 26 26 27 27 27 28 29 29 29 29 29 29 28 27 26 24
22 22 22 21 21 21 21 21 20 20 20 20 20 21 21 22 23 24 24 25 25 25 24 24 23 22 22 22 23 23 24 25 25 26 27 27 28 28 28 27 25 24 22

GFSGL_700_spd_090.txt.gz
Wind_Speed
18 16 11 10 8 10 11 9 12 15 17 19 27 26 15 33 37 34 24 23 25 24 21 21 27 31 32 38 41 34 41 36 42 40 43 46 47 45 47 47 46 45 42
19 17 12 9 8 10 12 11 11 18 16 18 20 22 20 17 18 20 20 19 15 22 18 23 22 28 31 30 28 27 37 34 35 47 43 51 53 48 43 43 42 44 44
20 18 13 10 8 9 13 15 12 17 21 23 25 24 23 24 27 24 24 19 19 20 19 22 24 24 27 26 34 38 34 33 32 34 32 33 36 37 40 43 44 45 43
21 19 16 13 10 9 13 15 15 15 16 17 20 22 22 22 26 24 24 25 20 25 22 23 26 27 27 30 31 29 31 34 37 40 41 42 43 40 43 45 46 43 44
23 20 18 16 13 12 12 15 17 16 16 15 14 14 14 17 19 22 23 22 24 24 26 26 26 27 28 31 30 31 32 36 39 41 43 42 41 40 45 47 52 51 50
28 25 21 18 16 15 15 14 14 14 14 16 17 17 16 17 16 17 18 18 19 22 24 24 24 27 30 32 34 36 37 39 40 43 45 47 49 46 49 50 52 54 56
27 26 24 22 20 18 17 17 17 17 18 18 19 20 18 16 18 19 19 20 22 25 26 28 29 31 33 34 35 38 40 43 45 46 48 49 53 54 54 52 51 51 55
28 26 24 23 22 21 20 19 18 18 18 18 20 19 19 18 19 20 21 23 27 29 29 30 32 34 35 35 35 34 35 38 39 41 41 45 46 47 48 55 54 56 53
26 26 24 24 23 22 22 21 21 21 20 20 21 21 20 18 19 20 21 23 24 24 25 23 26 29 31 32 34 41 38 43 42 43 46 53 56 51 53 59 58 56 54
26 25 20 19 22 24 23 24 23 22 21 22 23 25 24 23 26 25 26 28 29 32 33 33 34 36 40 41 43 43 45 46 49 53 54 46 49 52 54 51 51 51 52
42 35 28 23 24 21 21 21 20 20 19 19 19 21 20 22 21 24 26 29 32 35 38 36 39 38 41 43 43 41 41 43 47 50 51 53 47 45 44 44 43 43 43
30 25 25 27 20 18 17 17 20 23 24 23 26 28 30 29 31 33 32 32 32 32 32 33 34 36 37 39 40 41 41 41 42 43 44 44 44 43 41 40 39 38 37
13 12 16 13 12 13 14 15 17 18 18 19 21 23 24 25 26 28 29 30 31 31 32 33 34 34 35 35 36 36 36 37 38 38 38 38 37 37 36 35 35 34 33
8 7 7 10 12 15 17 19 20 21 22 23 24 25 26 26 27 27 27 28 28 29 30 31 32 33 34 34 34 33 32 32 32 31 32 32 31 31 31 31 32 32 32
2 4 7 9 10 12 14 16 17 18 19 19 20 21 22 24 25 25 26 26 27 28 28 29 30 30 31 31 32 32 31 30 30 29 29 29 30 30 31 31 32 33 34
3 7 11 12 13 16 16 16 15 16 17 19 20 21 22 24 24 25 25 26 27 28 28 28 29 30 30 31 31 30 30 30 30 30 30 30 30 31 32 32 33 33 33
9 10 11 12 12 13 15 15 16 17 19 20 21 22 22 23 24 25 26 27 28 28 27 27 27 28 29 29 30 30 30 30 31 31 32 32 32 32 32 32 32 32 32
10 11 12 13 14 15 16 16 17 18 19 20 20 21 22 23 24 24 25 25 25 25 26 27 27 28 29 30 30 30 31 32 32 33 33 33 33 33 33 33 32 32 32
12 13 14 15 16 17 18 19 19 20 20 20 20 21 21 22 23 24 24 25 25 26 27 27 28 29 29 30 31 32 32 32 33 33 33 33 32 33 32 32 32 32 32
12 13 13 14 15 16 18 18 19 19 20 20 21 21 22 23 23 23 24 25 25 27 27 28 29 30 30 31 31 31 31 31 31 31 32 32 32 32 32 32 32 33 32
13 13 14 15 16 16 17 18 18 19 20 20 21 21 22 23 23 24 25 26 27 28 28 29 29 30 30 30 30 30 30 30 30 31 31 31 32 32 32 33 33 33 32
16 16 17 17 17 17 18 19 19 19 20 20 21 22 23 24 24 25 26 27 27 28 28 28 28 29 29 29 29 29 30 30 30 30 30 31 31 32 32 33 33 33 33
20 20 21 21 21 22 22 22 22 23 23 24 24 24 25 26 26 27 27 27 27 27 27 27 27 28 28 28 28 29 29 29 30 30 31 31 32 32 33 33 33 33 32
24 24 24 24 25 25 25 25 25 25 25 26 26 26 26 26 26 26 26 26 26 26 26 27 27 27 28 28 28 29 29 29 29 29 29 29 30 30 31 31 31 31 31
24 24 24 24 24 25 25 25 25 26 26 26 26 26 25 25 24 24 25 25 26 27 27 28 28 28 28 27 26 25 24 24 25 26 26 26 26 27 28 28 29 29 29
25 24 24 24 24 24 24 24 24 24 24 23 23 23 23 24 24 25 26 27 27 27 27 27 26 25 23 23 22 22 23 23 23 24 24 24 25 25 26 26 26 26 26

GFSGL_700_spd_093.txt.gz
Wind_Speed
28 25 18 17 22 18 15 13 13 13 15 15 19 22 24 33 35 46 38 38 36 34 38 48 34 32 40 41 39 45 45 37 43 43 40 41 44 34 40 41 42 42 43
28 22 17 16 20 15 13 11 9 8 10 10 19 18 27 34 38 41 41 39 37 35 30 27 22 32 32 34 31 32 31 35 38 35 33 37 33 33 41 45 47 44 44
28 21 17 16 18 13 11 10 8 8 13 12 16 21 18 16 23 32 32 31 20 18 16 22 25 26 23 25 27 25 28 30 32 36 34 28 27 29 32 35 36 37 36
26 21 19 16 17 12 11 10 10 9 11 14 19 16 17 15 17 17 23 24 22 20 21 24 22 22 19 23 24 24 27 32 34 33 33 33 32 32 37 36 36 36 36
27 24 22 19 18 12 11 12 13 14 16 16 18 19 17 17 22 25 25 24 23 25 20 20 20 20 23 25 26 25 27 30 33 33 34 35 34 36 37 38 39 40 45
29 28 25 22 20 16 13 15 15 15 17 18 18 17 19 21 20 20 21 21 21 19 23 23 22 23 23 25 27 27 29 32 34 36 36 41 40 42 43 44 46 46 48
32 29 27 25 24 20 19 18 19 20 20 20 20 18 16 14 14 15 17 19 20 22 23 25 25 26 26 27 31 32 35 35 37 38 42 43 47 47 47 47 47 52 51
31 29 27 26 26 25 24 22 22 22 22 22 22 20 19 19 19 20 21 24 25 25 26 26 28 29 29 30 32 35 37 40 40 41 41 43 41 39 41 39 44 47 50
30 29 28 28 28 27 27 26 25 24 24 24 24 24 23 23 24 25 26 27 29 30 31 32 33 32 28 23 26 34 36 38 37 37 43 44 46 47 47 48 53 46 52
29 26 27 28 29 29 28 28 27 27 26 24 24 24 25 24 23 21 20 21 25 27 29 29 31 32 31 34 35 37 35 39 44 45 47 49 49 45 51 48 50 44 46
33 33 35 31 28 27 27 27 26 27 27 25 25 26 25 25 25 25 22 25 28 29 31 30 33 30 34 40 43 38 44 42 45 45 44 49 49 50 47 46 45 43 42
38 37 34 28 37 32 28 28 31 29 29 26 22 25 24 24 25 26 30 31 31 33 31 35 36 36 38 40 37 38 40 42 43 44 44 43 43 43 44 43 43 43 42
15 13 25 29 33 30 23 24 28 13 22 22 24 26 27 26 24 24 24 25 26 27 28 30 31 33 34 35 36 37 37 38 39 40 41 41 41 42 41 40 40 39 38
8 5 4 4 8 11 14 15 19 13 13 14 17 19 21 21 22 22 24 25 25 27 28 29 30 30 32 33 33 33 34 35 36 36 37 37 38 38 38 38 39 39 39
5 10 9 4 3 4 3 2 7 11 14 17 17 19 19 20 21 21 22 23 24 26 27 28 29 30 31 31 32 32 32 33 33 34 35 35 35 36 37 36 36 37 36
7 4 5 7 8 4 6 8 9 11 13 14 15 18 20 22 23 22 22 23 24 25 26 28 29 30 30 30 30 31 32 32 33 33 33 34 34 34 35 34 34 35 36
7 8 10 10 8 7 9 11 13 16 19 23 24 25 23 22 24 25 25 26 25 26 27 28 28 29 29 30 31 31 31 32 32 32 32 32 32 33 33 34 34 34 35
6 7 8 8 8 8 9 11 13 14 17 18 20 21 22 23 24 24 25 26 25 26 26 27 27 28 29 30 30 30 30 31 31 32 32 32 33 34 34 34 35 34 35
10 10 10 10 11 11 12 13 14 15 16 18 18 20 21 22 23 23 23 24 25 26 27 27 28 28 28 29 30 30 31 31 32 32 33 33 34 34 35 35 35 35 34
11 11 12 12 13 14 15 16 16 17 18 19 19 21 21 22 23 24 25 26 26 27 27 28 28 28 29 30 31 31 32 32 33 33 34 34 34 34 34 34 33 33 33
16 17 16 16 16 16 16 17 17 18 19 20 21 22 23 24 25 25 26 26 27 27 28 29 29 30 31 31 32 32 32 33 32 33 33 33 32 32 32 32 33 33 34
21 21 21 21 21 21 21 22 22 23 23 23 23 24 25 26 26 27 27 27 28 29 30 30 31 31 31 31 31 31 31 31 31 31 31 31 31 31 32 32 32 32 33
24 24 25 24 25 25 25 25 25 26 26 26 26 26 27 27 27 28 28 28 29 29 29 29 29 29 29 29 30 30 30 30 30 30 30 30 29 28 29 29 30 30 31
25 24 24 24 24 25 25 25 25 25 26 26 26 26 26 26 26 26 26 26 26 26 27 27 27 28 29 29 30 30 30 30 29 27 26 26 26 27 27 27 28 28 29
24 24 24 24 24 24 25 25 25 25 25 26 26 26 26 25 25 25 25 25 26 26 27 28 29 29 29 29 29 28 26 25 24 24 24 25 25 26 26 26 26 26 27
26 25 25 24 23 23 23 23 23 23 24 24 24 24 24 24 24 24 24 25 26 27 27 27 27 27 27 25 24 23 23 23 23 24 24 24 24 24 25 25 24 25 25

GFSGL_700_spd_096.txt.gz
Wind_Speed
29 29 31 27 22 21 17 19 21 20 19 19 21 22 29 19 27 40 31 34 35 44 36 32 34 36 37 39 40 41 41 39 37 36 36 34 35 35 34 36 39 37 33
28 31 30 25 20 19 16 17 17 15 12 13 22 20 26 26 27 37 38 36 42 38 29 36 36 37 40 37 36 34 35 34 41 43 43 40 35 34 38 38 32 30 26
31 33 28 23 19 18 15 15 15 10 9 7 9 12 17 19 27 21 36 30 40 33 37 38 37 40 43 31 34 30 34 37 33 32 28 28 25 27 27 27 27 27 31
28 29 28 23 19 18 15 13 13 7 5 6 10 21 14 17 22 27 29 40 37 35 34 30 23 26 27 28 23 24 26 29 27 25 25 28 29 26 28 31 29 30 30
27 29 27 24 20 18 15 14 13 9 8 9 9 11 10 6 14 19 30 37 36 31 19 19 22 23 22 22 20 24 24 26 29 32 31 31 29 30 29 30 32 31 31
28 30 29 26 23 20 17 14 13 10 13 13 15 15 16 19 15 16 18 19 21 24 19 21 20 22 24 25 26 29 29 32 32 31 30 30 28 33 31 32 38 36 43
29 34 32 29 26 23 19 18 17 19 17 16 16 16 16 18 19 18 17 21 25 23 26 28 27 26 26 27 28 29 30 30 31 30 35 36 39 37 34 42 46 47 46
31 37 34 31 28 26 23 21 19 19 20 20 19 19 17 16 16 18 22 24 25 26 28 28 31 29 31 27 24 28 29 32 36 34 35 39 41 45 43 39 38 40 38
35 38 33 32 30 28 27 27 25 23 23 22 23 23 22 20 19 18 21 23 24 23 23 24 25 28 31 34 35 34 36 37 33 36 37 35 34 36 38 40 43 41 41
34 36 33 29 28 28 28 27 27 27 26 26 26 25 26 26 26 27 26 27 28 29 31 33 34 35 36 36 34 33 32 35 39 43 40 43 38 44 41 45 43 44 44
42 41 36 34 32 30 29 30 32 32 30 30 29 29 28 28 27 28 28 27 28 29 29 29 30 34 35 36 33 36 38 38 39 34 41 42 38 40 42 44 42 40 40
15 34 37 34 32 30 33 31 32 34 31 30 29 30 30 30 29 31 33 35 35 36 35 27 26 27 28 29 33 29 30 32 37 37 39 41 40 39 39 39 40 40 39
11 8 7 18 20 25 30 40 41 39 36 38 38 40 35 34 32 30 34 28 24 26 29 31 32 32 32 31 31 31 31 31 32 33 35 36 36 36 37 37 38 38 38
13 13 11 9 8 7 5 6 4 12 22 11 19 16 15 18 18 15 17 16 20 24 25 26 27 28 29 29 29 29 29 30 31 32 33 34 35 36 36 38 38 38 40
10 7 7 6 3 4 7 8 11 5 2 5 5 6 9 11 13 16 17 20 23 24 23 23 24 25 25 26 27 28 29 30 31 33 34 35 35 37 36 36 37 38 39
14 13 11 11 10 9 7 5 6 8 8 10 8 7 8 12 14 15 16 17 18 19 21 24 24 25 26 27 27 29 30 31 31 32 33 34 34 35 36 36 35 36 36
11 12 11 9 9 10 11 12 13 13 13 12 15 18 18 16 19 21 21 21 22 22 23 24 26 27 29 29 29 29 30 31 32 32 33 33 34 34 34 35 33 33 34
9 8 8 10 11 11 11 11 13 13 13 14 16 18 20 23 25 25 26 28 27 27 26 27 27 28 29 30 30 30 31 31 32 31 31 31 32 33 32 33 34 32 33
11 11 11 11 10 11 11 12 13 14 15 15 16 18 18 19 20 21 21 21 22 23 24 25 26 27 28 28 29 29 30 29 30 30 31 31 32 33 32 33 33 33 33
12 13 13 14 14 14 14 15 15 15 16 17 18 18 19 20 20 21 22 22 23 23 23 24 24 25 26 27 27 29 28 29 30 31 31 31 32 32 32 33 33 32 33
19 19 19 19 19 19 19 19 19 19 19 20 21 21 21 21 22 22 23 23 23 24 25 25 25 26 27 28 28 28 30 30 31 31 31 31 32 32 31 32 32 32 31
24 24 23 23 23 23 23 22 22 23 22 22 23 23 23 23 24 24 24 24 25 25 26 26 26 27 28 28 29 30 29 29 29 30 30 30 31 30 29 29 28 28 28
25 25 25 25 25 24 23 24 24 24 23 23 23 23 24 25 25 25 25 25 25 26 27 26 27 26 27 27 28 27 28 28 28 28 28 28 27 26 25 25 26 26 26
25 25 25 23 24 24 24 23 23 24 24 24 24 24 24 24 24 24 24 24 24 23 24 24 24 25 25 26 26 26 27 27 26 25 24 23 23 23 24 24 24 24 24
24 24 23 23 22 23 23 23 22 23 23 23 23 23 23 23 22 22 22 21 22 22 22 22 23 23 25 25 25 25 24 23 22 22 22 22 23 23 23 23 23 23 24
23 22 22 22 22 21 22 22 21 21 21 22 22 22 21 22 21 21 21 21 22 22 23 23 23 24 24 23 23 22 22 22 22 22 22 22 22 22 23 23 22 22 22

GFSGL_700_spd_099.txt.gz
Wind_Speed
29 27 25 23 26 25 25 24 25 24 23 24 24 24 23 27 28 31 32 34 40 39 42 45 42 47 42 38 35 33 34 30 31 26 30 33 29 32 28 26 30 24 26
32 27 24 24 25 26 26 22 23 20 21 21 19 19 25 23 24 27 31 33 38 39 42 39 45 41 42 41 40 38 39 40 39 40 32 32 32 30 32 33 29 32 29
28 28 24 25 30 28 23 22 18 17 18 18 16 19 25 26 29 22 26 33 29 30 35 42 40 37 35 32 39 44 42 49 39 39 40 38 35 37 37 35 31 28 23
27 29 29 30 27 25 22 20 15 14 15 13 11 10 10 20 24 23 22 31 34 30 34 39 38 33 35 40 43 37 37 33 35 32 32 33 30 32 32 30 32 28 30
22 23 23 23 27 25 23 19 14 13 15 13 8 12 2 10 11 21 21 23 34 30 41 35 33 41 39 33 30 28 30 30 30 29 32 32 27 27 30 31 30 30 29
26 21 22 27 27 27 24 20 15 14 17 13 10 9 7 3 8 20 18 25 33 37 38 35 39 43 23 26 28 27 29 31 32 33 34 32 31 34 34 31 29 31 35
21 21 19 20 30 26 24 20 16 15 16 17 15 15 15 13 12 9 13 20 30 36 37 35 30 31 24 29 28 28 28 28 31 32 32 34 33 33 30 31 37 37 38
26 25 19 21 30 27 27 22 19 16 16 15 14 12 11 11 15 15 15 18 20 22 23 26 26 24 25 27 25 29 30 29 30 31 32 31 32 31 34 37 39 40 39
27 27 27 28 29 31 28 27 23 21 23 23 22 22 21 21 17 17 20 23 21 21 23 22 26 28 29 27 26 29 26 27 25 29 33 34 32 37 37 37 34 39 37
32 30 31 30 31 32 33 32 28 26 24 25 24 24 23 19 16 16 17 18 20 22 25 29 28 28 23 23 27 29 32 33 35 38 41 40 41 43 38 40 39 40 39
21 31 35 33 32 32 32 30 24 23 23 23 26 28 28 28 29 28 27 27 30 31 30 31 34 33 32 34 37 41 41 41 38 39 43 43 43 39 39 37 40 37 37
8 8 18 30 33 33 31 31 31 29 29 30 29 31 31 30 30 32 34 35 36 37 35 36 37 36 37 39 38 40 39 36 41 40 34 31 31 32 35 37 37 37 36
19 18 15 9 3 16 29 35 31 35 39 35 34 32 31 31 31 32 32 34 35 39 40 41 39 37 35 32 31 30 29 30 32 31 31 30 30 32 33 34 36 36 35
16 16 15 12 12 12 10 7 8 12 13 21 18 22 32 26 32 21 23 23 21 22 22 19 20 20 21 22 22 23 24 25 27 28 29 30 30 31 33 34 34 35 35
15 14 14 14 12 10 8 7 4 2 2 1 1 2 1 2 5 7 7 9 10 11 12 14 15 16 16 20 21 22 23 24 25 26 27 30 31 31 31 32 33 35 37
13 13 13 12 11 11 10 9 9 8 7 5 4 3 5 7 7 8 10 9 10 12 12 12 14 15 17 19 21 22 23 24 26 27 28 28 30 31 31 32 33 34 36
11 10 10 9 10 10 9 9 9 9 9 8 9 11 12 12 12 12 13 14 18 18 18 19 21 22 21 21 21 22 23 25 25 27 29 30 31 31 31 30 31 32 34
12 12 12 11 10 10 9 9 9 10 11 11 12 12 14 16 18 20 20 21 20 21 23 24 24 26 26 25 24 24 25 26 25 26 27 29 29 29 30 31 30 32 33
16 16 15 15 14 14 13 12 12 11 12 12 13 14 14 15 14 15 15 16 17 18 19 19 19 20 21 22 21 22 23 24 24 24 26 28 29 29 30 31 31 32 32
18 19 19 19 20 19 18 17 17 17 17 16 15 14 15 17 17 17 18 18 18 18 19 20 21 21 21 22 22 22 24 25 26 26 27 29 30 30 31 31 30 30 31
23 22 22 22 22 22 22 22 21 21 21 21 21 20 19 19 20 20 20 21 21 21 21 21 22 23 23 23 24 24 25 26 27 28 28 29 28 28 29 29 29 29 28
24 23 24 24 23 23 23 23 23 22 22 22 23 22 22 21 22 22 22 23 23 23 22 22 24 24 24 24 24 24 25 25 26 26 26 26 26 26 27 27 26 25 25
25 24 23 22 22 22 22 22 22 22 22 22 21 21 22 21 21 22 22 22 23 23 23 22 23 24 24 23 23 24 23 22 24 24 24 24 23 23 23 22 23 23 23
25 24 23 23 22 22 21 20 20 20 20 20 21 21 21 20 20 21 22 21 20 22 20 20 21 21 20 20 21 21 22 21 21 21 21 21 21 21 21 21 21 21 21
25 25 23 22 21 21 21 20 19 19 19 19 19 19 19 18 18 18 18 20 19 19 19 19 19 20 19 21 20 20 20 20 20 20 20 20 20 20 20 19 20 20 21
23 23 22 22 21 21 20 19 18 17 18 18 18 18 19 18 18 18 17 19 19 18 18 19 20 19 19 20 20 20 20 19 20 20 20 20 20 20 19 20 20 20 20

GFSGL_700_spd_105.txt.gz
Wind_Speed
27 39 35 33 31 31 31 30 28 26 26 28 30 28 29 32 34 35 36 35 35 33 36 41 47 44 39 42 42 47 42 45 41 36 37 31 30 31 33 34 32 31 29
22 27 29 30 29 29 29 29 28 25 26 27 28 30 30 32 34 35 34 31 38 36 37 47 43 42 43 43 44 42 50 45 45 47 48 35 30 29 28 28 28 27 29
20 22 23 25 26 24 20 21 24 24 23 26 29 27 31 33 33 31 32 33 31 37 38 44 40 36 38 44 43 45 54 50 47 37 34 36 32 33 31 34 37 38 42
25 25 25 18 19 18 20 22 20 24 25 25 27 28 31 30 27 29 26 31 34 38 42 44 39 44 47 42 42 45 52 51 49 41 40 40 39 37 38 34 38 38 29
22 30 26 25 20 19 22 22 21 23 23 25 30 31 27 27 22 19 22 28 33 35 31 35 29 32 35 40 41 44 55 50 44 44 44 44 37 40 39 30 33 31 35
27 20 16 16 21 24 22 22 19 16 27 29 29 27 24 21 17 16 19 20 22 24 19 27 31 38 28 35 44 38 58 54 40 42 43 43 38 46 39 41 41 44 45
9 8 11 18 17 16 22 20 21 27 23 25 27 24 20 15 15 16 17 16 18 19 20 22 29 29 31 31 37 44 51 43 40 38 41 37 44 44 45 46 43 37 39
17 13 18 18 14 18 18 20 21 23 29 25 20 18 18 13 19 18 18 20 21 19 20 18 21 26 26 29 39 43 49 50 46 42 41 42 44 47 45 39 37 38 41
17 24 17 21 17 17 23 26 22 20 26 25 20 18 16 16 21 17 15 18 16 17 13 19 26 22 37 29 34 36 38 33 33 40 37 37 36 31 34 35 38 37 37
12 14 22 19 22 23 33 30 29 28 26 22 26 22 22 19 14 16 18 18 21 16 16 16 24 24 21 28 27 33 37 30 40 28 31 31 30 31 31 28 31 35 33
12 7 10 21 25 29 29 29 28 29 29 30 31 27 25 29 31 25 20 19 16 13 17 24 19 22 25 23 31 26 41 33 35 33 36 33 34 32 31 35 38 40 40
21 19 16 11 8 13 14 20 26 27 22 30 28 27 26 23 21 25 22 30 22 18 22 19 20 18 20 20 21 22 23 23 24 28 32 32 36 40 39 41 42 43 46
18 17 17 18 17 16 14 10 10 14 19 16 17 29 31 31 31 27 28 31 32 30 27 24 22 26 28 30 24 28 30 31 31 35 36 40 41 40 42 41 41 42 39
18 17 16 16 15 15 15 14 13 10 8 6 8 6 12 19 27 32 25 25 28 29 28 30 33 30 30 32 29 33 34 35 38 38 38 39 36 33 33 30 29 30 30
17 17 16 16 15 14 14 13 12 11 11 10 7 5 4 4 2 4 8 6 15 17 17 19 26 28 28 29 28 26 25 25 25 25 25 26 27 27 25 24 23 24 25
17 17 16 16 16 16 15 15 16 14 13 13 12 10 9 7 7 6 5 5 7 8 8 9 11 12 13 15 16 17 17 18 19 20 21 21 21 21 22 23 24 26 27
19 18 18 18 18 18 18 17 16 15 15 15 16 16 16 14 13 13 13 12 12 12 12 12 13 14 16 17 19 20 21 22 23 24 25 25 26 26 27 28 30 31 32
22 22 23 22 22 21 20 21 21 21 20 19 17 16 16 19 20 21 19 19 19 18 19 19 19 19 19 19 20 21 22 22 23 23 25 25 25 26 27 28 28 29 29
22 23 23 24 25 25 26 25 24 25 25 25 24 23 21 20 20 19 19 20 22 22 23 23 23 24 23 23 23 23 23 24 24 24 23 23 23 23 23 24 25 27 29
25 25 26 27 27 27 27 28 28 28 27 27 28 27 26 26 24 23 23 22 22 21 21 20 20 19 20 21 21 21 21 20 21 21 22 22 23 24 25 26 27 28 29
25 27 28 29 30 29 28 28 28 29 29 29 28 27 28 28 27 26 25 24 24 23 22 22 22 22 22 22 23 23 23 24 23 24 24 25 25 25 25 26 27 27 28
28 28 28 28 29 30 31 30 28 28 29 29 29 29 28 27 27 27 26 25 24 24 23 23 23 23 24 24 24 24 24 24 24 25 25 26 26 26 26 26 26 25 25
30 30 30 30 30 29 29 30 30 28 26 26 28 28 27 27 27 26 26 25 25 25 24 24 24 23 23 24 24 24 24 24 24 24 24 24 24 24 24 23 23 23 23
30 31 31 30 30 29 29 28 28 28 28 25 24 25 26 26 26 25 24 25 25 24 23 24 24 24 24 24 23 23 22 22 22 22 22 22 22 22 22 22 22 22 22
31 31 31 31 31 31 31 29 27 26 26 26 25 23 23 24 24 25 25 23 22 23 22 22 21 21 22 22 22 21 21 21 21 21 21 21 22 21 22 22 22 22 22
33 33 32 32 31 30 30 30 30 28 25 24 24 24 24 23 23 23 23 23 21 21 21 21 21 22 21 21 20 20 20 20 21 21 21 21 21 21 22 22 22 22 23

GFSGL_700_spd_108.txt.gz
Wind_Speed
29 31 32 27 33 32 33 32 32 32 32 37 35 31 31 29 29 31 32 34 35 38 38 38 37 35 33 36 34 36 42 35 33 34 40 40 45 44 36 36 36 37 36
24 31 30 32 36 34 30 33 33 32 34 34 29 28 29 26 28 30 32 34 36 37 36 38 34 32 35 42 39 39 38 40 41 37 42 39 33 37 38 39 37 38 39
17 19 24 32 32 31 28 28 30 32 30 29 24 27 25 28 31 31 32 33 35 37 38 36 39 39 41 37 44 45 40 43 40 45 45 45 45 39 43 41 39 40 39
10 14 20 22 26 28 26 30 25 25 28 29 25 22 24 26 28 28 30 32 33 35 36 37 36 39 41 42 44 48 45 46 41 38 49 47 48 45 46 40 39 39 41
22 20 24 22 23 27 24 27 24 21 25 25 23 22 24 25 25 27 29 29 26 27 27 32 39 40 43 41 50 44 41 38 42 45 53 51 48 40 47 44 43 43 43
8 19 19 26 34 24 24 12 18 23 21 21 19 21 20 20 27 29 27 27 27 24 24 28 29 27 29 37 37 35 45 41 47 44 53 51 48 43 43 43 47 52 49
13 14 16 18 20 26 21 16 19 20 20 18 13 15 19 26 27 23 20 22 22 26 22 23 24 22 22 27 27 34 29 38 41 44 48 49 45 45 45 46 50 50 44
8 4 5 13 13 12 16 16 19 20 21 19 22 29 23 20 18 18 20 24 26 26 22 23 21 25 23 24 31 31 35 34 37 36 49 48 39 49 48 47 46 46 47
4 15 12 4 12 14 14 11 18 18 21 20 25 23 25 22 18 17 21 25 25 22 19 20 17 18 16 21 25 30 33 28 43 44 47 42 35 38 38 36 42 46 49
3 7 11 20 16 16 15 15 23 24 22 27 30 29 28 22 23 19 21 18 18 21 22 21 14 12 12 11 13 18 30 41 40 48 34 41 45 48 47 38 40 44 42
26 23 17 9 13 17 21 20 21 25 29 33 35 32 29 28 30 27 25 27 24 23 21 16 17 16 13 18 17 20 25 28 32 40 49 34 38 32 40 43 38 36 33
24 22 20 20 20 18 14 10 12 15 20 24 27 26 18 29 31 28 31 31 34 32 29 23 23 22 19 19 20 17 23 29 23 27 40 36 41 33 40 37 35 36 36
22 22 22 22 21 20 18 18 17 16 15 13 13 18 21 17 15 23 24 29 28 30 28 33 30 24 26 22 22 25 24 22 23 30 28 26 28 34 34 36 39 38 41
21 21 21 20 20 19 19 18 18 16 15 15 16 15 13 11 13 16 17 20 25 30 34 33 31 30 34 35 29 29 29 29 30 30 34 34 35 36 38 40 41 42 44
21 20 20 20 19 19 19 19 17 16 16 15 15 14 14 14 14 11 9 9 9 7 9 8 13 17 21 26 29 32 31 30 31 31 32 33 33 35 36 34 32 31 29
20 20 21 21 20 21 21 22 21 20 19 18 18 17 17 17 16 16 15 14 13 12 11 11 9 7 7 10 12 14 16 17 20 20 21 22 23 23 24 24 24 23 23
19 20 20 21 22 23 24 24 23 22 22 21 21 20 19 19 19 19 20 21 20 17 16 16 15 15 15 14 14 15 16 16 17 19 20 22 23 25 25 25 25 25 24
21 21 22 23 23 23 24 25 25 26 26 26 26 25 24 23 22 22 21 21 22 23 24 22 21 20 19 18 18 18 19 19 19 20 21 21 21 21 22 22 22 23 24
23 24 25 27 28 29 30 30 28 27 27 28 28 28 28 27 26 26 25 25 24 23 23 22 23 22 22 23 23 22 22 21 22 22 22 22 22 22 22 23 23 23 22
26 27 27 28 29 29 30 31 32 32 31 30 29 29 29 29 28 27 26 25 25 25 24 23 23 23 22 21 20 19 19 18 18 18 18 18 18 19 19 20 21 22 23
29 30 30 30 30 30 30 31 31 32 32 32 32 30 29 29 28 27 27 26 25 25 24 24 24 23 23 23 23 22 21 21 20 20 20 21 21 22 23 23 24 24 24
33 33 32 32 32 32 32 32 31 31 31 31 31 30 29 28 28 27 26 25 26 25 24 24 24 24 24 24 23 23 23 23 23 23 23 23 23 23 23 23 23 23 24
36 36 35 35 34 33 33 32 31 31 31 31 30 29 28 27 27 27 26 24 23 23 23 23 23 23 23 23 23 23 23 23 23 23 22 22 22 22 21 21 21 21 21
37 37 37 36 36 34 33 32 32 31 30 29 29 29 27 26 25 26 25 24 22 21 20 21 21 21 21 21 21 21 21 21 21 21 21 21 20 20 19 19 19 19 19
37 37 37 36 35 34 34 33 32 31 30 29 28 28 28 27 25 24 24 23 22 21 20 20 20 20 20 20 19 19 19 19 19 19 18 18 18 18 18 18 18 18 18
39 38 37 36 35 35 34 32 31 30 29 29 28 27 25 26 25 25 24 24 23 21 19 19 19 19 18 18 18 18 18 18 18 18 18 18 18 18 18 18 18 18 18

GFSGL_700_spd_111.txt.gz
Wind_Speed
28 31 31 29 28 32 32 31 31 32 33 36 39 41 38 34 33 37 34 33 35 34 34 35 39 40 41 39 38 36 38 36 38 38 31 33 33 37 45 45 44 40 39
20 26 27 27 26 29 35 36 34 36 34 34 36 36 34 35 38 35 34 32 31 32 34 38 38 38 38 36 34 32 35 36 36 41 40 32 33 40 40 44 47 40 41
15 22 28 28 28 27 29 36 38 33 32 33 33 32 33 32 32 34 30 28 30 32 33 35 33 35 37 37 36 37 36 37 41 42 38 38 36 39 43 48 50 44 44
5 15 20 25 28 33 38 39 37 33 31 29 29 28 29 26 31 30 29 30 30 30 31 31 30 31 35 42 38 42 43 44 38 43 41 44 39 42 47 50 49 50 54
11 7 7 15 21 25 31 34 35 33 31 33 33 35 33 32 29 28 29 28 28 28 29 28 30 33 32 36 40 47 45 41 41 43 40 42 43 46 53 51 49 45 50
6 12 13 13 18 22 28 27 25 27 27 33 37 33 29 31 27 27 26 26 27 26 27 27 27 29 31 32 35 39 46 46 49 48 43 52 42 43 52 54 50 47 48
6 4 7 18 20 23 32 24 22 25 37 29 20 25 28 26 25 24 25 24 23 24 26 26 27 28 29 32 32 33 38 42 39 46 45 50 46 49 50 56 59 46 46
7 11 2 5 7 26 27 25 30 24 19 18 19 21 19 18 19 19 19 23 25 26 25 22 22 23 24 23 28 30 34 32 46 33 42 39 34 42 49 53 53 48 47
6 11 10 11 6 8 13 18 21 17 10 13 18 19 20 20 20 29 36 26 28 28 24 23 21 24 24 21 15 21 21 27 27 36 38 34 38 40 43 50 51 47 47
26 22 23 20 15 9 5 1 7 9 16 20 19 20 24 26 24 26 27 26 26 28 24 23 24 22 22 16 21 21 24 29 32 31 36 25 41 32 42 43 39 40 47
29 27 24 24 23 24 22 14 13 12 13 15 15 18 25 29 32 31 37 32 26 31 27 27 25 26 22 20 21 17 11 14 15 16 29 36 38 37 32 33 35 44 42
26 25 25 25 25 25 24 23 21 19 16 13 12 12 15 19 22 24 29 30 34 35 37 37 33 26 22 21 22 22 22 23 24 30 25 23 27 35 42 37 40 45 50
24 23 24 24 23 23 22 21 20 20 19 17 16 15 14 12 13 17 19 21 24 29 34 37 35 27 34 27 25 26 27 29 30 25 24 29 28 26 43 40 42 42 38
20 20 20 19 19 18 18 19 19 19 18 18 18 17 17 16 15 14 14 13 15 18 20 25 26 25 28 30 32 32 30 32 32 35 31 33 33 31 30 32 33 36 37
19 20 19 18 18 17 17 18 18 18 18 17 17 17 17 17 17 17 16 15 14 14 14 15 16 15 17 22 21 25 25 26 30 31 31 31 32 35 35 35 34 33 34
19 18 19 20 20 21 21 21 21 21 21 22 21 20 20 20 19 18 18 19 19 18 16 15 15 16 15 14 14 14 15 14 13 14 15 17 20 21 23 24 24 24 24
20 20 20 20 21 21 22 23 23 22 22 22 23 23 23 22 21 22 22 21 20 20 21 21 19 16 16 17 16 16 16 16 15 14 14 14 14 15 16 18 19 21 22
22 23 24 24 25 25 25 25 24 24 23 24 24 24 25 25 25 24 24 24 23 23 22 22 21 21 21 20 19 19 19 19 19 19 19 20 20 20 21 21 21 20 20
24 25 25 26 27 27 28 29 29 29 28 29 29 29 27 27 26 26 25 24 25 24 24 23 22 23 22 20 20 21 22 22 22 21 21 21 21 20 20 20 20 20 20
27 28 29 30 31 31 31 31 31 31 31 30 30 29 29 28 27 26 26 25 24 24 24 23 23 23 22 22 22 20 20 19 19 19 19 19 19 19 17 17 17 16 17
31 33 33 34 35 35 36 36 35 34 33 32 31 30 29 28 27 25 24 23 23 22 22 22 22 21 21 20 21 21 21 20 19 19 19 18 18 18 18 18 18 18 19
34 35 36 37 37 38 37 37 36 36 34 33 32 31 30 28 27 25 24 22 21 21 21 20 20 20 20 20 20 19 19 19 19 19 19 19 19 19 20 20 20 20 21
36 37 38 38 38 38 37 36 35 33 32 31 30 29 29 28 27 25 23 22 20 19 19 19 19 19 19 19 19 19 19 19 19 19 19 20 20 20 21 20 20 19 19
37 38 38 38 38 37 36 34 33 32 31 29 29 28 27 27 26 25 23 22 21 19 18 17 17 18 17 17 17 17 17 17 18 18 18 18 18 18 18 18 17 17 17
39 39 38 37 36 35 34 33 32 31 30 29 28 27 26 25 24 24 23 22 21 20 18 17 16 16 16 16 16 15 15 16 16 16 16 16 16 16 16 16 16 16 15
40 39 38 37 36 35 35 34 33 32 31 30 28 27 26 25 23 22 22 22 21 20 18 17 16 15 15 15 15 15 15 15 15 15 15 15 15 15 15 15 15 15 15

GFSGL_700_spd_114.txt.gz
Wind_Speed
20 25 36 43 43 45 47 41 36 39 40 43 47 46 44 44 40 39 41 41 40 38 40 39 38 41 39 37 37 39 43 43 42 39 41 35 34 37 33 31 45 49 49
17 23 27 28 32 37 37 35 33 32 38 37 38 39 42 44 43 45 44 40 39 40 40 37 36 36 34 35 38 42 43 38 37 38 36 37 35 33 31 38 42 49 53
12 20 25 31 25 27 30 31 29 26 32 33 32 35 38 40 43 43 39 38 39 42 36 32 30 30 34 37 38 35 35 38 37 40 36 39 36 36 37 39 37 47 52
6 19 21 23 25 25 29 34 35 36 34 36 35 35 36 39 39 39 39 41 42 36 32 32 32 34 35 35 36 35 38 37 44 40 41 42 40 39 40 40 39 45 53
7 14 17 20 25 25 27 27 31 33 36 37 37 37 37 39 38 35 35 34 36 35 33 33 33 34 34 34 35 35 34 35 41 39 43 44 46 42 43 41 41 44 55
3 11 12 23 19 26 28 30 34 35 37 36 34 32 32 32 34 38 39 43 35 36 33 33 34 33 33 33 34 37 37 36 40 45 54 53 48 44 40 46 47 50 51
10 7 12 14 14 25 29 44 39 32 32 33 32 29 30 34 36 37 42 32 38 35 33 32 32 33 31 33 34 32 35 35 39 38 46 49 48 44 48 42 49 48 50
21 15 9 6 6 5 26 24 30 33 36 37 32 30 38 31 32 30 35 34 33 32 33 31 31 29 30 31 29 30 28 33 37 44 39 43 53 46 47 40 46 44 49
29 25 20 16 17 11 6 5 14 19 23 24 24 21 26 27 23 24 25 28 26 26 28 31 32 31 30 31 30 29 29 30 26 29 34 42 45 43 47 36 44 43 49
34 33 30 28 26 18 16 18 14 9 2 3 15 19 24 23 26 26 25 26 27 30 35 35 35 33 32 31 29 32 32 27 29 31 25 31 35 44 45 50 43 45 38
32 30 29 29 28 29 28 26 24 19 17 14 7 5 7 10 15 19 24 28 31 32 35 35 39 31 35 36 30 31 27 28 24 24 20 20 28 36 32 37 38 39 43
27 25 25 26 26 26 25 25 24 23 22 20 19 17 15 12 11 12 16 18 22 27 27 29 35 34 37 36 33 31 28 32 29 29 30 27 25 27 29 34 41 46 40
24 23 23 24 23 22 21 21 20 19 18 17 17 17 16 15 14 13 12 13 14 15 18 22 26 28 28 34 41 43 40 37 32 30 33 30 25 24 18 28 36 39 42
21 21 21 20 20 20 20 19 19 18 18 18 18 17 17 17 16 16 16 16 17 17 17 16 17 18 20 25 26 27 29 36 34 34 35 33 31 30 27 27 33 38 40
19 19 18 18 18 18 19 20 20 20 20 20 20 20 19 19 19 18 18 18 18 18 19 19 18 18 17 17 18 21 23 24 25 28 30 27 28 30 31 32 35 38 34
20 20 20 20 20 21 21 20 20 20 21 22 22 22 22 22 23 23 24 24 23 23 22 22 21 21 20 19 19 18 17 17 17 17 18 19 19 18 21 23 25 25 25
23 23 23 24 24 25 25 25 26 26 25 25 25 25 26 27 27 27 27 28 28 27 26 25 25 23 22 22 22 20 19 19 18 17 17 16 15 16 16 18 17 18 18
24 24 25 26 26 27 27 28 29 30 29 30 30 30 30 31 31 31 31 32 31 30 30 28 27 26 26 25 24 24 24 23 21 21 20 19 20 20 19 19 20 20 21
26 28 29 29 30 31 32 33 34 34 35 35 35 35 35 34 33 33 32 32 31 31 30 29 29 28 27 26 26 25 24 24 24 24 24 23 21 21 21 21 20 19 19
30 31 32 33 34 35 36 37 37 38 38 38 37 36 35 35 34 33 32 31 30 30 29 28 28 27 27 26 26 25 25 24 23 22 21 21 21 21 21 21 21 21 20
34 34 36 37 38 40 41 41 41 40 38 37 35 33 32 31 30 30 31 30 28 27 27 26 26 26 25 25 24 24 24 23 23 22 21 21 20 19 18 18 17 16 16
36 37 38 39 40 41 41 41 41 40 38 37 35 33 30 29 28 27 26 26 26 25 25 24 24 24 23 23 23 23 23 22 22 22 21 21 20 20 19 19 19 18 18
38 39 40 40 41 41 40 40 38 37 36 35 34 32 31 29 28 27 26 25 24 23 23 22 22 21 21 21 21 21 21 21 21 21 21 21 20 20 20 20 20 19 19
41 42 41 42 41 40 39 38 37 37 36 35 34 33 31 30 28 27 26 25 24 23 22 21 20 20 20 20 19 19 19 19 19 19 20 20 20 19 19 18 18 18 18
42 41 41 41 40 39 38 38 38 38 37 36 35 33 32 30 28 27 26 24 23 23 22 21 20 19 19 19 18 18 18 18 18 18 17 17 17 17 17 16 16 16 16
42 42 41 40 40 41 41 41 40 39 38 37 35 34 32 30 28 27 25 24 23 22 21 20 19 18 18 18 18 17 17 16 16 16 16 16 15 15 15 15 16 16 16

GFSGL_700_spd_117.txt.gz
Wind_Speed
25 26 25 25 30 37 46 46 45 46 44 43 40 41 44 45 52 53 50 49 46 44 44 41 43 40 42 44 42 41 43 41 43 37 39 38 36 36 31 33 35 32 32
21 20 15 15 21 31 39 39 41 43 42 36 36 35 37 40 45 49 50 49 47 42 45 45 37 44 43 44 38 41 40 37 37 40 39 38 37 34 34 34 36 39 39
12 13 11 13 23 31 36 35 36 36 37 35 34 33 33 40 43 48 47 50 47 44 45 39 43 45 44 41 34 35 35 36 36 35 37 38 39 36 35 32 34 38 38
7 11 15 18 24 26 31 34 29 33 36 32 33 35 36 41 46 46 47 48 47 47 42 39 49 45 40 42 36 33 37 37 38 39 42 42 42 42 41 37 38 38 41
9 2 20 23 22 24 22 26 30 30 30 31 33 35 37 39 40 41 42 46 48 47 45 48 48 46 43 37 37 38 38 38 39 40 41 41 41 42 46 42 40 43 43
15 11 9 21 30 25 23 22 23 28 31 31 30 31 30 30 34 38 44 45 43 42 46 42 40 39 38 37 39 39 37 38 38 40 42 42 43 42 39 43 49 46 46
29 26 19 12 7 18 23 24 26 27 30 33 36 41 40 35 36 37 35 36 37 40 41 41 39 36 37 39 38 37 37 38 39 37 39 40 40 37 44 48 46 46 49
28 29 26 22 17 13 9 15 29 30 33 30 33 34 38 37 32 32 37 33 31 37 47 46 44 44 43 38 37 36 37 37 35 36 37 36 37 37 43 45 44 45 42
35 36 35 31 28 26 21 14 5 9 6 10 12 19 26 28 36 33 37 42 43 43 35 36 38 38 39 35 34 37 37 36 35 36 36 39 38 39 42 39 41 46 48
34 35 33 32 32 35 33 26 22 20 19 16 8 4 2 13 25 23 33 31 29 29 28 31 34 35 34 36 34 34 36 36 37 36 37 35 31 28 34 43 41 47 41
31 30 29 29 30 31 30 29 29 28 26 24 21 18 15 11 10 7 8 10 14 21 29 32 33 35 35 32 35 38 37 39 39 38 34 32 32 29 29 28 29 37 49
28 27 27 28 28 27 28 27 26 25 23 22 20 18 16 16 15 13 14 17 17 17 16 18 22 25 27 32 35 36 38 39 39 36 36 35 37 36 34 31 24 30 44
25 24 25 25 24 24 24 24 23 23 22 22 21 21 19 18 17 16 15 15 14 14 14 15 16 18 19 22 26 32 36 35 39 40 42 43 40 39 35 34 30 23 31
22 22 22 22 24 24 23 22 22 21 21 21 21 21 22 22 21 21 21 19 19 20 20 21 20 20 20 21 22 23 24 26 27 30 32 35 39 38 37 33 32 29 30
22 23 23 24 24 23 23 25 25 26 26 26 26 25 24 24 24 24 22 22 24 24 24 24 25 25 25 24 23 23 23 23 23 23 24 27 27 27 30 31 32 31 30
22 22 23 24 25 25 26 26 25 26 28 28 29 30 32 33 32 32 32 32 31 30 29 30 30 30 29 28 27 27 26 25 24 23 23 21 21 21 22 23 25 27 28
24 26 27 27 27 27 27 28 28 30 30 31 32 32 33 33 34 35 35 35 35 36 36 35 34 33 32 32 31 30 29 28 26 26 24 22 22 21 20 19 19 19 20
26 26 27 28 29 30 30 31 32 33 34 35 35 36 37 37 37 37 38 38 38 37 38 37 37 36 35 34 32 31 31 30 29 28 27 26 24 23 22 21 21 20 19
29 32 33 34 34 34 35 35 36 37 37 38 37 36 37 37 36 35 35 36 38 38 38 38 36 35 34 34 33 32 31 30 30 29 28 27 27 26 25 24 23 23 22
32 34 35 36 37 38 39 40 40 41 40 40 39 36 34 33 32 31 31 31 32 33 34 35 35 34 33 32 32 31 31 29 29 28 27 26 26 25 25 26 24 23 23
35 37 39 40 41 43 44 44 44 42 41 39 38 36 34 34 33 31 30 29 29 30 31 31 31 31 31 31 30 30 29 29 27 26 26 25 25 24 24 23 22 21 21
37 39 41 43 44 45 44 45 44 43 43 42 41 40 37 34 33 31 30 29 29 29 29 30 30 30 28 28 28 28 27 27 26 25 25 24 24 23 23 22 21 21 20
39 40 42 44 44 44 43 42 42 42 42 42 42 41 40 39 36 34 31 30 28 28 28 28 28 29 28 28 27 26 25 25 24 24 24 24 23 23 23 22 22 21 20
41 42 43 44 44 43 43 43 43 44 44 44 43 42 40 38 36 35 33 31 29 28 28 27 27 26 26 27 26 25 24 23 22 22 22 22 22 21 21 21 21 21 20
42 43 43 43 42 42 43 44 44 44 44 43 42 41 39 37 35 34 33 32 30 29 28 27 26 25 24 24 24 24 23 22 21 20 20 20 19 19 19 18 18 18 18
41 42 41 41 41 43 43 43 43 43 42 41 40 39 38 37 35 33 32 32 30 29 28 26 25 24 24 23 22 22 22 20 19 19 19 18 17 17 17 17 17 16 16

GFSGL_700_spd_120.txt.gz
Wind_Speed
19 22 28 31 35 37 38 41 45 51 50 53 57 53 65 38 39 46 48 52 53 51 49 48 47 43 41 42 40 33 33 37 40 38 41 39 41 43 37 31 29 31 34
15 18 19 23 24 23 27 29 29 34 38 47 44 57 59 34 40 41 44 48 47 49 47 49 47 42 42 43 45 41 37 38 39 41 39 40 36 37 34 31 28 32 34
18 20 20 14 15 15 15 17 22 28 35 40 42 44 38 41 41 36 37 41 45 47 47 47 45 42 44 45 48 39 42 41 45 40 34 35 37 35 35 35 36 31 34
20 15 10 13 11 11 12 15 18 22 29 34 38 41 41 39 36 35 38 38 40 43 43 46 46 46 48 51 49 43 47 45 42 36 33 36 39 37 33 41 35 34 34
22 18 13 10 12 12 17 16 22 26 32 35 32 31 30 33 37 31 32 37 41 43 48 48 50 49 49 49 46 46 44 46 44 40 40 40 40 38 38 36 41 40 38
31 31 26 22 11 13 11 12 15 27 38 22 30 32 26 33 30 32 32 34 38 41 44 49 47 46 51 49 49 48 47 44 40 43 41 41 39 39 40 39 38 39 37
35 34 34 31 26 5 8 7 11 8 14 15 17 19 23 22 31 29 32 35 37 42 41 43 48 47 46 44 49 41 40 41 41 41 40 41 38 37 37 35 36 36 38
38 39 37 37 37 33 27 20 8 9 10 12 17 19 21 25 31 24 19 23 41 41 42 40 38 48 52 44 49 53 49 43 41 41 40 39 38 36 34 34 34 36 40
35 37 37 39 40 39 37 36 28 32 26 18 13 3 6 17 27 40 36 36 20 30 28 33 36 32 32 38 43 41 48 41 46 42 40 39 39 37 35 35 37 40 36
33 34 35 35 35 37 36 34 34 34 35 32 26 27 25 21 19 11 6 14 17 24 23 23 34 35 42 43 38 37 44 41 40 42 40 39 39 37 35 34 33 30 33
32 31 31 32 33 34 34 33 31 31 30 28 27 26 25 23 23 21 20 18 16 12 10 8 16 16 19 26 31 34 38 39 41 42 40 39 39 38 36 35 36 35 37
27 27 28 28 29 29 29 29 28 28 27 26 26 24 24 23 22 21 20 18 17 16 15 15 15 17 20 20 19 20 23 26 31 33 38 39 40 39 38 38 39 37 35
25 25 26 26 26 26 24 24 23 23 23 24 24 23 22 22 23 23 21 20 19 19 19 18 18 18 16 16 16 17 18 20 25 25 27 31 35 41 42 44 45 46 43
24 24 24 23 24 25 25 25 25 24 25 24 23 23 24 23 21 20 20 21 23 23 22 23 23 23 22 22 22 22 22 22 22 22 23 24 27 29 29 32 36 38 38
23 24 26 27 28 26 26 26 27 28 29 29 29 30 29 28 28 29 28 26 24 24 24 26 26 27 29 29 28 28 28 27 27 27 26 25 25 24 25 26 28 30 31
23 23 24 25 25 27 29 32 33 32 31 33 33 32 32 32 33 34 33 33 34 34 33 31 30 31 30 30 31 32 32 31 31 31 31 30 28 27 25 24 23 23 25
22 23 25 27 27 28 28 29 29 32 35 34 34 36 35 34 33 34 36 37 37 36 35 35 36 36 35 34 33 32 33 34 33 33 32 32 30 29 27 26 24 23 22
25 27 28 29 30 31 33 35 35 35 34 34 32 32 34 35 35 35 33 34 34 34 37 37 35 35 34 34 33 34 33 32 32 32 32 32 31 30 29 28 26 25 24
28 30 32 33 34 35 35 36 38 39 39 38 35 33 33 32 32 32 30 32 33 32 31 33 33 32 34 33 32 30 32 31 30 30 30 30 30 30 30 29 28 26 24
31 33 35 37 38 39 39 40 40 40 40 39 38 36 35 34 33 32 31 28 29 30 30 31 33 32 31 31 30 30 28 28 27 28 27 27 28 28 27 27 27 26 25
34 36 37 38 39 41 42 43 43 43 41 40 39 39 38 39 38 37 34 31 29 29 29 30 31 32 31 31 30 28 27 26 25 25 24 25 25 25 26 25 24 24 23
35 37 39 40 42 42 42 42 42 42 42 42 42 42 42 40 38 36 34 32 30 30 30 29 30 30 31 31 30 27 26 24 23 23 23 23 23 23 23 23 23 23 22
36 37 39 40 41 41 41 41 41 42 42 43 43 43 43 42 41 39 38 36 32 28 28 28 29 30 29 31 29 27 25 24 23 22 22 21 21 22 22 21 21 20 20
37 38 39 40 40 40 40 40 41 42 42 43 43 43 43 42 41 38 36 35 33 31 29 28 28 28 28 28 28 27 25 23 22 21 21 20 19 20 20 20 20 20 19
38 39 40 40 40 40 40 40 40 41 41 41 41 41 40 40 39 39 36 35 34 32 30 29 28 27 27 27 25 25 24 23 21 20 19 18 18 18 17 17 18 17 18
39 40 40 39 39 39 39 40 40 40 40 40 40 40 39 36 35 35 37 37 34 32 30 30 29 27 27 26 24 24 23 22 20 19 18 16 16 16 16 15 16 15 15

GFSGL_700_spd_123.txt.gz
Wind_Speed
23 20 18 20 21 24 28 31 35 38 40 44 47 52 50 59 57 55 55 44 49 52 49 53 50 47 45 45 44 41 36 35 37 35 36 31 31 33 34 36 34 34 35
23 21 19 13 14 15 17 24 29 30 32 38 42 49 49 50 53 53 45 54 50 38 37 49 52 49 49 48 47 42 38 37 39 37 34 37 31 34 37 36 36 34 29
27 26 19 5 7 9 12 12 12 15 18 18 27 39 47 45 44 47 53 48 49 40 46 48 51 48 50 48 46 42 41 40 42 44 41 36 33 38 40 35 36 34 33
30 33 21 5 6 5 4 5 6 9 10 11 16 23 36 42 39 43 41 39 39 39 47 48 51 47 48 49 45 43 42 44 44 43 37 34 39 38 35 33 35 34 37
32 35 36 26 11 4 5 9 11 14 17 15 17 21 26 31 38 36 39 39 34 34 45 41 43 51 48 51 45 46 46 44 44 45 45 46 45 42 38 38 38 36 37
41 41 38 37 32 25 13 16 6 9 19 24 22 26 30 32 36 29 38 44 42 43 44 47 49 45 47 49 48 48 48 45 47 48 46 38 41 44 40 41 39 39 41
36 38 40 42 43 42 39 36 27 20 11 12 6 28 33 42 33 24 22 31 38 48 39 41 33 39 44 44 48 51 46 46 45 48 58 43 38 40 43 40 40 40 40
33 34 36 37 40 42 45 45 46 42 41 40 37 36 17 12 12 17 13 23 24 27 34 28 35 43 42 47 52 49 50 55 46 43 44 42 40 41 40 41 41 40 39
30 33 35 36 36 37 38 38 39 37 37 39 39 39 38 34 30 25 17 1 18 11 18 22 33 28 25 34 42 39 37 32 39 38 31 41 50 44 40 40 41 40 39
29 31 31 32 32 33 34 34 34 34 35 34 32 31 29 29 31 30 29 29 25 18 15 11 7 9 16 20 25 28 33 38 45 38 37 42 39 47 45 44 41 39 39
26 27 27 28 29 31 30 30 30 29 28 27 28 27 25 24 24 23 22 19 18 18 19 21 22 19 16 14 9 8 11 21 23 30 38 36 40 40 44 44 41 41 41
24 24 25 26 27 27 27 27 27 27 26 27 26 24 24 23 21 20 19 19 18 17 16 15 13 11 11 10 10 12 14 15 19 19 18 19 23 31 36 43 44 41 41
22 22 24 24 24 24 23 23 23 24 24 25 24 23 23 23 23 22 20 18 17 17 16 16 16 18 18 18 17 16 16 16 17 17 17 20 22 24 26 28 32 34 37
19 21 22 22 23 23 23 23 23 23 24 25 26 26 25 22 20 18 17 18 19 20 21 21 21 21 21 22 22 22 22 23 23 23 23 23 23 23 23 25 27 29 31
20 21 22 24 24 25 24 25 27 29 31 31 31 30 28 28 28 27 25 23 23 23 24 24 25 26 27 28 28 29 30 29 29 29 29 29 29 29 29 28 28 29 29
21 23 25 27 29 30 31 33 33 32 31 33 34 34 33 31 30 31 29 28 28 28 28 29 30 30 30 31 31 31 32 33 33 33 32 32 32 32 32 32 32 32 31
19 21 23 24 26 27 30 31 31 33 34 33 34 34 35 34 31 30 32 33 33 33 33 32 32 31 31 31 32 32 32 33 33 33 34 35 35 34 34 34 33 33 32
20 23 25 27 28 30 31 31 32 32 32 31 32 34 34 33 33 32 30 30 31 32 33 33 31 31 32 33 32 31 30 30 31 31 32 33 34 34 33 33 32 32 31
22 24 27 29 30 31 32 33 34 34 34 33 31 32 32 33 34 33 33 32 31 30 31 32 31 31 32 33 32 31 30 28 28 27 28 29 30 30 30 30 29 28 28
25 27 28 30 32 33 34 34 33 33 33 33 33 33 32 31 31 31 31 31 31 30 29 30 31 31 32 32 32 31 29 27 26 25 25 25 26 26 26 25 26 25 25
29 31 33 34 35 37 37 37 37 37 36 36 35 35 35 36 37 36 33 31 31 31 29 29 29 31 32 32 32 31 31 28 27 26 24 23 23 23 23 22 22 22 22
31 33 35 36 37 38 38 39 39 39 39 39 39 39 38 37 36 35 35 34 33 32 31 30 29 28 30 32 31 30 29 27 25 24 23 22 22 22 22 20 20 20 20
32 34 35 36 37 37 38 38 38 38 38 39 39 39 40 40 39 38 38 37 34 31 30 30 29 27 28 28 31 31 28 26 25 23 22 21 21 21 20 20 20 19 18
34 35 36 36 37 37 37 37 37 37 37 38 38 38 38 38 38 38 39 40 38 36 33 32 31 28 27 26 27 28 28 25 24 22 20 19 19 19 18 18 17 17 17
35 36 36 37 37 37 37 36 36 36 37 37 37 37 37 37 37 36 36 36 37 37 35 33 31 30 28 26 26 26 25 24 22 21 19 18 18 17 17 17 15 14 14
36 36 37 37 37 37 37 36 36 36 36 36 36 37 37 37 37 35 35 34 33 35 37 36 33 31 30 28 26 25 24 23 21 20 19 17 17 16 15 16 14 12 13

GFSGL_700_spd_129.txt.gz
Wind_Speed
27 24 19 15 15 15 11 11 12 14 16 20 21 27 31 34 35 40 46 52 58 57 55 55 53 50 43 35 30 29 33 39 44 47 41 37 37 33 34 34 35 36 34
37 32 23 15 9 8 9 9 9 8 7 8 11 16 21 25 28 32 36 42 46 56 57 52 49 48 47 38 35 38 36 40 49 53 44 39 39 37 35 36 39 38 37
41 42 35 22 18 18 14 14 14 11 7 3 5 10 16 20 26 31 35 38 38 42 47 58 55 47 47 45 39 37 29 42 36 60 45 43 40 39 39 39 40 41 39
38 42 45 46 39 26 22 17 18 18 15 11 10 10 12 12 17 21 26 31 36 39 38 41 47 54 52 46 43 45 36 37 35 29 51 45 46 43 42 44 44 43 41
32 37 40 45 48 48 49 44 33 25 17 15 15 14 16 16 16 16 10 14 25 32 33 35 36 44 48 46 39 44 47 46 39 39 42 46 46 48 47 48 46 43 42
21 25 28 28 29 34 38 38 40 46 46 40 28 19 10 14 17 15 11 13 18 20 24 27 34 37 39 45 52 56 49 42 45 47 48 53 51 54 50 51 48 48 47
20 23 26 29 30 31 33 31 31 34 35 36 40 44 43 35 26 17 9 12 14 16 23 31 36 33 34 41 39 45 46 40 52 46 52 54 58 55 52 56 51 51 52
17 20 23 26 27 28 28 29 30 30 30 31 29 28 30 34 36 35 31 24 12 4 13 22 25 29 33 36 42 45 44 42 48 52 52 54 54 58 59 62 56 55 52
15 20 23 25 26 27 27 28 28 28 27 27 26 24 23 25 24 21 23 27 30 27 24 20 5 6 18 33 33 32 38 38 40 48 41 42 54 51 55 48 56 59 53
16 20 22 24 25 26 27 28 28 28 28 27 26 24 23 21 20 20 18 17 17 17 16 18 16 18 19 14 9 5 2 21 25 34 31 43 44 42 40 50 42 42 44
17 20 22 23 24 26 27 26 26 26 25 24 24 24 23 22 22 20 18 16 15 14 12 9 7 7 5 4 4 4 3 4 7 9 9 9 13 23 29 34 37 38 41
17 18 18 19 21 22 23 24 24 25 24 23 24 23 22 22 21 20 19 18 17 16 14 13 11 9 8 7 6 7 9 9 11 12 13 14 13 12 13 16 20 24 30
14 14 16 18 20 20 20 20 20 21 21 22 22 22 22 22 21 21 20 19 19 17 17 17 17 17 15 14 14 15 15 16 18 19 20 22 21 22 21 23 24 23 24
12 14 15 16 17 18 21 23 24 23 23 24 24 24 24 23 21 20 20 20 21 21 21 21 21 21 20 20 20 19 20 21 23 24 26 28 29 29 29 30 30 31 31
10 11 14 16 19 21 23 24 26 28 29 29 29 29 28 28 28 29 28 25 23 23 23 23 22 23 24 25 26 26 27 27 28 28 29 30 32 33 35 35 36 36 38
9 13 16 18 20 23 27 30 31 32 32 33 33 32 33 33 33 33 32 32 32 31 28 27 28 28 27 27 27 27 28 29 30 31 33 34 34 34 34 36 37 38 39
10 13 16 20 24 26 29 30 32 32 32 33 33 34 34 35 36 36 37 36 36 35 34 34 33 33 33 32 32 31 31 31 32 33 34 34 34 36 36 37 36 37 38
11 15 18 21 24 27 29 31 31 31 31 33 33 34 35 36 37 37 37 37 36 36 37 37 36 35 35 35 35 33 33 33 33 34 34 35 36 36 36 36 37 37 37
14 17 21 24 26 28 29 31 32 33 33 33 34 35 35 36 37 38 38 38 38 38 37 37 37 36 35 34 34 35 35 35 35 35 36 36 37 35 35 36 36 36 36
16 19 22 24 27 29 30 31 32 33 34 34 33 33 33 34 35 36 37 38 38 39 38 38 37 37 37 37 36 35 34 34 35 36 36 37 37 37 35 34 34 33 33
18 21 24 26 28 30 30 31 32 33 34 33 34 34 34 34 34 35 36 37 37 38 38 38 38 37 38 37 37 36 35 35 35 35 35 36 36 35 33 32 32 32 31
21 24 26 29 31 32 32 33 34 36 37 36 36 36 36 36 36 36 37 37 37 37 37 37 37 38 37 38 37 36 35 35 34 34 35 35 34 33 31 30 29 29 30
24 26 28 31 33 33 33 34 35 36 38 38 38 38 38 37 37 38 38 38 39 39 39 39 38 37 37 36 37 36 35 35 34 33 32 32 32 32 30 28 28 27 28
25 28 30 32 33 33 34 34 35 36 37 37 37 38 38 38 38 39 40 40 40 40 40 40 40 39 37 36 36 35 34 34 34 32 31 31 30 28 27 26 26 26 25
27 29 32 32 32 34 35 35 35 36 36 37 37 37 37 38 38 39 40 41 41 42 42 42 42 40 39 36 35 35 35 34 34 32 29 28 27 25 25 25 24 23 22
28 31 32 32 34 34 34 34 34 35 36 36 36 37 37 38 39 40 41 41 42 42 42 41 40 39 38 36 34 34 33 32 31 30 28 26 24 23 23 22 21 20 19